[[{"header":{"parameterUnit":"m.s-1","parameterCategory":1,"la1":30.6,"la2":28.766,"lo1":-90.7593,"lo2":-88.6598,"dy":0.0162,"dx":0.0183,"nx":116,"ny":114,"refTime":"2023-03-23T12:00:00:Z","depth":0,"parameterNumber":2,"parameterNumberName":"U-component_of_WINDS"},"data":[0.0,0.0,0.0,0.0,0.0,0.0,0.0,0.0,0.0,0.0,0.0,0.0,0.0,0.0,0.0,0.0,0.0,0.0,0.0,0.0,0.0,0.0,0.0,0.0,0.0,0.0,0.0,0.0,0.0,0.0,0.0,0.0,0.0,0.0,0.0,0.0,0.0,0.0,0.0,0.0,0.0,0.0,0.0,0.0,0.0,0.0,0.0,0.0,0.0,0.0,0.0,0.0,0.0,0.0,0.0,0.0,0.0,0.0,0.0,0.0,0.0,0.0,0.0,0.0,0.0,0.0,0.0,0.0,0.0,0.0,0.0,0.0,0.0,0.0,0.0,0.0,0.0,0.0,0.0,0.0,0.0,0.0,0.0,0.0,0.0,0.0,0.0,0.0,0.0,0.0,0.0,0.0,0.0,0.0,0.0,0.0,0.0,0.0,0.0,0.0,0.0,0.0,0.0,0.0,0.0,0.0,0.0,0.0,0.0,0.0,0.0,0.0,0.0,0.0,0.0,0.0,0.0,0.0,0.0,0.0,0.0,0.0,0.0,0.0,0.0,0.0,0.0,0.0,0.0,0.0,0.0,0.0,0.0,0.0,0.0,0.0,0.0,0.0,0.0,0.0,0.0,0.0,0.0,0.0,0.0,0.0,0.0,0.0,0.0,0.0,0.0,0.0,0.0,0.0,0.0,0.0,0.0,0.0,0.0,0.0,0.0,0.0,0.0,0.0,0.0,0.0,0.0,0.0,0.0,0.0,0.0,0.0,0.0,0.0,0.0,0.0,0.0,0.0,0.0,0.0,0.0,0.0,0.0,0.0,0.0,0.0,0.0,0.0,0.0,0.0,0.0,0.0,0.0,0.0,0.0,0.0,0.0,0.0,0.0,0.0,0.0,0.0,0.0,0.0,0.0,0.0,0.0,0.0,0.0,0.0,0.0,0.0,0.0,0.0,0.0,0.0,0.0,0.0,0.0,0.0,0.0,0.0,0.0,0.0,0.0,0.0,0.0,0.0,0.0,0.0,0.0,0.0,0.0,0.0,0.0,0.0,0.0,0.0,0.0,0.0,0.0,0.0,0.0,0.0,0.0,0.0,0.0,0.0,0.0,0.0,0.0,0.0,0.0,0.0,0.0,0.0,0.0,0.0,0.0,0.0,0.0,0.0,0.0,0.0,0.0,0.0,0.0,0.0,0.0,0.0,0.0,0.0,0.0,0.0,0.0,0.0,0.0,0.0,0.0,0.0,0.0,0.0,0.0,0.0,0.0,0.0,0.0,0.0,0.0,0.0,0.0,0.0,0.0,0.0,0.0,0.0,0.0,0.0,0.0,0.0,0.0,0.0,0.0,0.0,0.0,0.0,0.0,0.0,0.0,0.0,0.0,0.0,0.0,0.0,0.0,0.0,0.0,0.0,0.0,0.0,0.0,0.0,0.0,0.0,0.0,0.0,0.0,0.0,0.0,0.0,0.0,0.0,0.0,0.0,0.0,0.0,0.0,0.0,0.0,0.0,0.0,0.0,0.0,0.0,0.0,0.0,0.0,0.0,0.0,0.0,0.0,0.0,0.0,0.0,0.0,0.0,0.0,0.0,0.0,0.0,0.0,0.0,0.0,0.0,0.0,0.0,0.0,0.0,0.0,0.0,0.0,0.0,0.0,0.0,0.0,0.0,0.0,0.0,0.0,0.0,0.0,0.0,0.0,0.0,0.0,0.0,0.0,0.0,0.0,0.0,0.0,0.0,0.0,0.0,0.0,0.0,0.0,0.0,0.0,0.0,0.0,0.0,0.0,0.0,0.0,0.0,0.0,0.0,0.0,0.0,0.0,0.0,0.0,0.0,0.0,0.0,0.0,0.0,0.0,0.0,0.0,0.0,0.0,0.0,0.0,0.0,0.0,0.0,0.0,0.0,0.0,0.0,0.0,0.0,0.0,0.0,0.0,0.0,0.0,0.0,0.0,0.0,0.0,0.0,0.0,0.0,0.0,0.0,0.0,0.0,0.0,0.0,0.0,0.0,0.0,0.0,0.0,0.0,0.0,0.0,0.0,0.0,0.0,0.0,0.0,0.0,0.0,0.0,0.0,0.0,0.0,0.0,0.0,0.0,0.0,0.0,0.0,0.0,0.0,0.0,0.0,0.0,0.0,0.0,0.0,0.0,0.0,0.0,0.0,0.0,0.0,0.0,0.0,0.0,0.0,0.0,0.0,0.0,0.0,0.0,0.0,0.0,0.0,0.0,0.0,0.0,0.0,0.0,0.0,0.0,0.0,0.0,0.0,0.0,0.0,0.0,0.0,0.0,0.0,0.0,0.0,0.0,0.0,0.0,0.0,0.0,0.0,0.0,0.0,0.0,0.0,0.0,0.0,0.0,0.0,0.0,0.0,0.0,0.0,0.0,0.0,0.0,0.0,0.0,0.0,0.0,0.0,0.0,0.0,0.0,0.0,0.0,0.0,0.0,0.0,0.0,0.0,0.0,0.0,0.0,0.0,0.0,0.0,0.0,0.0,0.0,0.0,0.0,0.0,0.0,0.0,0.0,0.0,0.0,0.0,0.0,0.0,0.0,0.0,0.0,0.0,0.0,0.0,0.0,0.0,0.0,0.0,0.0,0.0,0.0,0.0,0.0,0.0,0.0,0.0,0.0,0.0,0.0,0.0,0.0,0.0,0.0,0.0,0.0,0.0,0.0,0.0,0.0,0.0,0.0,0.0,0.0,0.0,0.0,0.0,0.0,0.0,0.0,0.0,0.0,0.0,0.0,0.0,0.0,0.0,0.0,0.0,0.0,0.0,0.0,0.0,0.0,0.0,0.0,0.0,0.0,0.0,0.0,0.0,0.0,0.0,0.0,0.0,0.0,0.0,0.0,0.0,0.0,0.0,0.0,0.0,0.0,0.0,0.0,0.0,0.0,0.0,0.0,0.0,0.0,0.0,0.0,0.0,0.0,0.0,0.0,0.0,0.0,0.0,0.0,0.0,0.0,0.0,0.0,0.0,0.0,0.0,0.0,0.0,0.0,0.0,0.0,0.0,0.0,0.0,0.0,0.0,0.0,0.0,0.0,0.0,0.0,0.0,0.0,0.0,0.0,0.0,0.0,0.0,0.0,0.0,0.0,0.0,0.0,0.0,0.0,0.0,0.0,0.0,0.0,0.0,0.0,0.0,0.0,0.0,0.0,0.0,0.0,0.0,0.0,0.0,0.0,0.0,0.0,0.0,0.0,0.0,0.0,0.0,0.0,0.0,0.0,0.0,0.0,0.0,0.0,0.0,0.0,0.0,0.0,0.0,0.0,0.0,0.0,0.0,0.0,0.0,0.0,0.0,0.0,0.0,0.0,0.0,0.0,0.0,0.0,0.0,0.0,0.0,0.0,0.0,0.0,0.0,0.0,0.0,0.0,0.0,0.0,0.0,0.0,0.0,0.0,0.0,0.0,0.0,0.0,0.0,0.0,0.0,0.0,0.0,0.0,0.0,0.0,0.0,0.0,0.0,0.0,0.0,0.0,0.0,0.0,0.0,0.0,0.0,0.0,0.0,0.0,0.0,0.0,0.0,0.0,0.0,0.0,0.0,0.0,0.0,0.0,0.0,0.0,0.0,0.0,0.0,0.0,0.0,0.0,0.0,0.0,0.0,0.0,0.0,0.0,0.0,0.0,0.0,0.0,0.0,0.0,0.0,0.0,0.0,0.0,0.0,0.0,0.0,0.0,0.0,0.0,0.0,0.0,0.0,0.0,0.0,0.0,0.0,0.0,0.0,0.0,0.0,0.0,0.0,0.0,0.0,0.0,0.0,0.0,0.0,0.0,0.0,0.0,0.0,0.0,0.0,0.0,0.0,0.0,0.0,0.0,0.0,0.0,0.0,0.0,0.0,0.0,0.0,0.0,0.0,0.0,0.0,0.0,0.0,0.0,0.0,0.0,0.0,0.0,0.0,0.0,0.0,0.0,0.0,0.0,0.0,0.0,0.0,0.0,0.0,0.0,0.0,0.0,0.0,0.0,0.0,0.0,0.0,0.0,0.0,0.0,0.0,0.0,0.0,0.0,0.0,0.0,0.0,0.0,0.0,0.0,0.0,0.0,0.0,0.0,0.0,0.0,0.0,0.0,0.0,0.0,0.0,0.0,0.0,0.0,0.0,0.0,0.0,0.0,0.0,0.0,0.0,0.0,0.0,0.0,0.0,0.0,0.0,0.0,0.0,0.0,0.0,0.0,0.0,0.0,0.0,0.0,0.0,0.0,0.0,0.0,0.0,0.0,0.0,0.0,0.0,0.0,0.0,0.0,0.0,0.0,0.0,0.0,0.0,0.0,0.0,0.0,0.0,0.0,0.0,0.0,0.0,0.0,0.0,0.0,0.0,0.0,0.0,0.0,0.0,0.0,0.0,0.0,0.0,0.0,0.0,0.0,0.0,0.0,0.0,0.0,0.0,0.0,0.0,0.0,0.0,0.0,0.0,0.0,0.0,0.0,0.0,0.0,0.0,0.0,0.0,0.0,0.0,0.0,0.0,0.0,0.0,0.0,0.0,0.0,0.0,0.0,0.0,0.0,0.0,0.0,0.0,0.0,0.0,0.0,0.0,0.0,0.0,0.0,0.0,0.0,0.0,0.0,0.0,0.0,0.0,0.0,0.0,0.0,0.0,0.0,0.0,0.0,0.0,0.0,0.0,0.0,0.0,0.0,0.0,0.0,0.0,0.0,0.0,0.0,0.0,0.0,0.0,0.0,0.0,0.0,0.0,0.0,0.0,0.0,0.0,0.0,0.0,0.0,0.0,0.0,0.0,0.0,0.0,0.0,0.0,0.0,0.0,0.0,0.0,0.0,0.0,0.0,0.0,0.0,0.0,0.0,0.0,0.0,0.0,0.0,0.0,0.0,0.0,0.0,0.0,0.0,0.0,0.0,0.0,0.0,0.0,0.0,0.0,0.0,0.0,0.0,0.0,0.0,0.0,0.0,0.0,0.0,0.0,0.0,0.0,0.0,0.0,0.0,0.0,0.0,0.0,0.0,0.0,0.0,0.0,0.0,0.0,0.0,0.0,0.0,0.0,0.0,0.0,0.0,0.0,0.0,0.0,0.0,0.0,0.0,0.0,0.0,0.0,0.0,0.0,0.0,0.0,0.0,0.0,0.0,0.0,0.0,0.0,0.0,0.0,0.0,0.0,0.0,0.0,0.0,0.0,0.0,0.0,0.0,0.0,0.0,0.0,0.0,0.0,0.0,0.0,0.0,0.0,0.0,0.0,0.0,0.0,0.0,0.0,0.0,0.0,0.0,0.0,0.0,0.0,0.0,0.0,0.0,0.0,0.0,0.0,0.0,0.0,0.0,0.0,0.0,0.0,0.0,0.0,0.0,0.0,0.0,0.0,0.0,0.0,0.0,0.0,0.0,0.0,0.0,0.0,0.0,0.0,0.0,0.0,0.0,0.0,0.0,0.0,0.0,0.0,0.0,0.0,0.0,0.0,0.0,0.0,0.0,0.0,0.0,0.0,0.0,0.0,0.0,0.0,0.0,0.0,0.0,0.0,0.0,0.0,0.0,0.0,0.0,0.0,0.0,0.0,0.0,0.0,0.0,0.0,0.0,0.0,0.0,0.0,0.0,0.0,0.0,0.0,0.0,0.0,0.0,0.0,0.0,0.0,0.0,0.0,0.0,0.0,0.0,0.0,0.0,0.0,0.0,0.0,0.0,0.0,0.0,0.0,0.0,0.0,0.0,0.0,0.0,0.0,0.0,0.0,0.0,0.0,0.0,0.0,0.0,0.0,0.0,0.0,0.0,0.0,0.0,0.0,0.0,0.0,0.0,0.0,0.0,0.0,0.0,0.0,0.0,0.0,0.0,0.0,0.0,0.0,0.0,0.0,0.0,0.0,0.0,0.0,0.0,0.0,0.0,0.0,0.0,0.0,0.0,0.0,0.0,0.0,0.0,0.0,0.0,0.0,0.0,0.0,0.0,0.0,0.0,0.0,0.0,0.0,0.0,0.0,0.0,0.0,0.0,0.0,0.0,0.0,0.0,0.0,0.0,0.0,0.0,0.0,0.0,0.0,0.0,0.0,0.0,0.0,0.0,0.0,0.0,0.0,0.0,0.0,0.0,0.0,0.0,0.0,0.0,-3.4069,-3.3941,0.0,0.0,0.0,0.0,0.0,0.0,0.0,0.0,0.0,0.0,0.0,0.0,0.0,0.0,0.0,0.0,0.0,0.0,0.0,0.0,0.0,0.0,0.0,0.0,0.0,0.0,0.0,0.0,0.0,0.0,0.0,0.0,0.0,0.0,0.0,0.0,0.0,0.0,0.0,0.0,0.0,0.0,0.0,0.0,0.0,0.0,0.0,0.0,0.0,0.0,0.0,0.0,0.0,0.0,0.0,0.0,0.0,0.0,0.0,0.0,0.0,0.0,0.0,0.0,0.0,0.0,0.0,0.0,0.0,0.0,0.0,0.0,0.0,0.0,0.0,0.0,0.0,0.0,0.0,0.0,0.0,0.0,0.0,0.0,0.0,0.0,0.0,0.0,0.0,0.0,0.0,0.0,0.0,0.0,0.0,0.0,0.0,0.0,0.0,0.0,0.0,0.0,0.0,0.0,0.0,0.0,0.0,0.0,0.0,0.0,0.0,0.0,0.0,0.0,-3.2753,-3.2691,0.0,0.0,0.0,0.0,0.0,0.0,0.0,0.0,0.0,0.0,0.0,0.0,0.0,0.0,0.0,0.0,0.0,0.0,0.0,0.0,0.0,0.0,0.0,0.0,0.0,0.0,0.0,0.0,0.0,0.0,0.0,0.0,0.0,0.0,0.0,0.0,0.0,0.0,0.0,0.0,0.0,0.0,0.0,0.0,0.0,0.0,0.0,0.0,0.0,0.0,0.0,0.0,0.0,0.0,0.0,0.0,0.0,0.0,0.0,0.0,0.0,0.0,0.0,0.0,0.0,0.0,0.0,0.0,0.0,0.0,0.0,0.0,0.0,0.0,0.0,0.0,0.0,0.0,0.0,0.0,0.0,0.0,0.0,0.0,0.0,0.0,0.0,0.0,0.0,0.0,0.0,0.0,0.0,0.0,0.0,0.0,0.0,0.0,0.0,0.0,0.0,0.0,0.0,0.0,0.0,0.0,0.0,0.0,-2.7073,-2.7128,-2.702,-2.7626,-2.8077,-2.8528,-3.0786,-3.0802,-2.9132,-2.8492,0.0,0.0,0.0,0.0,0.0,0.0,0.0,0.0,0.0,0.0,0.0,0.0,0.0,0.0,0.0,0.0,0.0,0.0,0.0,0.0,0.0,0.0,0.0,0.0,0.0,0.0,0.0,0.0,0.0,0.0,0.0,0.0,0.0,0.0,0.0,0.0,0.0,0.0,-2.2978,-2.3668,-2.4754,-2.6264,-2.8956,0.0,0.0,0.0,0.0,0.0,0.0,0.0,0.0,0.0,0.0,0.0,0.0,0.0,0.0,0.0,0.0,0.0,0.0,0.0,0.0,0.0,0.0,0.0,0.0,0.0,0.0,0.0,0.0,0.0,0.0,0.0,0.0,0.0,0.0,0.0,0.0,0.0,0.0,0.0,0.0,0.0,0.0,0.0,-2.9822,-2.8822,0.0,0.0,0.0,0.0,0.0,0.0,0.0,0.0,0.0,0.0,0.0,0.0,0.0,-2.3507,-2.6101,-2.6211,-2.5554,-2.4113,-2.4558,-2.443,-2.3869,-2.5182,-2.5594,-2.5265,-2.6206,0.0,-2.7826,-2.6475,0.0,0.0,0.0,0.0,0.0,0.0,0.0,0.0,0.0,0.0,0.0,0.0,0.0,0.0,0.0,0.0,0.0,0.0,0.0,0.0,0.0,0.0,0.0,0.0,0.0,0.0,0.0,0.0,0.0,0.0,0.0,0.0,0.0,0.0,0.0,0.0,-1.8583,-1.9058,-1.9857,-2.0693,-2.1459,-2.2086,-2.3601,-2.559,-2.793,-2.7712,0.0,0.0,0.0,0.0,0.0,0.0,0.0,0.0,0.0,0.0,0.0,0.0,0.0,0.0,0.0,0.0,0.0,0.0,0.0,0.0,0.0,0.0,0.0,0.0,0.0,0.0,0.0,0.0,0.0,0.0,0.0,0.0,0.0,0.0,0.0,0.0,0.0,0.0,0.0,-2.953,-2.8178,-2.7064,-2.4859,-2.2901,0.0,0.0,0.0,0.0,0.0,0.0,0.0,0.0,0.0,-1.1604,-1.5124,-1.8178,-2.0822,-2.2038,-2.2311,-2.1651,-2.2374,-2.251,-2.2158,-2.2859,-2.3194,-2.3156,-2.3201,-2.3555,-2.4044,-2.3913,-2.3327,-2.2302,0.0,0.0,0.0,0.0,-1.5478,-1.53,0.0,0.0,0.0,0.0,0.0,0.0,0.0,0.0,0.0,0.0,0.0,0.0,0.0,0.0,0.0,-2.6567,0.0,0.0,0.0,0.0,0.0,0.0,0.0,0.0,0.0,0.0,0.0,-1.5368,-1.5518,-1.5903,-1.6613,-1.7482,-1.8001,-1.8406,-1.8801,-2.1207,-2.4859,-2.4568,-2.3815,0.0,0.0,0.0,0.0,0.0,0.0,0.0,0.0,0.0,0.0,0.0,0.0,0.0,0.0,0.0,0.0,0.0,0.0,0.0,0.0,0.0,0.0,0.0,0.0,0.0,0.0,0.0,0.0,0.0,0.0,0.0,0.0,0.0,0.0,0.0,0.0,0.0,0.0,-2.8188,-2.6808,-2.5679,-2.3086,-2.1023,0.0,0.0,0.0,0.0,0.0,0.0,-0.2316,-0.3324,-0.4948,-0.7063,-1.0623,-1.3736,-1.6274,-1.8377,-1.9382,-1.9396,-2.0297,-2.0733,-2.0657,-2.0778,-2.1034,-2.1356,-2.0992,-2.0686,-2.0535,-2.1424,-2.1376,-2.0536,-1.8806,-1.7556,-1.6572,-1.4777,-1.4167,-1.4144,0.0,0.0,0.0,0.0,0.0,0.0,0.0,0.0,0.0,0.0,0.0,0.0,0.0,0.0,-2.5439,-2.5273,-2.4697,-2.4124,0.0,0.0,0.0,0.0,0.0,0.0,0.0,0.0,0.0,-1.2568,-1.2493,-1.279,-1.3557,-1.4132,-1.4707,-1.5256,-1.5785,-1.7839,-2.088,-2.0769,-2.0251,-1.9545,0.0,0.0,0.0,0.0,0.0,0.0,0.0,0.0,0.0,0.0,0.0,0.0,0.0,0.0,0.0,0.0,0.0,0.0,0.0,0.0,0.0,0.0,0.0,0.0,0.0,0.0,0.0,0.0,0.0,0.0,0.0,0.0,0.0,0.0,0.0,0.0,0.0,0.0,0.0,-2.5304,-2.2526,0.0,0.0,0.0,0.0,-0.9004,-0.5909,-0.3389,-0.1546,-0.1806,-0.2867,-0.4689,-0.7655,-1.0644,-1.3661,-1.5623,-1.6879,-1.745,-1.8275,-1.8746,-1.8931,-1.9003,-1.9257,-1.962,-1.9492,-1.9036,-1.8484,-1.9377,-1.9478,-1.891,-1.7652,-1.6421,-1.5238,-1.4387,-1.3475,-1.2562,0.0,0.0,0.0,0.0,0.0,0.0,0.0,0.0,0.0,0.0,0.0,0.0,0.0,-2.4188,-2.4381,-2.4073,-2.3446,-2.2882,-2.2445,0.0,0.0,0.0,0.0,0.0,0.0,0.0,-1.0169,-1.0027,-0.9767,-0.9801,-1.0192,-1.0445,-1.0804,-1.1364,-1.1736,-1.3003,-1.491,-1.668,-1.7519,-1.7558,-1.6483,-1.5973,0.0,0.0,0.0,0.0,0.0,0.0,0.0,0.0,0.0,0.0,0.0,0.0,0.0,0.0,0.0,0.0,0.0,0.0,0.0,0.0,0.0,0.0,0.0,0.0,0.0,0.0,0.0,0.0,0.0,0.0,0.0,0.0,0.0,0.0,0.0,0.0,0.0,-2.4309,-2.1588,0.0,-1.7624,-1.4419,-1.1301,-0.8572,-0.5894,-0.3544,-0.1713,-0.1896,-0.2679,-0.4053,-0.6469,-0.9118,-1.1866,-1.357,-1.4982,-1.6057,-1.6439,-1.6919,-1.7447,-1.7404,-1.7542,-1.7872,-1.7763,-1.739,-1.688,-1.6972,-1.7084,-1.7065,-1.6334,-1.5363,-1.4389,-1.335,-1.2665,-1.2129,0.0,0.0,0.0,0.0,0.0,0.0,0.0,0.0,0.0,0.0,0.0,-2.3393,-2.2871,-2.3045,-2.3075,-2.2823,-2.2261,-2.1608,-2.0973,0.0,0.0,0.0,0.0,0.0,0.0,-0.8213,-0.7529,-0.7397,-0.6844,-0.6731,-0.6916,-0.696,-0.7089,-0.75,-0.7985,-0.8899,-1.0019,-1.2018,-1.3885,-1.5379,-1.4495,-1.4246,-1.4421,0.0,0.0,0.0,0.0,0.0,0.0,0.0,0.0,0.0,0.0,0.0,0.0,0.0,0.0,0.0,0.0,0.0,0.0,0.0,0.0,0.0,0.0,0.0,0.0,0.0,0.0,0.0,0.0,0.0,0.0,0.0,0.0,0.0,0.0,-2.5769,-2.4314,-2.3355,-2.0902,-1.8611,-1.6937,-1.4064,-1.1148,-0.8419,-0.6323,-0.4374,-0.2578,-0.2589,-0.3153,-0.4133,-0.5949,-0.802,-1.0479,-1.1906,-1.3199,-1.4513,-1.4844,-1.529,-1.5833,-1.5787,-1.5967,-1.6404,-1.613,-1.5786,-1.5429,-1.5089,-1.5023,-1.5025,-1.4951,-1.4439,-1.358,-1.2477,-1.1886,-1.1526,0.0,0.0,0.0,0.0,0.0,0.0,0.0,0.0,0.0,0.0,-2.3433,-2.293,-2.2627,-2.1978,-2.1553,-2.1553,-2.1135,-2.0348,-1.9198,-1.772,0.0,0.0,0.0,0.0,-0.762,-0.5956,-0.5057,-0.4843,-0.3842,-0.3535,-0.3789,-0.3692,-0.3683,-0.3856,-0.4687,-0.556,-0.6438,-0.7049,-0.9388,-1.2772,-1.3213,-1.3119,-1.2788,0.0,0.0,0.0,0.0,0.0,0.0,0.0,0.0,0.0,0.0,0.0,0.0,0.0,0.0,0.0,0.0,0.0,0.0,0.0,0.0,0.0,0.0,0.0,0.0,0.0,0.0,0.0,0.0,0.0,0.0,0.0,0.0,0.0,-2.6119,-2.5066,-2.3874,-2.2508,-2.0546,-1.8416,-1.6301,-1.4011,-1.1375,-0.8503,-0.7166,-0.578,-0.4174,-0.3965,-0.4187,-0.4944,-0.5932,-0.7461,-0.9575,-1.0558,-1.1646,-1.2763,-1.3314,-1.3818,-1.411,-1.4138,-1.4487,-1.5108,-1.4647,-1.4341,-1.4145,-1.3803,-1.3321,-1.2826,-1.3666,-1.3545,-1.2846,-1.1848,-1.1137,-1.0555,0.0,0.0,0.0,0.0,0.0,0.0,0.0,0.0,0.0,0.0,-2.2696,-2.1958,-2.1762,-2.1342,-2.1008,-2.088,-2.0431,-1.9566,-1.8222,0.0,0.0,0.0,0.0,0.0,-0.5746,-0.4484,-0.357,-0.3024,-0.1754,-0.1088,-0.1153,-0.0746,-0.0739,-0.1041,-0.1998,-0.2851,-0.3852,-0.502,-0.6608,-0.8457,-1.0178,-1.1216,-1.1933,0.0,0.0,0.0,0.0,0.0,0.0,0.0,0.0,0.0,0.0,0.0,0.0,0.0,0.0,0.0,0.0,0.0,0.0,0.0,0.0,0.0,0.0,0.0,0.0,0.0,0.0,0.0,0.0,0.0,0.0,0.0,-2.6567,-2.5043,-2.4883,-2.3968,-2.2892,-2.1798,-1.9954,-1.8102,-1.6432,-1.4031,-1.1818,-1.0003,-0.8516,-0.7285,-0.6231,-0.5831,-0.5773,-0.6145,-0.686,-0.7819,-0.9007,-0.9826,-1.0559,-1.1212,-1.1749,-1.2159,-1.2323,-1.2928,-1.3319,-1.3494,-1.3563,-1.339,-1.2964,-1.2765,-1.2336,-1.1911,-1.2512,-1.2328,-1.1717,-1.0995,-1.0145,-0.9133,0.0,0.0,0.0,0.0,0.0,0.0,0.0,0.0,0.0,0.0,-2.2479,-2.1718,-2.1378,-2.095,-2.0582,-2.0442,-1.9704,-1.8771,-1.752,0.0,0.0,0.0,0.0,-0.5841,-0.4772,-0.3401,-0.2415,-0.1655,-0.0316,0.055,0.1007,0.1304,0.1356,0.1173,0.0211,-0.0818,-0.1924,-0.3297,-0.4643,-0.6087,-0.8203,-0.9692,-1.0768,-1.1904,-1.2755,-1.3654,-1.5875,-1.8402,-2.1223,-2.4893,0.0,0.0,0.0,0.0,0.0,0.0,0.0,0.0,0.0,0.0,0.0,0.0,0.0,0.0,0.0,0.0,0.0,0.0,0.0,0.0,0.0,0.0,0.0,0.0,-2.5418,-2.4034,-2.3715,-2.3015,-2.2175,-2.1198,-1.9554,-1.7924,-1.6563,-1.4396,-1.2435,-1.0988,-0.9741,-0.8658,-0.772,-0.7186,-0.6949,-0.7123,-0.7421,-0.7903,-0.8604,-0.925,-0.9689,-1.0018,-1.0631,-1.0997,-1.1175,-1.1768,-1.2194,-1.2413,-1.2536,-1.2351,-1.1988,-1.1787,-1.1344,-1.085,0.0,0.0,0.0,0.0,-0.8731,-0.7772,0.0,0.0,0.0,0.0,0.0,0.0,0.0,0.0,0.0,0.0,0.0,-2.1814,-2.1281,-2.0699,-2.0245,-2.0084,-1.9093,-1.7992,0.0,0.0,0.0,-0.8207,-0.6769,-0.5545,-0.4505,-0.2868,-0.1693,-0.0754,0.0516,0.1598,0.238,0.2536,0.2601,0.2513,0.1541,0.0491,-0.0753,-0.2179,-0.3693,-0.5342,-0.7366,-0.869,-0.9636,-1.112,-1.2128,-1.2992,-1.5002,-1.776,-2.1022,-2.4541,0.0,0.0,0.0,0.0,0.0,0.0,0.0,0.0,0.0,0.0,0.0,0.0,0.0,0.0,0.0,0.0,0.0,0.0,0.0,0.0,0.0,0.0,0.0,0.0,-2.4538,-2.3352,-2.28,-2.2334,-2.1678,-2.07,-1.9236,-1.7864,-1.6709,-1.486,-1.3168,-1.1667,-1.0806,-0.9853,-0.883,-0.8224,0.0,0.0,0.0,-0.7914,-0.8303,-0.8769,-0.9071,-0.9128,-0.9827,-1.0254,-1.047,-1.077,-1.1185,-1.1677,-1.156,-1.1373,-1.1115,-1.08,-1.0225,-0.9582,-1.0078,-0.9952,-0.9326,-0.7962,-0.7125,-0.6539,0.0,0.0,0.0,0.0,0.0,0.0,0.0,0.0,0.0,-2.5318,-2.3441,-2.206,-2.1554,-2.0684,-1.9996,-1.9662,-1.8935,-1.7524,0.0,0.0,-1.0006,-0.8959,-0.7272,-0.5888,-0.4748,-0.3348,-0.2184,-0.1172,0.0437,0.1496,0.1844,0.2444,0.2473,0.1869,0.1051,0.0056,-0.1184,-0.2987,-0.4606,-0.6231,-0.8555,-0.9353,-0.947,-1.1978,-1.3175,-1.3851,-1.6656,-1.8808,-2.0797,-2.3761,-2.7192,-3.0538,-3.2707,0.0,0.0,0.0,0.0,0.0,0.0,0.0,0.0,0.0,0.0,0.0,0.0,0.0,0.0,0.0,0.0,0.0,0.0,0.0,0.0,-2.5608,-2.4394,-2.333,-2.2909,-2.2334,-2.1628,-2.07,-1.9403,-1.8092,-1.6655,-1.5168,-1.3802,-1.2631,-1.1512,-1.0628,-1.0013,-0.943,-0.8902,-0.8281,-0.8463,-0.8463,-0.8204,-0.8561,-0.8623,-0.8577,-0.9081,0.0,-0.9614,-1.0107,-1.0458,-1.0807,-1.0814,-1.0618,-1.0238,-0.9907,-0.9075,-0.8117,-0.8366,-0.8172,-0.7587,-0.6593,-0.6071,-0.5749,0.0,0.0,0.0,0.0,0.0,0.0,0.0,0.0,0.0,0.0,-2.425,-2.2902,-2.2293,-2.1386,-2.0682,-2.0346,-1.9052,0.0,0.0,-1.2669,-1.1109,-0.9869,-0.8391,-0.7163,-0.6146,-0.4957,-0.3774,-0.2696,-0.1242,-0.0134,0.0654,0.0952,0.0908,0.0569,-0.0547,-0.1766,-0.3131,-0.4845,-0.6505,-0.8164,-1.0195,-1.1341,-1.1933,-1.3217,-1.4167,-1.515,-1.7714,-1.9889,-2.1919,-2.4705,-2.7651,-3.0534,-3.2797,-3.5481,-3.8159,0.0,0.0,0.0,0.0,0.0,0.0,0.0,0.0,0.0,0.0,0.0,0.0,0.0,0.0,-2.812,-2.743,0.0,-2.5743,-2.5333,-2.4577,-2.3876,-2.3403,-2.2859,-2.2051,-2.0741,-1.9479,-1.8288,-1.717,-1.5871,-1.4647,-1.3571,-1.2602,-1.1721,-1.0751,-1.0231,-0.9654,-0.896,-0.8896,-0.8712,-0.828,-0.8589,-0.8651,-0.8533,-0.9076,-0.9389,-0.9587,-0.9899,-1.0164,-1.0301,-1.0244,-1.0047,-0.9716,-0.9069,-0.8236,-0.7274,-0.7204,-0.7003,-0.6539,-0.5811,-0.5348,-0.502,0.0,0.0,0.0,0.0,0.0,0.0,0.0,0.0,0.0,0.0,-2.521,-2.3983,-2.306,-2.2197,-2.1407,0.0,0.0,0.0,0.0,-1.3847,-1.2713,-1.1315,-1.0129,-0.9081,-0.823,-0.7093,-0.5959,-0.4821,-0.3613,-0.2445,-0.137,-0.1354,-0.14,-0.1555,-0.2817,-0.4226,-0.5696,-0.7231,-0.8985,-1.0805,-1.2427,-1.4111,-1.5692,-1.5795,-1.6221,-1.704,-1.9403,-2.1609,-2.3798,-2.6347,-2.8824,-3.1207,-3.3409,-3.5475,-3.7378,-3.8691,-3.9489,0.0,0.0,0.0,0.0,0.0,0.0,0.0,0.0,0.0,-2.8837,-2.8399,-2.7339,-2.6477,-2.6289,-2.6043,-2.5737,-2.5357,-2.5174,-2.4883,-2.4328,-2.3896,-2.2994,-2.1455,-1.9916,-1.8668,-1.7896,-1.6653,-1.5469,-1.4434,-1.3625,-1.2584,-1.1324,-1.0863,-1.0295,-0.9646,-0.9332,-0.8983,-0.8601,-0.8798,-0.8862,-0.8856,-0.9301,-0.9658,-0.9804,-0.9926,-0.9983,-0.9989,-0.9734,-0.9536,-0.9268,-0.849,-0.7657,-0.6881,-0.6548,-0.6214,-0.5947,-0.5219,-0.4821,-0.4492,0.0,0.0,0.0,0.0,0.0,0.0,0.0,0.0,0.0,0.0,0.0,0.0,0.0,0.0,0.0,0.0,0.0,0.0,-1.6418,-1.5358,-1.4404,-1.3679,-1.2794,-1.1806,-1.0733,-0.9518,-0.8415,-0.7387,-0.5876,-0.4997,-0.4747,-0.3901,-0.4056,-0.504,-0.5696,-0.6862,-0.8481,-1.0122,-1.2079,-1.4178,-1.5625,-1.767,-1.9997,-2.1451,-2.1049,-2.0113,-2.3239,-2.5038,-2.6248,-2.8049,-2.9989,-3.1741,-3.2082,-3.3815,-3.5864,-3.6546,0.0,-3.8555,-3.7857,-3.597,-3.3674,-3.1787,-3.1124,-3.0446,0.0,0.0,-2.7348,-2.6928,-2.5988,-2.5394,-2.5608,-2.5636,-2.5772,-2.6168,-2.6311,-2.6277,-2.5877,-2.5621,-2.4925,-2.3702,-2.1537,-1.9576,-1.8284,-1.7295,-1.6234,-1.4908,-1.3933,-1.2948,-1.1941,-1.1365,-1.0681,-0.9983,-0.9779,-0.9633,-0.9348,-0.9256,-0.9256,-0.9233,-0.9588,-0.9798,-0.9804,-0.9804,-0.9862,-0.9983,-0.9344,-0.8894,-0.8576,-0.8182,-0.7596,-0.6881,-0.6548,-0.6083,-0.555,-0.4891,-0.4489,-0.4287,0.0,0.0,0.0,0.0,0.0,0.0,0.0,0.0,0.0,0.0,0.0,0.0,0.0,0.0,0.0,0.0,0.0,0.0,-1.8161,-1.7412,-1.668,-1.5977,-1.5392,-1.4694,-1.3817,-1.304,-1.2133,-1.098,-0.9903,-0.8997,-0.813,-0.8034,-0.8252,-0.8845,-1.0141,-1.1462,-1.2888,-1.4883,-1.6698,-1.8378,-2.0373,-2.2529,-2.4723,-2.659,-2.7373,-2.7482,-2.7584,-2.8306,0.0,0.0,-3.2139,-3.3322,-3.3825,-3.4945,-3.62,-3.702,-3.6951,0.0,-3.4009,-3.2744,-3.1473,-2.9453,-2.819,-2.7354,-2.6757,-2.6101,-2.5668,-2.58,-2.5597,-2.5583,-2.6164,-2.6768,-2.7258,-2.7222,-2.7659,-2.7721,-2.7045,-2.7095,-2.6715,-2.5466,-2.4043,-2.2234,-1.996,-1.8854,-1.7605,-1.593,-1.5097,-1.4001,-1.2674,-1.1988,-1.1373,-1.08,-1.0415,-1.0104,-0.9977,-0.9913,-0.9849,-0.9722,-1.0117,-1.018,-1.0117,-1.0117,-0.9919,-0.9722,-0.9338,-0.8894,-0.8447,-0.8242,-0.7657,-0.6881,-0.6679,-0.6148,-0.555,-0.4957,-0.4625,-0.4422,0.0,0.0,0.0,0.0,0.0,0.0,0.0,0.0,0.0,0.0,0.0,0.0,0.0,0.0,0.0,0.0,0.0,0.0,0.0,-1.9716,-1.9251,-1.8627,-1.8342,-1.795,-1.7423,-1.6807,-1.606,-1.507,-1.4103,-1.3138,-1.2273,-1.2483,-1.2731,-1.3162,-1.4703,-1.6168,-1.7642,-1.9573,-2.1413,-2.3249,-2.5113,-2.7298,-2.9634,-3.132,-3.2873,-3.3963,-3.1983,-3.1823,0.0,0.0,-3.45,-3.5205,-3.5563,-3.6133,-3.6691,-3.7106,-3.5904,-3.3955,-3.1683,-3.0515,-2.9605,-2.7754,-2.6212,-2.5233,-2.5502,-2.5085,-2.4716,-2.5236,-2.5514,-2.5985,-2.685,-2.7855,-2.8376,-2.8118,-2.8804,-2.9018,-2.7977,-2.8182,-2.7997,-2.675,-2.5903,-2.4406,-2.1968,-2.0534,-1.9017,-1.7223,-1.6303,-1.5169,-1.3559,-1.2768,-1.2112,-1.156,-1.1115,-1.08,-1.0681,-1.0681,-1.0555,-1.0364,-1.0681,-1.0744,-1.0491,-1.0434,-1.011,-0.9588,-0.9396,-0.9081,-0.8641,-0.8371,-0.7852,-0.7077,-0.6942,-0.6408,-0.5749,-0.5355,-0.5024,-0.4691,0.0,0.0,0.0,0.0,0.0,0.0,0.0,0.0,0.0,0.0,0.0,0.0,0.0,0.0,0.0,0.0,0.0,0.0,0.0,-2.2409,-2.2174,-2.1844,-2.1988,-2.1857,-2.1508,-2.054,-1.992,-1.962,-1.8024,-1.7279,-1.738,-1.691,-1.7225,-1.822,-1.9055,-2.0528,-2.2468,-2.3655,-2.5923,-2.88,-2.9317,-3.1606,-3.4755,-3.5533,-3.6767,-3.7847,-3.6342,0.0,0.0,0.0,-3.7015,-3.71,-3.6407,-3.6682,0.0,-3.5755,-3.407,0.0,0.0,0.0,-2.7928,-2.6734,-2.5734,-2.5064,-2.4969,-2.4874,-2.4921,-2.5382,-2.5721,-2.6288,-2.7621,-2.8304,-2.8728,-2.8824,-2.9627,-2.9861,-2.8909,-2.88,-2.8461,-2.7561,-2.6451,-2.5356,-2.4187,-2.2078,-2.0164,-1.8723,-1.7466,-1.6162,-1.4746,-1.3568,-1.2712,-1.2058,-1.1872,-1.1685,-1.156,-1.156,-1.1435,-1.124,-1.1498,-1.1373,-1.1059,-1.0744,-1.0308,-0.9804,-0.9588,-0.9332,-0.8952,-0.8641,-0.8187,-0.7666,-0.7335,-0.6876,-0.635,-0.6214,-0.5683,-0.5087,0.0,0.0,0.0,0.0,0.0,0.0,0.0,0.0,0.0,0.0,0.0,0.0,0.0,0.0,0.0,0.0,0.0,0.0,0.0,-2.473,-2.4899,-2.446,-2.5134,-2.5534,-2.5469,-2.5106,-2.4534,-2.381,-2.3178,-2.2422,-2.1528,-2.162,-2.2099,-2.293,-2.453,-2.5974,-2.7358,-3.0009,-3.1901,-3.3341,-3.5902,-3.7943,-3.9621,-4.0845,-4.1794,-4.2472,0.0,0.0,0.0,0.0,0.0,0.0,-3.7436,0.0,0.0,-3.5411,0.0,0.0,0.0,0.0,-2.7105,-2.6097,-2.4876,-2.4006,-2.4295,-2.4722,-2.5163,-2.5488,-2.6897,-2.8312,-2.9092,-2.9699,-2.993,-2.9697,-2.9994,-2.9965,-2.924,-2.9494,-2.9406,-2.8421,-2.7683,-2.668,-2.5286,-2.3204,-2.1369,-1.9812,-1.8564,-1.7156,-1.5595,-1.4506,-1.3583,-1.2911,-1.2605,-1.2367,-1.2174,-1.2174,-1.212,-1.1934,-1.1809,-1.1622,-1.1435,-1.1059,-1.0744,-1.0428,-1.0174,-0.9856,-0.9478,-0.9022,-0.8501,-0.7982,-0.7591,-0.7068,-0.6609,-0.6544,-0.6342,-0.6145,0.0,0.0,0.0,0.0,0.0,0.0,0.0,0.0,0.0,0.0,0.0,0.0,0.0,0.0,0.0,0.0,0.0,0.0,0.0,0.0,-2.7408,-2.7035,-2.7955,-2.8537,-2.8688,-2.8921,-2.8796,-2.8357,-2.784,-2.7221,-2.6461,-2.6543,-2.6946,-2.7593,-2.9211,-3.0756,-3.2292,-3.5039,-3.6916,-3.8323,-4.1326,-4.3181,-4.4292,-4.5419,-4.6142,0.0,0.0,0.0,0.0,0.0,0.0,0.0,0.0,0.0,0.0,0.0,0.0,0.0,0.0,-2.8572,-2.7446,-2.6479,-2.5024,-2.4034,-2.5023,-2.5422,-2.5853,-2.6916,-2.8382,-2.9827,-3.0549,-3.0942,-3.0862,-3.0079,-3.0099,-2.9905,-2.9154,-2.9425,-2.928,-2.8326,-2.7754,-2.6861,-2.5327,-2.3846,-2.2323,-2.0865,-1.9566,-1.8145,-1.638,-1.5386,-1.4453,-1.3631,-1.3338,-1.3103,-1.2972,-1.2911,-1.2781,-1.2666,-1.2297,-1.2058,-1.1809,-1.1498,-1.1185,-1.087,-1.0681,-1.0371,-1.0053,-0.9536,-0.9017,-0.8619,-0.8047,-0.7591,-0.7134,-0.7068,-0.7134,-0.7134,0.0,0.0,0.0,0.0,0.0,0.0,0.0,0.0,0.0,0.0,0.0,0.0,0.0,0.0,0.0,0.0,0.0,0.0,0.0,0.0,0.0,-2.9555,-3.0458,-3.104,-3.1219,-3.1977,-3.2596,-3.3129,-3.1971,-3.1627,-3.2043,-3.1636,-3.1743,-3.2249,-3.3226,-3.494,-3.7186,-3.8759,-4.0998,-4.3628,-4.5503,-4.7204,-4.8647,-4.9182,0.0,0.0,0.0,0.0,0.0,0.0,0.0,0.0,0.0,0.0,0.0,0.0,0.0,-3.2596,-3.1154,-2.9849,-2.8781,-2.7858,-2.627,-2.5397,-2.7195,-2.7041,-2.7139,-2.9454,-3.0165,-3.0788,0.0,0.0,-3.1366,-3.0034,-3.0007,-2.9799,-2.8774,-2.8547,-2.814,-2.7377,-2.6812,-2.5947,-2.462,-2.3956,-2.3088,-2.1882,-2.0506,-1.893,-1.7139,-1.6166,-1.5256,-1.4282,-1.3992,-1.3881,-1.383,-1.3631,-1.3511,-1.3329,-1.2981,-1.2674,-1.2367,-1.1988,-1.1615,-1.1185,-1.1185,-1.0996,-1.0624,-1.0053,-0.9728,-0.9454,-0.8829,-0.8317,-0.7987,-0.7797,-0.7862,-0.7987,0.0,0.0,0.0,0.0,0.0,0.0,0.0,0.0,0.0,0.0,0.0,0.0,0.0,0.0,0.0,0.0,0.0,0.0,0.0,0.0,0.0,0.0,0.0,0.0,0.0,0.0,0.0,0.0,0.0,-3.6514,-3.5759,-3.6139,-3.6295,-3.636,-3.7845,-3.9451,-4.1174,-4.3115,-4.5182,-4.7308,0.0,-5.0364,-5.1273,0.0,0.0,0.0,0.0,0.0,0.0,0.0,0.0,0.0,0.0,-3.806,-3.7119,0.0,0.0,-3.3493,-3.2687,-3.119,-2.9832,-2.9752,-2.9064,-2.8719,-2.9831,-3.0263,-3.0668,-3.1417,-3.2216,-3.2934,-3.3383,-3.2247,-3.1322,-3.1319,-3.0026,-2.9043,-2.9012,-2.8278,-2.7584,-2.7152,0.0,-2.5383,-2.4576,-2.38,-2.284,-2.156,-2.0745,-1.9476,-1.7502,-1.6914,-1.613,-1.4951,-1.4883,-1.4706,-1.4478,-1.435,-1.4112,-1.3821,-1.3709,-1.3459,-1.3025,-1.2964,-1.2728,-1.2367,-1.212,-1.174,-1.124,-1.0744,-1.0301,-0.9849,-0.9274,-0.8894,-0.8576,-0.8382,-0.8447,-0.8635,0.0,0.0,0.0,0.0,0.0,0.0,0.0,0.0,0.0,0.0,0.0,0.0,0.0,0.0,0.0,0.0,0.0,0.0,0.0,0.0,0.0,0.0,0.0,0.0,0.0,0.0,0.0,0.0,0.0,0.0,0.0,-3.9217,-3.9292,-3.9216,-4.0415,-4.1977,-4.3743,-4.549,0.0,0.0,0.0,0.0,0.0,0.0,0.0,0.0,0.0,0.0,0.0,0.0,0.0,-4.0591,-3.9309,-3.8348,-3.7692,-3.7389,0.0,-3.4403,-3.4076,-3.2859,-3.1727,-3.1966,-3.1563,-3.1368,-3.2467,-3.2848,-3.3253,-3.4384,-3.5001,-3.5362,-3.5495,-3.3969,-3.2551,0.0,0.0,0.0,-2.8837,-2.8018,-2.7287,0.0,-2.5955,0.0,-2.4371,-2.3636,-2.277,-2.1717,-2.0919,-1.9676,-1.7764,-1.7358,-1.6788,-1.5836,-1.57,-1.541,-1.5128,-1.5118,-1.4883,-1.4428,-1.4369,-1.4061,-1.364,-1.358,-1.3338,-1.2981,-1.2736,-1.2367,-1.1919,-1.1428,-1.0926,-1.0428,-0.9913,-0.96,-0.928,-0.9022,-0.9076,-0.9235,0.0,0.0,0.0,0.0,0.0,0.0,0.0,0.0,0.0,0.0,0.0,0.0,0.0,0.0,0.0,0.0,0.0,0.0,0.0,0.0,0.0,0.0,0.0,0.0,0.0,0.0,0.0,0.0,0.0,0.0,0.0,0.0,0.0,0.0,0.0,0.0,0.0,0.0,0.0,0.0,0.0,0.0,0.0,0.0,0.0,0.0,0.0,0.0,0.0,0.0,-4.3289,-4.1316,-3.9928,-3.888,-3.8046,-3.7494,-3.6492,-3.5538,-3.5469,-3.4759,-3.4125,-3.4374,-3.4057,-3.3936,-3.5214,-3.5215,-3.5536,-3.7513,-3.7724,-3.7617,-3.7712,-3.6174,-3.4333,-3.2654,0.0,-2.9659,-2.8655,-2.7826,-2.718,-2.6695,-2.5842,-2.5004,-2.421,-2.3497,-2.2847,-2.2128,-2.1122,-1.9806,-1.8108,-1.7782,-1.736,-1.6705,-1.64,-1.6046,-1.5768,-1.5884,-1.571,-1.5147,-1.4951,-1.4597,-1.4181,-1.407,-1.3821,-1.3511,-1.3285,-1.2981,-1.2605,-1.2174,-1.1685,-1.1185,-1.0681,-1.0338,-1.0053,-0.9724,-0.9737,-0.9873,0.0,0.0,0.0,0.0,0.0,0.0,0.0,0.0,0.0,0.0,-3.6036,-3.5636,0.0,0.0,0.0,0.0,0.0,0.0,0.0,0.0,0.0,0.0,0.0,0.0,0.0,0.0,0.0,0.0,0.0,0.0,0.0,0.0,0.0,0.0,0.0,0.0,0.0,0.0,0.0,0.0,0.0,0.0,0.0,0.0,0.0,0.0,0.0,0.0,0.0,0.0,-4.506,-4.2395,-4.0196,-3.937,-3.9091,-3.8698,-3.8001,-3.741,-3.7192,-3.6805,-3.6458,-3.6754,-3.7131,-3.7624,-3.8363,-3.8461,0.0,0.0,-3.8781,-3.8555,-3.8453,-3.7117,-3.5577,-3.4322,-3.2482,-3.0836,-2.9776,-2.8048,-2.6891,0.0,-2.5571,-2.4571,-2.4305,-2.3708,-2.2984,-2.2154,-2.1689,-2.0582,-1.8806,-1.8556,-1.8045,-1.711,-1.6955,-1.6729,-1.6581,-1.6343,-1.6114,-1.5884,-1.5662,-1.543,-1.5303,-1.5079,-1.4852,-1.4666,-1.4189,-1.3761,-1.3329,-1.2911,-1.2428,-1.1872,-1.1622,-1.1207,-1.0606,-1.0417,-1.0285,-1.0205,0.0,0.0,0.0,0.0,0.0,0.0,0.0,-3.7009,-3.7087,-3.7143,-3.6752,-3.6531,-3.6655,-3.599,0.0,0.0,0.0,0.0,0.0,0.0,0.0,0.0,0.0,0.0,0.0,0.0,0.0,0.0,0.0,0.0,0.0,0.0,0.0,0.0,0.0,0.0,0.0,0.0,0.0,0.0,0.0,0.0,0.0,0.0,0.0,0.0,0.0,0.0,0.0,0.0,-4.6178,-4.3813,-4.1504,-4.053,-4.0,-3.9311,-3.8477,-3.7941,-3.8029,-3.7891,-3.7818,-3.8054,-3.8601,-3.9226,-3.9773,0.0,0.0,0.0,-4.0263,-4.0023,-3.9978,-3.8258,0.0,-3.5578,-3.3652,-3.1792,-3.0335,-2.8876,-2.7752,-2.7203,-2.5884,-2.4908,-2.4694,-2.4118,-2.3533,-2.303,-2.2546,-2.1402,-1.9356,-1.8828,-1.8238,-1.759,-1.7512,-1.7346,-1.7145,-1.7022,-1.674,-1.6457,-1.6353,-1.6124,-1.5884,-1.572,-1.5546,-1.5313,-1.4893,-1.4401,-1.3855,-1.364,-1.3094,-1.2474,-1.2405,-1.2079,-1.1479,-1.1294,-1.1038,-1.0776,0.0,0.0,0.0,0.0,0.0,0.0,0.0,-3.7066,-3.7105,-3.7259,-3.7203,-3.714,-3.7158,-3.6934,-3.6696,0.0,0.0,0.0,0.0,0.0,0.0,0.0,0.0,0.0,0.0,0.0,0.0,0.0,0.0,0.0,0.0,0.0,0.0,0.0,0.0,0.0,0.0,0.0,0.0,0.0,0.0,0.0,0.0,0.0,0.0,0.0,0.0,0.0,0.0,0.0,-4.6812,-4.5005,-4.2902,-4.1645,-4.0775,-3.9801,-3.8811,-3.8153,-3.846,-3.8573,-3.8646,-3.8942,-3.9481,-4.0066,-4.0622,-4.0727,0.0,-4.1481,-4.1453,-4.1202,-4.0954,-3.9281,-3.758,0.0,-3.4626,-3.2756,-3.0881,-2.9704,-2.8592,0.0,-2.6285,0.0,-2.5118,-2.4593,-2.4189,-2.3956,-2.3251,-2.1984,-1.9977,-1.9085,-1.8472,-1.8073,-1.8073,-1.7897,-1.77,-1.7634,-1.7412,-1.7032,-1.692,-1.6694,-1.6343,-1.6285,-1.6056,-1.5768,-1.5468,-1.4991,-1.4451,-1.43,-1.3821,-1.3191,-1.3252,-1.2973,-1.2472,-1.2265,-1.1888,-1.1497,0.0,0.0,0.0,0.0,0.0,0.0,0.0,-3.7164,-3.7147,-3.7297,-3.7297,-3.7562,-3.8348,-3.7965,-3.7827,0.0,0.0,0.0,0.0,0.0,0.0,0.0,0.0,0.0,0.0,0.0,0.0,0.0,0.0,0.0,0.0,0.0,0.0,0.0,0.0,0.0,0.0,0.0,0.0,0.0,0.0,0.0,0.0,0.0,0.0,0.0,0.0,0.0,0.0,0.0,0.0,-4.561,-4.3596,-4.2179,-4.1148,-4.071,0.0,0.0,-3.8822,-3.882,-3.892,-3.9527,-4.0234,-4.0908,-4.141,0.0,-4.1516,-4.1587,-4.1604,-4.1261,-4.0231,-3.9853,-3.8836,-3.6337,0.0,-3.3889,-3.1792,-3.0018,-2.8679,-2.8024,0.0,0.0,-2.5494,-2.5131,-2.4765,-2.4452,-2.3449,-2.2185,-2.0799,-1.9953,-1.923,-1.8756,-1.8614,-1.8464,-1.8313,-1.803,-1.7843,-1.7799,-1.7357,-1.7145,-1.7155,-1.6864,-1.6591,-1.6316,-1.5999,-1.5642,-1.5294,-1.502,-1.4666,-1.4341,-1.435,-1.4046,-1.3552,-1.311,-1.2762,-1.2296,0.0,0.0,0.0,0.0,0.0,0.0,-3.7297,-3.7665,-3.7948,-3.7948,-3.8394,-3.8819,-3.916,-3.9359,-3.9126,0.0,0.0,0.0,0.0,0.0,0.0,0.0,0.0,0.0,0.0,0.0,0.0,-4.7229,-4.8137,0.0,0.0,0.0,0.0,0.0,0.0,0.0,0.0,0.0,0.0,0.0,0.0,0.0,0.0,0.0,0.0,0.0,0.0,0.0,0.0,0.0,0.0,0.0,-4.4558,-4.3247,0.0,0.0,-3.945,-3.8878,-3.8764,-3.889,-3.9206,-3.9749,-4.0385,-4.1012,-4.1515,0.0,-4.1736,-4.1736,-4.1604,-4.1181,-4.019,-3.9472,-3.8437,0.0,0.0,0.0,-3.3061,-3.1688,-3.0448,-2.9231,-2.8025,-2.6976,-2.6131,-2.6048,-2.5797,-2.5095,-2.4073,-2.3097,-2.2349,-2.0921,-1.9824,-1.9052,-1.8934,-1.8786,-1.8637,-1.841,-1.829,-1.8193,-1.7865,-1.77,-1.7634,-1.7423,-1.7256,-1.7032,-1.6729,-1.6322,-1.5911,-1.5642,-1.54,-1.5157,-1.5167,-1.4984,-1.4644,-1.447,-1.3966,-1.3295,0.0,0.0,0.0,0.0,0.0,-3.8013,-3.7762,-3.8401,-3.888,-3.8862,-3.9301,-3.9704,-3.9992,-4.0365,-4.0092,-3.8853,0.0,0.0,0.0,0.0,0.0,0.0,0.0,0.0,0.0,0.0,-4.6749,-4.7175,-4.8229,-4.8856,0.0,0.0,-4.7766,-4.7392,0.0,0.0,0.0,0.0,0.0,0.0,0.0,0.0,0.0,0.0,0.0,0.0,0.0,0.0,0.0,0.0,0.0,0.0,0.0,0.0,0.0,0.0,-3.9656,-3.9135,-3.8843,-3.899,-3.9365,-3.9833,-4.0451,-4.1012,0.0,0.0,-4.1823,-4.1841,-4.1473,-4.0849,-3.9886,-3.8839,-3.7768,0.0,0.0,-3.516,-3.37,-3.2807,-3.1681,-2.9969,0.0,-2.7854,-2.6812,-2.6553,-2.6148,-2.5274,-2.4439,-2.3806,-2.3401,-2.2039,-2.0849,-2.0007,-1.9822,-1.966,-1.9618,-1.93,-1.9108,-1.897,-1.8534,-1.829,-1.8127,-1.7975,-1.7755,-1.7534,-1.7301,-1.6944,-1.6539,-1.6322,-1.614,-1.6016,-1.5979,-1.5838,-1.5605,-1.546,-1.4861,-1.4173,0.0,0.0,0.0,0.0,0.0,0.0,0.0,-3.9355,-3.9815,-3.9875,-3.974,-3.9939,-4.0895,-4.076,-4.0574,-4.0489,0.0,0.0,0.0,0.0,0.0,0.0,0.0,0.0,0.0,0.0,-4.6083,-4.7412,-4.7337,-4.8019,-4.9267,-4.704,-4.6186,-4.6438,0.0,0.0,0.0,0.0,0.0,0.0,0.0,0.0,0.0,0.0,0.0,0.0,0.0,0.0,0.0,0.0,0.0,0.0,0.0,0.0,0.0,0.0,-4.0747,-3.9558,-3.9259,-3.9312,-3.9487,-3.9833,-4.0387,-4.1012,0.0,0.0,-4.1841,-4.1962,-4.1198,-4.0149,-3.8999,-3.8079,-3.7162,-3.5997,0.0,0.0,-3.3527,-3.2826,-3.1805,0.0,-2.8915,-2.8154,-2.7544,-2.6417,-2.5482,-2.4832,-2.4478,-2.4055,-2.35,-2.3167,-2.2613,-2.1797,-2.1554,-2.1473,-2.1473,-2.0836,-2.0412,-2.0261,-1.94,-1.8827,-1.8614,-1.8464,-1.815,-1.7711,-1.7711,-1.7479,-1.719,-1.7067,-1.7011,-1.7011,-1.7011,-1.6675,-1.6224,-1.5751,-1.5318,-1.4784,0.0,0.0,0.0,0.0,0.0,0.0,0.0,-4.0196,-4.0655,-4.0651,-4.1055,-4.1168,-4.0878,-4.1195,-4.0986,-3.9905,0.0,0.0,0.0,0.0,0.0,0.0,0.0,0.0,0.0,0.0,-4.6395,-4.6702,-4.7464,-4.8037,-4.8379,-4.7201,-4.6489,-4.6271,-4.5146,0.0,0.0,0.0,0.0,0.0,0.0,0.0,0.0,0.0,0.0,0.0,0.0,0.0,0.0,0.0,0.0,0.0,0.0,0.0,0.0,0.0,0.0,0.0,-4.0054,-3.9969,-4.0037,-4.0155,-4.06,-4.1123,-4.1408,-4.1631,-4.1841,-4.1962,-4.1473,-4.0506,-3.9085,-3.8253,-3.717,-3.5282,0.0,0.0,0.0,0.0,0.0,-3.0412,-2.8958,-2.7762,-2.7317,-2.6123,-2.5348,-2.5396,-2.4673,-2.4195,-2.4239,-2.3953,-2.3223,-2.1988,-2.1771,-2.1716,-2.1716,-2.1348,-2.0949,-2.0544,-2.0196,-1.9711,-1.9146,-1.8987,-1.8774,-1.8476,-1.8356,-1.8193,-1.7975,-1.7733,-1.7678,-1.771,-1.7146,-1.6966,-1.6924,-1.6429,-1.5984,-1.564,0.0,0.0,0.0,0.0,0.0,0.0,0.0,-4.1096,-4.1573,-4.141,-4.1819,-4.1884,-4.1297,-4.1584,-4.1392,-4.044,0.0,0.0,0.0,0.0,0.0,0.0,0.0,0.0,0.0,-4.4756,-4.5892,-4.5765,-4.6625,-4.716,-4.7257,-4.6309,-4.5717,-4.5478,-4.4704,-4.4128,0.0,0.0,0.0,0.0,0.0,0.0,-4.5679,0.0,0.0,0.0,0.0,0.0,0.0,0.0,0.0,0.0,0.0,0.0,0.0,0.0,0.0,0.0,0.0,-4.0404,-4.0305,-4.0337,-4.0697,0.0,0.0,-4.1587,-4.1754,-4.1841,-4.0998,-3.9909,-3.8794,-3.7677,-3.6508,-3.5265,-3.4659,0.0,0.0,0.0,0.0,-3.0179,-2.89,-2.7859,-2.725,-2.6197,-2.5548,-2.5501,-2.4603,-2.4229,-2.4492,-2.4216,-2.3728,-2.2829,-2.2704,-2.2647,-2.2647,-2.2347,-2.1827,-2.125,-2.0901,-2.0351,-1.9629,-1.95,-1.9291,-1.9105,-1.8987,-1.8881,0.0,-1.8494,-1.8398,-1.8375,-1.7878,-1.7676,-1.765,-1.7135,-1.6716,-1.6326,0.0,0.0,0.0,0.0,0.0,0.0,0.0,0.0,0.0,-4.2145,-4.2121,-4.2079,-4.2005,-4.1884,-4.178,-4.1823,0.0,0.0,0.0,0.0,0.0,0.0,0.0,0.0,-4.097,-4.36,-4.4886,-4.4742,-4.5158,-4.5632,-4.6036,-4.47,-4.4155,-4.4345,-4.3597,-4.3356,0.0,0.0,0.0,0.0,0.0,0.0,0.0,0.0,0.0,0.0,0.0,0.0,0.0,0.0,0.0,0.0,0.0,0.0,0.0,0.0,0.0,0.0,0.0,-4.0551,-4.0337,-4.0485,-4.068,-4.0965,-4.129,-4.1471,0.0,-4.149,-3.9946,-3.8504,-3.8145,-3.6561,-3.5371,-3.558,-3.5075,0.0,0.0,-3.2581,-3.1212,-2.9149,-2.8789,-2.8315,-2.7277,-2.6516,-2.5823,-2.5242,-2.4498,-2.4157,-2.4292,-2.4157,-2.4112,-2.4112,-2.4112,-2.4112,-2.4112,-2.3563,-2.2919,-2.2198,-2.1546,-2.077,-2.0042,-1.9926,-1.9759,-1.9617,-1.9617,-1.95,-1.9239,-1.9226,-1.9133,-1.904,-1.8951,-1.8706,-1.8262,-1.7727,-1.7274,-1.6872,0.0,0.0,0.0,0.0,0.0,0.0,0.0,0.0,0.0,0.0,-4.2055,-4.203,-4.2005,-4.1884,-4.1841,0.0,0.0,0.0,0.0,0.0,0.0,0.0,0.0,0.0,-4.244,-4.4143,-4.5144,-4.5372,-4.5264,-4.5346,-4.5668,-4.4348,-4.3822,-4.4005,-4.3413,-4.3214,0.0,0.0,0.0,0.0,0.0,0.0,0.0,0.0,0.0,0.0,-4.3727,-4.3692,0.0,0.0,0.0,0.0,0.0,0.0,0.0,0.0,-4.1728,0.0,-4.1093,0.0,-4.0551,-4.0387,-4.0648,-4.0918,0.0,0.0,0.0,-4.0461,-3.9617,-3.8469,-3.6437,-3.5696,-3.4834,-3.3238,-3.2757,-3.2272,-3.1367,-3.0225,-2.8889,-2.7349,-2.7433,-2.742,-2.6855,-2.6074,-2.5501,-2.5242,-2.4439,-2.4041,-2.4292,-2.4099,-2.4008,-2.4112,-2.4112,-2.4112,-2.4112,-2.3968,-2.3393,-2.2361,-2.2163,-2.1471,-2.036,-2.0347,-2.0195,-1.9939,-1.9939,-1.9823,-1.9643,-1.9552,-1.9408,-1.9214,-1.8657,-1.8123,-1.7739,-1.718,-1.6827,-1.6523,0.0,0.0,0.0,0.0,0.0,0.0,0.0,0.0,0.0,0.0,0.0,0.0,0.0,0.0,0.0,0.0,0.0,0.0,0.0,0.0,0.0,0.0,0.0,-4.0868,-4.166,-4.2896,-4.3759,-4.4165,-4.3846,-4.3898,-4.4351,-4.3319,-4.3,-4.3304,-4.2946,-4.288,0.0,0.0,0.0,0.0,-4.2408,0.0,0.0,0.0,0.0,0.0,-4.2092,-4.2381,0.0,-4.1991,-4.2053,-4.2282,0.0,0.0,0.0,0.0,-4.156,-4.1226,-4.0918,-4.0451,-4.0003,-3.9868,-4.0003,-4.0186,-4.0201,0.0,0.0,-3.9674,-3.8554,-3.7118,-3.5579,-3.463,-3.3704,-3.2655,-3.1829,-3.0881,-2.9628,-2.8661,-2.7723,-2.6604,-2.6793,-2.687,-2.6616,-2.6012,-2.5512,-2.5133,-2.4516,-2.4253,-2.4465,-2.4359,-2.4502,-2.5004,-2.4708,-2.4387,-2.4112,-2.4112,-2.3537,-2.2387,-2.2415,-2.176,-2.0612,-2.0612,-2.0511,-2.0347,-2.0347,-2.0246,-2.0131,-1.9926,-1.9772,-1.9656,-1.9128,-1.8696,-1.8264,-1.7741,-1.7285,-1.6961,0.0,0.0,0.0,0.0,0.0,0.0,0.0,0.0,0.0,0.0,0.0,0.0,0.0,0.0,0.0,0.0,0.0,0.0,0.0,0.0,0.0,0.0,0.0,-3.9773,-3.9966,-4.1194,-4.1946,-4.2306,-4.2038,-4.2215,-4.2756,-4.2141,-4.2068,-4.253,-4.2391,-4.2472,0.0,0.0,-4.267,-4.2691,-4.1854,0.0,0.0,0.0,0.0,0.0,0.0,0.0,0.0,-4.071,-4.0796,-4.1223,-4.148,0.0,0.0,0.0,0.0,0.0,-4.0483,-3.9715,-3.9073,-3.9265,-3.9212,-3.9179,-3.9256,0.0,0.0,0.0,-3.7036,-3.5413,-3.4655,-3.3215,-3.2206,-3.2269,-3.1145,-2.9709,-2.8168,-2.7537,-2.7015,-2.6358,-2.644,-2.6508,-2.6346,-2.6072,-2.562,-2.5179,-2.4722,-2.4589,-2.4822,-2.4745,-2.5036,-2.5915,-2.5253,-2.4609,-2.4112,-2.4112,-2.3576,-2.2598,-2.2559,-2.2009,-2.083,-2.083,-2.0791,-2.0699,-2.0699,-2.0662,-2.0511,-2.0296,-2.0131,-1.999,-1.9811,-1.9485,-1.8978,-1.8497,-1.8007,-1.7472,0.0,0.0,0.0,0.0,0.0,0.0,0.0,0.0,0.0,0.0,0.0,0.0,0.0,0.0,0.0,0.0,0.0,0.0,0.0,0.0,0.0,0.0,-3.9357,-3.9502,-3.9305,-4.0639,-4.1415,-4.1549,-4.1508,-4.1728,-4.2102,-4.1695,-4.1744,-4.2187,-4.2145,-4.2228,-4.2369,-4.2369,-4.2391,-4.2414,-4.2126,0.0,0.0,0.0,0.0,0.0,0.0,0.0,0.0,-4.1059,-4.0749,-4.0283,-4.1171,0.0,0.0,0.0,0.0,0.0,-3.9885,-3.8826,-3.8181,-3.8995,-3.8903,-3.8559,-3.822,0.0,0.0,0.0,0.0,0.0,0.0,-3.126,-3.0527,-2.9484,-2.8657,-2.7788,-2.7056,-2.6471,-2.607,-2.5746,-2.5746,-2.5886,-2.622,-2.5882,-2.5665,-2.5762,-2.5242,-2.5052,-2.5342,-2.4779,-2.4696,-2.5153,-2.4543,-2.4204,-2.4112,-2.4203,-2.3975,-2.3342,-2.3453,-2.2817,-2.1536,-2.1536,-2.1259,-2.0699,-2.0699,-2.0712,-2.0649,-2.0334,-2.0131,-1.999,-1.972,-1.9096,-1.8232,-1.8204,-1.7584,-1.6832,0.0,0.0,0.0,0.0,0.0,0.0,0.0,0.0,0.0,0.0,0.0,0.0,0.0,0.0,0.0,0.0,0.0,0.0,0.0,0.0,0.0,-3.8772,-3.8553,-3.8675,-3.9087,-3.9331,-3.9707,-4.0295,-4.0105,-4.0286,-4.0929,-4.1319,-4.1675,-4.1952,-4.1952,-4.1952,-4.1952,-4.2019,-4.2061,-4.2026,0.0,0.0,0.0,0.0,0.0,0.0,0.0,0.0,0.0,0.0,-4.0302,-4.0311,-4.0861,0.0,0.0,0.0,0.0,0.0,-3.98,-3.8674,-3.7831,-3.8035,-3.7313,-3.6526,-3.6311,-3.6039,-3.5482,0.0,0.0,0.0,0.0,-3.0033,-2.9094,-2.7525,-2.6803,-2.6202,-2.5836,-2.5429,-2.5087,-2.5052,-2.4981,-2.5182,-2.5535,-2.5514,-2.5462,-2.5448,-2.5253,-2.53,-2.5691,-2.5103,-2.5126,-2.5876,-2.4966,-2.4497,-2.4688,-2.4405,-2.3958,-2.3349,-2.3405,-2.2957,-2.2075,-2.2088,-2.1904,-2.159,-2.1212,-2.1017,-2.0991,-2.0374,-2.0042,-1.9965,-1.9459,-1.8845,-1.8197,-1.7559,-1.7106,-1.6803,0.0,0.0,0.0,0.0,0.0,0.0,0.0,0.0,0.0,0.0,0.0,0.0,0.0,0.0,0.0,0.0,0.0,0.0,0.0,0.0,-3.9504,-3.8629,-3.7985,-3.7927,-3.8626,-3.8003,-3.8147,-3.9071,-3.8796,-3.9181,-4.0223,-4.1284,-4.1778,-4.1805,-4.1719,-4.1604,-4.1471,-4.1675,-4.1701,-4.1683,0.0,0.0,0.0,0.0,0.0,0.0,0.0,0.0,0.0,0.0,0.0,0.0,0.0,0.0,0.0,-4.06,-4.0387,-4.0037,-3.954,-3.8502,-3.7515,-3.6874,-3.5799,-3.485,-3.4634,-3.3935,-3.3244,-3.2901,-3.2056,-3.1101,-3.0029,-2.8898,-2.7525,-2.5963,-2.5276,-2.4921,-2.4731,-2.4443,-2.4284,-2.4361,-2.4415,-2.4609,-2.5003,-2.5171,-2.5214,-2.5171,-2.5271,-2.5542,-2.6013,-2.5494,-2.5576,-2.6387,-2.5286,-2.4702,-2.4945,-2.4426,-2.3966,-2.3463,-2.3533,-2.3231,-2.2679,-2.2651,-2.252,-2.2178,-2.1615,-2.129,-2.1069,-2.0374,-2.0042,-2.0003,-1.9434,-1.894,-1.8392,-1.7268,-1.6931,-1.6918,0.0,0.0,0.0,0.0,0.0,0.0,0.0,0.0,0.0,0.0,0.0,0.0,0.0,0.0,0.0,0.0,0.0,0.0,0.0,0.0,-3.9625,-3.8969,-3.8148,-3.766,-3.7604,-3.7219,-3.731,-3.8029,-3.8206,-3.921,-4.086,-4.1759,-4.205,-4.1885,-4.1429,-4.118,-4.114,-4.1226,-4.1346,-4.1436,-4.1401,0.0,0.0,0.0,0.0,0.0,0.0,0.0,0.0,0.0,0.0,0.0,0.0,0.0,-4.0003,-4.0255,-4.0037,-3.9556,-3.8629,-3.7806,-3.6904,-3.5819,-3.5253,-3.4755,-3.378,-3.2797,-3.1839,-3.1118,-3.0383,-2.9662,-2.903,-2.7391,-2.5767,-2.4696,-2.4227,-2.3959,-2.374,-2.3666,-2.3772,-2.4004,-2.4181,-2.4384,-2.4855,-2.4952,-2.5075,-2.5252,-2.5475,-2.5824,-2.6364,-2.5875,-2.5545,-2.5612,-2.4831,-2.4339,-2.4178,-2.4021,-2.4028,-2.4226,-2.4425,-2.4133,-2.3408,-2.3421,-2.276,-2.1577,-2.1525,-2.1211,-2.0714,-2.0347,-2.0182,-2.0182,-1.9991,-1.9479,-1.8728,-1.7699,-1.7267,-1.7157,0.0,0.0,0.0,0.0,0.0,0.0,0.0,0.0,0.0,0.0,0.0,0.0,0.0,0.0,0.0,0.0,0.0,0.0,0.0,0.0,-3.9609,-3.9061,-3.8343,-3.7987,-3.8075,-3.7111,-3.6832,-3.7157,-3.8504,-3.9647,-4.0592,-4.1427,-4.1604,-4.1267,-4.1197,-4.1029,-4.0858,-4.0965,-4.1041,-4.1088,-4.1226,-4.1244,0.0,0.0,0.0,0.0,0.0,0.0,0.0,0.0,-3.9884,-3.9548,0.0,0.0,-3.9781,-3.9884,-3.9677,-3.9309,-3.8662,-3.7393,-3.6075,-3.5355,-3.3922,-3.2634,-3.2393,-3.0914,-2.9517,-2.9279,-2.8741,-2.7998,-2.7098,-2.566,-2.4409,-2.3779,-2.3466,-2.3124,-2.2896,-2.3113,-2.3449,-2.3788,-2.3873,-2.4142,-2.4634,-2.5125,-2.5289,-2.4981,-2.5553,-2.5899,-2.5898,-2.5586,-2.5306,-2.5077,-2.4582,-2.4205,-2.3949,-2.3949,-2.3995,-2.4157,-2.4216,-2.4111,-2.3843,-2.3843,-2.3354,-2.2393,-2.2096,-2.1549,-2.0888,-2.0425,-2.0182,-2.0156,-1.9526,-1.8967,-1.8455,-1.7695,-1.7378,-1.7352,0.0,0.0,0.0,0.0,0.0,0.0,0.0,0.0,0.0,0.0,0.0,0.0,0.0,0.0,0.0,0.0,0.0,0.0,-4.1545,-4.0493,-3.9661,-3.9098,-3.8495,-3.8152,-3.8112,-3.7156,-3.6879,-3.7421,-3.9305,-4.041,-4.0833,-4.1452,-4.1512,-4.1151,-4.0999,-4.0745,-4.0453,-4.068,-4.0728,-4.0728,-4.0995,-4.1059,0.0,0.0,0.0,0.0,0.0,0.0,0.0,0.0,-3.9935,0.0,0.0,0.0,0.0,0.0,-3.9131,-3.8678,-3.827,-3.6857,-3.5379,-3.4721,-3.2788,-3.0939,-3.0612,-2.9263,-2.7965,-2.7507,-2.7018,-2.642,-2.5463,-2.4457,-2.361,-2.299,-2.2796,-2.2611,-2.2373,-2.2671,-2.3222,-2.3756,-2.3686,-2.3919,-2.4692,-2.5126,-2.5253,-2.5051,-2.5486,-2.59,-2.5985,-2.5669,-2.5455,-2.5281,-2.4924,-2.4619,-2.4421,-2.4468,-2.4497,-2.4446,-2.4387,-2.4282,-2.4112,-2.4112,-2.3728,-2.3015,-2.2525,-2.1887,-2.1185,-2.0579,-2.0181,-1.9973,-1.9329,-1.8777,-1.8326,-1.7699,-1.7502,-1.7475,0.0,0.0,0.0,0.0,0.0,0.0,0.0,0.0,0.0,0.0,0.0,0.0,0.0,0.0,0.0,0.0,0.0,0.0,-4.1512,-4.0459,-3.9677,-3.9222,-3.8606,-3.8059,-3.7433,-3.7197,-3.7686,-3.9011,-4.0545,-4.1455,-4.1792,-4.1932,-4.1913,-4.1753,-4.0883,-4.0288,-3.9952,-4.0337,-4.0436,-4.0355,-4.0728,-4.0888,-4.0888,0.0,0.0,0.0,0.0,0.0,0.0,0.0,-3.9711,0.0,0.0,0.0,0.0,0.0,-3.8254,-3.7531,-3.7191,-3.6119,-3.4832,-3.3682,-3.1885,-3.0025,-2.8343,-2.7831,-2.7323,-2.5799,-2.5349,-2.504,-2.4253,-2.3891,-2.339,-2.2241,-2.2257,-2.2323,-2.2186,-2.249,-2.306,-2.4094,-2.37,-2.3881,-2.4973,-2.4886,-2.5016,-2.5638,-2.5385,-2.569,-2.6824,-2.6285,-2.6062,-2.6396,-2.6047,-2.5741,-2.5484,-2.5709,-2.5608,-2.5203,-2.5082,-2.4661,-2.4112,-2.4112,-2.3785,-2.3184,-2.2648,-2.206,-2.1459,-2.0796,-2.0224,-1.9747,-1.9436,-1.903,-1.8526,-1.7935,-1.7625,-1.7475,0.0,0.0,0.0,0.0,0.0,0.0,0.0,0.0,0.0,0.0,0.0,0.0,0.0,0.0,0.0,0.0,0.0,0.0,-4.3166,-4.154,-4.0628,-4.0878,-3.9368,-3.8829,-3.9569,-3.9501,-3.9345,-3.9043,-3.9849,-4.0424,-4.0832,-4.0736,-4.0513,-4.0297,-4.0069,-3.9935,-3.9901,-3.9935,-3.9986,-4.0054,-4.0138,-4.0561,-4.112,0.0,0.0,0.0,0.0,0.0,0.0,0.0,0.0,0.0,0.0,0.0,0.0,-3.8733,-3.8067,-3.7175,-3.6859,-3.5235,-3.3322,-3.2242,-3.0072,-2.7885,-2.6062,-2.5768,-2.5406,-2.3788,-2.3317,-2.3062,-2.2691,-2.2253,-2.1821,-2.1548,-2.164,-2.1787,-2.174,-2.2311,-2.3051,-2.3826,-2.3773,-2.4037,-2.4794,-2.5398,-2.565,-2.5284,-2.5876,-2.6287,-2.647,-2.6335,-2.622,-2.6062,-2.598,-2.5741,-2.5358,-2.5195,-2.5166,-2.5189,-2.4708,-2.4373,-2.4112,-2.3878,-2.3206,-2.2266,-2.2234,-2.1559,-2.0553,-2.0049,-1.9811,-1.9708,-1.8837,-1.8512,-1.8372,-1.7784,-1.7516,-1.7475,0.0,0.0,0.0,0.0,0.0,0.0,0.0,0.0,0.0,0.0,0.0,0.0,0.0,0.0,0.0,0.0,0.0,0.0,0.0,-4.2034,-4.1221,-4.1448,-4.0172,-3.9664,-4.0059,-3.9977,-3.9752,-3.9399,-4.0086,-4.0435,-4.0566,-4.0333,-4.0015,-3.9669,-3.9761,-3.9664,-3.9484,-3.9768,-3.984,-3.9694,-3.9849,-4.039,-4.1116,0.0,0.0,0.0,0.0,0.0,0.0,0.0,0.0,0.0,0.0,0.0,0.0,-3.8536,-3.7694,-3.6538,-3.5758,-3.4033,-3.1969,-3.0449,-2.8506,-2.6255,-2.4043,-2.3441,-2.3103,-2.2056,-2.1727,-2.1486,-2.1191,-2.0981,-2.0896,-2.0928,-2.1215,-2.1486,-2.183,-2.2345,-2.2993,-2.3673,-2.3625,-2.3835,-2.4587,-2.5271,-2.5622,-2.5527,-2.6155,-2.6563,-2.6761,-2.6486,-2.6287,-2.6394,-2.6283,-2.612,-2.5986,-2.5777,-2.5634,-2.5532,-2.4879,-2.4426,-2.4157,-2.3923,-2.3244,-2.2232,-2.1838,-2.1184,-2.0295,-1.9853,-1.9573,-1.9355,-1.8561,-1.8133,-1.7925,-1.7525,-1.7393,-1.7325,0.0,0.0,0.0,0.0,0.0,0.0,0.0,0.0,0.0,0.0,0.0,0.0,0.0,0.0,0.0,0.0,0.0,0.0,0.0,0.0,-4.1598,-4.1412,-4.1047,-4.0462,-3.9598,-3.9344,-3.9445,-3.9869,-4.0685,-4.0968,-4.0722,-4.0312,-4.0011,-3.9756,-3.9886,-3.9581,-3.9034,-3.9946,-3.9924,-3.9371,-3.9726,-4.0249,-4.0906,-4.0906,0.0,0.0,0.0,0.0,0.0,0.0,0.0,0.0,-4.0943,-3.9985,-3.8511,-3.8331,-3.7266,-3.5849,-3.4418,-3.2707,-3.0865,-2.8675,-2.6839,-2.4872,-2.2064,-2.1014,-2.0595,-2.0504,-2.0445,-2.0197,-1.9825,-2.007,-2.037,-2.0401,-2.0825,-2.1417,-2.2272,-2.2493,-2.2859,-2.3677,-2.3589,-2.3689,-2.4485,-2.4849,-2.5327,-2.6113,-2.6136,-2.6565,-2.7418,-2.6664,-2.6504,-2.7186,-2.6876,-2.6794,-2.7024,-2.6961,-2.6577,-2.5985,-2.5358,-2.4767,-2.4292,-2.4099,-2.3541,-2.2642,-2.1553,-2.0862,-2.0422,-1.9986,-1.9447,-1.8845,-1.8442,-1.7906,-1.7363,-1.7253,-1.7199,-1.712,0.0,0.0,0.0,0.0,0.0,0.0,0.0,0.0,0.0,0.0,0.0,0.0,0.0,0.0,0.0,0.0,0.0,0.0,0.0,0.0,-4.2667,-4.2894,-4.2226,-4.1342,-4.0372,-4.0582,-4.066,-4.0582,-3.9749,-3.9682,-4.0352,-3.8774,-3.8743,-3.9911,-3.9511,-3.9713,-4.0277,-4.0365,-4.0082,-3.9576,-3.9544,-3.9682,-3.9999,-3.9999,-4.0877,0.0,0.0,0.0,0.0,0.0,0.0,0.0,-4.0967,-4.0286,-3.9361,-3.9038,-3.781,-3.624,-3.4572,-3.2638,-3.0413,-2.7439,-2.4248,-2.1398,-1.9898,-1.9427,-1.9297,-1.9702,-1.9398,-1.9073,-1.9002,-1.9002,-1.9208,-1.9434,-2.0005,-2.0668,-2.1321,-2.2287,-2.3188,-2.3732,-2.4416,-2.4834,-2.5021,-2.5591,-2.5947,-2.5917,-2.6461,-2.693,-2.7429,-2.6842,-2.6803,-2.7434,-2.6959,-2.6794,-2.7024,-2.6961,-2.6577,-2.5985,-2.5419,-2.478,-2.4099,-2.376,-2.2961,-2.1898,-2.1345,-2.0771,-2.0245,-1.9791,-1.927,-1.8721,-1.831,-1.7777,-1.7253,-1.7308,-1.7295,-1.7144,0.0,0.0,0.0,0.0,0.0,0.0,0.0,0.0,0.0,0.0,0.0,0.0,0.0,0.0,0.0,0.0,0.0,0.0,0.0,0.0,0.0,-4.2929,-4.1964,-4.1342,-4.0936,-4.0653,-4.0504,-4.0539,-3.9508,-3.9236,-3.9776,-3.8725,-3.8606,-3.9251,-3.9565,-3.9813,-4.0014,-4.0472,-4.0397,-3.9946,-3.9871,-4.0124,-4.0567,-4.0567,-4.1309,-4.2313,-4.2313,0.0,0.0,0.0,0.0,0.0,0.0,0.0,-3.9797,-3.9658,-3.8387,-3.6678,-3.486,-3.2561,-2.9694,-2.5561,-2.2318,-1.9951,-1.9052,-1.8604,-1.8395,-1.8732,-1.8562,-1.8362,-1.8362,-1.8451,-1.8716,-1.927,-1.9796,-2.0485,-2.124,-2.2391,-2.3248,-2.3609,-2.4443,-2.5088,-2.5227,-2.5591,-2.5969,-2.6182,-2.6529,-2.6962,-2.7429,-2.6948,-2.6836,-2.736,-2.6876,-2.6714,-2.7024,-2.6778,-2.6386,-2.5874,-2.5358,-2.4734,-2.3982,-2.3065,-2.2431,-2.1982,-2.1053,-2.0527,-2.0283,-1.9494,-1.9024,-1.8675,-1.7878,-1.7388,-1.7128,-1.7141,-1.6946,-1.6578,0.0,0.0,0.0,0.0,0.0,0.0,0.0,0.0,0.0,0.0,0.0,0.0,0.0,0.0,0.0,0.0,0.0,0.0,0.0,0.0,0.0,0.0,-4.1486,-4.1069,-4.1241,-4.0406,-4.0053,-4.0277,-3.9612,-3.9268,-3.9146,-3.8941,-3.8855,-3.8749,-3.9722,-3.9937,-3.9579,-4.061,-4.0704,-4.0235,-4.028,-4.055,-4.0933,-4.0933,-4.1349,-4.1911,-4.1911,0.0,-4.2282,-4.2282,0.0,0.0,0.0,0.0,-4.0182,-4.0177,-3.9004,-3.7369,-3.5456,-3.2554,-2.8885,-2.3931,-2.1176,-1.9546,-1.892,-1.8205,-1.7803,-1.8216,-1.8104,-1.7951,-1.7951,-1.8201,-1.8606,-1.9373,-1.9844,-2.0499,-2.1633,-2.2553,-2.3199,-2.3539,-2.4385,-2.5093,-2.5309,-2.5568,-2.5985,-2.6541,-2.6752,-2.6971,-2.7441,-2.6948,-2.6836,-2.7211,-2.6723,-2.6577,-2.6943,-2.658,-2.6207,-2.5811,-2.5192,-2.457,-2.3969,-2.2605,-2.213,-2.2255,-2.1082,-2.0476,-2.0291,-1.9283,-1.8825,-1.8578,-1.7562,-1.7028,-1.686,-1.6818,-1.6363,-1.576,0.0,0.0,0.0,0.0,0.0,0.0,0.0,0.0,0.0,0.0,0.0,0.0,0.0,0.0,0.0,0.0,0.0,0.0,0.0,0.0,0.0,0.0,-4.1981,-4.1525,-4.1122,-4.0842,-4.0447,-4.0081,-3.9748,-3.9403,-3.8854,-3.8286,-3.8713,-3.9925,-3.9724,-4.0055,-4.0872,-4.1049,-4.0755,-4.0275,-4.0146,-3.9486,-3.8605,-3.8605,-3.8792,-3.9071,-3.9071,-3.9848,-4.088,-4.088,-4.1085,0.0,0.0,0.0,-4.0896,-4.0379,-3.9738,-3.8831,-3.7103,0.0,-2.7846,0.0,-2.1268,-1.9985,-1.9004,-1.8205,-1.7962,-1.8709,-1.8279,-1.7781,-1.7951,-1.804,-1.8361,-1.9373,-1.975,-2.0408,-2.1735,-2.2686,-2.3542,-2.4108,-2.4986,-2.5668,-2.6072,-2.6423,-2.6684,-2.6649,-2.7126,-2.7489,-2.7464,-2.7103,-2.7073,-2.7446,-2.6793,-2.6496,-2.6726,-2.6514,-2.6207,-2.5811,-2.482,-2.4443,-2.4465,-2.3131,-2.232,-2.1953,-2.2083,-2.1186,-1.9723,-1.9651,-1.906,-1.8161,-1.7878,-1.7174,-1.6307,-1.6307,-1.5839,-1.5223,0.0,0.0,0.0,0.0,0.0,0.0,0.0,0.0,0.0,0.0,0.0,0.0,0.0,0.0,0.0,0.0,0.0,0.0,0.0,0.0,0.0,0.0,-4.1752,-4.1339,-4.0935,-4.0662,-4.0261,-3.9839,-3.9768,-3.9661,-3.9506,-3.8987,-3.8987,-3.9432,-3.9691,-4.0009,-4.0466,-4.0662,-4.0681,-4.0536,-4.0469,-3.9647,-3.8569,-3.9133,-3.8959,-3.8519,-3.9199,-3.994,-4.0536,-4.0536,-4.0671,-4.0867,-4.0935,0.0,0.0,0.0,-4.0003,-3.8864,-3.5848,-3.2482,-2.8906,0.0,-2.2679,-2.1042,-1.9805,-1.8904,-1.8449,-1.8707,-1.8431,-1.8326,-1.8789,-1.8568,-1.8775,-1.9841,-2.0081,-2.0607,-2.1989,-2.2954,-2.373,-2.445,-2.5449,-2.631,-2.6594,-2.7096,-2.7409,-2.7602,-2.7764,-2.7946,-2.8128,-2.7347,-2.6998,-2.7285,-2.6677,-2.6452,-2.6714,-2.6368,-2.5974,-2.5328,-2.455,-2.4261,-2.4394,-2.3586,-2.2948,-2.2444,-2.1483,-2.0591,-1.9747,-1.9107,-1.85,-1.7922,-1.7229,-1.6589,-1.6059,-1.5632,-1.5044,-1.44,0.0,0.0,0.0,0.0,0.0,0.0,0.0,0.0,0.0,0.0,0.0,0.0,0.0,0.0,0.0,0.0,0.0,0.0,0.0,0.0,0.0,0.0,0.0,-4.1122,-4.0646,-4.0401,-4.0066,-3.961,-3.961,-3.9753,-3.9964,-3.9557,-3.917,-3.8832,-3.9525,-3.9742,-3.9788,-4.0076,-4.0216,-4.0355,-4.0102,-3.9237,-3.8217,-3.8632,-3.8123,0.0,0.0,-3.9198,-3.9534,-3.9856,-4.0039,-4.0176,-4.0161,-4.0176,0.0,0.0,0.0,-3.8964,-3.5222,0.0,-3.0894,-2.6841,-2.4619,-2.2879,0.0,-2.0199,-1.9627,-1.9305,-1.9206,-1.9315,-1.9907,-1.9368,-1.9162,-2.0223,-2.0472,-2.0934,-2.241,-2.3205,-2.4059,-2.487,-2.57,-2.6486,-2.7051,-2.741,-2.785,-2.8232,-2.8241,-2.8226,-2.8445,-2.7472,-2.7073,-2.7285,-2.6547,-2.6339,-2.6714,-2.6215,-2.5612,-2.4786,-2.4426,-2.4195,-2.4182,-2.3723,-2.3245,-2.2681,-2.1179,-2.0303,-1.9864,-1.8805,-1.8205,-1.7826,-1.663,-1.6047,-1.5762,-1.5018,-1.4337,-1.3774,0.0,0.0,0.0,0.0,0.0,0.0,0.0,0.0,0.0,0.0,0.0,0.0,0.0,0.0,-4.8993,-4.7585,0.0,0.0,0.0,0.0,0.0,0.0,0.0,0.0,-4.0285,-4.0121,-3.9783,-3.9424,-3.9424,-3.9461,-3.9557,-3.9466,-3.9182,-3.8873,-3.9032,-3.9115,-3.9149,-3.9192,-3.9177,-3.9118,-3.8147,-3.7369,-3.6597,-3.5449,-3.4536,-3.4106,-3.5321,-3.6186,-3.6972,-3.8117,-3.8814,-3.9177,-3.9379,-3.9307,-3.925,0.0,0.0,0.0,0.0,-3.5616,0.0,-2.9091,-2.7073,-2.5713,-2.3325,-2.2179,-2.1545,-2.1491,-2.0854,-2.0643,-2.1424,-2.0329,-1.9466,-2.0072,-2.0784,-2.1609,-2.3094,-2.3467,-2.4164,-2.546,-2.5684,-2.6177,-2.7441,-2.761,-2.7697,-2.7977,-2.8366,-2.8349,-2.7975,-2.7435,-2.7285,-2.752,-2.663,-2.6339,-2.6714,-2.6104,-2.5336,-2.4345,-2.4505,-2.4326,-2.3876,-2.3299,-2.2682,-2.2143,-2.2062,-2.1143,-1.976,-1.9258,-1.8692,-1.7939,-1.6535,-1.5802,-1.5423,-1.4618,-1.3983,-1.3531,0.0,0.0,0.0,0.0,0.0,0.0,0.0,0.0,0.0,0.0,0.0,0.0,0.0,-5.0205,-4.9554,-4.8491,-4.6936,0.0,0.0,0.0,0.0,0.0,0.0,0.0,0.0,-3.9753,-3.9634,-3.9684,-3.9817,-4.0203,-4.0867,-4.0286,-4.0057,-4.0104,-3.9281,-3.8784,-3.8553,-3.8676,-3.8664,-3.8442,-3.7535,-3.6445,-3.5317,-3.5399,-3.4692,-3.3845,-3.547,-3.6429,-3.7046,-3.75,-3.8059,-3.8575,-3.8723,-3.8649,-3.8575,-3.9017,-3.922,-3.8949,0.0,0.0,0.0,-3.105,-2.9087,-2.7541,-2.5773,-2.4404,-2.3413,-2.3221,-2.2907,-2.2745,-2.2972,-2.1746,-2.0857,-2.1316,-2.1627,-2.233,-2.3881,-2.4146,-2.4746,-2.6088,-2.6738,-2.7283,-2.7568,-2.838,-2.886,-2.8936,-2.8752,-2.8745,-2.882,-2.804,-2.7424,-2.7297,-2.6939,-2.6396,-2.5779,-2.5691,-2.5101,-2.4157,-2.4305,-2.4129,-2.3615,-2.3084,-2.2485,-2.1821,-2.1162,-2.0292,-1.9311,-1.87,-1.8092,-1.7408,-1.6126,-1.5555,-1.5369,-1.4204,-1.3395,-1.2857,0.0,0.0,0.0,0.0,0.0,0.0,0.0,0.0,0.0,0.0,0.0,0.0,0.0,0.0,-4.9695,-4.882,-4.6869,-4.5412,-4.4782,-4.3598,0.0,0.0,0.0,0.0,0.0,-4.0272,-4.007,-4.0123,-4.026,-4.0746,-4.1557,-4.0911,-4.051,-4.0403,-3.9436,-3.8721,-3.8104,-3.7782,-3.7584,-3.7347,-3.6102,-3.5041,-3.421,-3.4159,-3.3641,-3.3302,-3.4832,-3.5741,-3.6239,-3.6746,-3.7232,-3.7749,-3.7976,-3.8127,-3.8202,-3.8501,0.0,0.0,-3.717,0.0,0.0,0.0,-3.1342,-3.0176,-2.8192,-2.6869,-2.5899,-2.5409,-2.4991,-2.4653,-2.447,-2.3828,-2.3034,-2.2419,-2.2601,-2.3216,-2.4325,-2.4794,-2.5458,-2.6693,-2.7554,-2.8164,-2.8295,-2.8998,-2.947,-2.9519,-2.9269,-2.9011,-2.9016,-2.8333,-2.7649,-2.7041,-2.7157,-2.6746,-2.5602,-2.5638,-2.5266,-2.4518,-2.4469,-2.408,-2.339,-2.3058,-2.243,-2.1464,-2.0655,-1.9954,-1.9318,-1.8521,-1.7863,-1.7164,-1.5905,-1.5369,-1.5141,-1.3825,-1.3065,-1.2621,0.0,0.0,0.0,0.0,0.0,0.0,0.0,0.0,0.0,0.0,0.0,0.0,0.0,0.0,0.0,-4.8215,-4.7154,-4.6328,-4.5886,-4.4783,0.0,0.0,0.0,0.0,0.0,-4.1611,-4.1156,-4.0709,-4.0787,-4.1048,-4.1376,-4.1033,-4.0461,-3.9852,-3.962,-3.8917,-3.7872,-3.6651,-3.6079,-3.5891,-3.3676,-3.3163,-3.3376,-3.1564,-3.1322,-3.2137,-3.3083,-3.3778,-3.4353,-3.5785,-3.6401,-3.6744,-3.7148,-3.7519,-3.7886,-3.8127,0.0,0.0,0.0,0.0,0.0,0.0,0.0,-3.3491,-3.0618,-2.9618,-2.9057,-2.8122,-2.7156,-2.6364,-2.6214,-2.6474,-2.5997,-2.3515,-2.3625,-2.4168,-2.4422,-2.5296,-2.6361,-2.7437,-2.8001,-2.8676,-2.972,-2.958,-2.9503,-2.9553,-2.9679,-2.9306,-2.8286,-2.8383,-2.792,-2.6795,-2.741,-2.7267,-2.6061,-2.6022,-2.5757,-2.5342,-2.4989,-2.4202,-2.3189,-2.3162,-2.2447,-2.1126,-2.061,-2.0214,-1.9845,-1.8831,-1.8036,-1.7342,-1.6008,-1.5243,-1.4746,-1.3465,-1.2984,-1.2878,0.0,0.0,0.0,0.0,0.0,0.0,0.0,0.0,0.0,0.0,0.0,0.0,-4.8949,-4.8527,-4.8211,-4.8153,-4.7341,-4.667,-4.6343,-4.5266,-4.4378,-4.375,-4.2852,-4.2132,-4.1611,-4.1293,-4.1133,-4.0989,-4.1134,-4.147,0.0,0.0,0.0,-4.0916,-4.0068,-3.9197,-3.8317,-3.7534,-3.6459,-3.5109,-3.4216,-3.3218,-3.2156,-3.1775,-3.1675,-3.1729,-3.2434,-3.2937,-3.3456,-3.4139,-3.4855,-3.5602,-3.6177,-3.6744,0.0,-3.7134,0.0,0.0,-3.6253,0.0,0.0,0.0,0.0,0.0,-3.3691,-3.2375,-3.1323,-3.1227,-3.0487,-2.9834,-2.9754,-2.9242,-2.8488,-2.7418,-2.6131,-2.5349,-2.5695,-2.6098,-2.6644,-2.754,-2.8668,-2.9321,-2.9322,-2.9894,-3.0166,-2.9996,-2.9839,-2.9662,-2.9329,-2.8858,-2.8299,-2.7763,-2.7553,-2.6746,-2.5332,-2.5435,-2.5068,-2.4288,-2.4103,-2.3592,-2.2764,-2.2508,-2.1713,-2.0428,-1.9854,-1.9314,-1.88,-1.8512,-1.7851,-1.6889,-1.6027,-1.5194,-1.4351,-1.3472,-1.2614,-1.1816,0.0,0.0,0.0,0.0,0.0,0.0,0.0,0.0,0.0,0.0,0.0,0.0,-4.788,-4.7416,-4.7304,-4.7619,-4.7104,-4.6539,-4.6035,-4.5372,-4.4619,-4.3792,-4.3168,-4.2743,-4.2361,-4.2115,-4.1809,-4.1468,0.0,0.0,0.0,0.0,0.0,0.0,0.0,-3.9715,-3.8525,-3.8104,-3.6866,-3.5032,-3.3467,-3.2502,-3.1767,-3.1128,-3.106,-3.1284,-3.1807,-3.2326,-3.2834,-3.3189,-3.3953,-3.4881,-3.5467,-3.5871,-3.6177,-3.627,0.0,0.0,0.0,0.0,0.0,0.0,0.0,0.0,-3.5139,-3.4071,-3.3093,-3.3189,-3.2316,-3.1547,-3.1613,-3.1171,-3.0643,-3.0154,-2.8913,-2.7755,-2.7112,-2.7403,-2.782,-2.8247,-2.9226,-2.9829,-2.9873,-3.0394,-3.069,-3.0801,-3.0566,-3.0279,-2.9989,-2.9322,-2.8674,-2.8,-2.7855,-2.7081,-2.5446,-2.5537,-2.5231,-2.4524,-2.404,-2.3445,-2.2858,-2.2385,-2.1507,-2.0268,-1.9704,-1.9158,-1.8567,-1.8069,-1.7303,-1.6413,-1.5784,-1.4863,-1.3852,-1.3152,-1.2126,-1.0936,0.0,0.0,0.0,0.0,0.0,0.0,0.0,0.0,0.0,0.0,0.0,0.0,0.0,0.0,0.0,0.0,-4.665,-4.629,-4.5422,-4.5206,-4.4713,-4.4046,-4.3799,-4.3596,-4.3596,-4.3344,-4.2835,0.0,0.0,0.0,0.0,0.0,0.0,0.0,0.0,0.0,-3.8589,-3.8365,-3.7116,-3.5096,-3.2202,-3.1363,-3.1592,-2.9954,-2.9972,-3.0766,-3.1116,-3.1649,-3.2251,-3.25,-3.3275,-3.4314,-3.4743,-3.4895,-3.495,-3.5386,-3.5386,0.0,0.0,0.0,0.0,0.0,-3.5362,0.0,-3.5705,-3.5039,-3.4358,-3.4568,-3.3494,-3.2594,-3.2804,-3.2688,-3.2551,-3.2268,-3.1848,-3.0774,-2.86,-2.8991,-2.9499,-2.9443,-2.9765,-3.0326,-3.091,-3.0887,-3.113,-3.1616,-3.1407,-3.1074,-3.0434,-2.985,-2.8996,-2.7866,-2.8315,-2.7748,-2.5997,-2.5933,-2.573,-2.5203,-2.4262,-2.3541,-2.3109,-2.2471,-2.1559,-2.0419,-1.9917,-1.935,-1.8699,-1.7497,-1.6641,-1.596,-1.5379,-1.4387,-1.3242,-1.2633,-1.1522,-1.0239,0.0,0.0,0.0,0.0,0.0,0.0,0.0,0.0,0.0,0.0,0.0,0.0,0.0,0.0,0.0,0.0,0.0,0.0,0.0,-4.556,-4.4974,-4.4233,-4.3693,-4.3265,-4.2945,-4.285,-4.2526,-4.2034,0.0,0.0,0.0,0.0,0.0,0.0,0.0,0.0,-3.8841,-3.8241,-3.6484,-3.406,-3.287,-3.1466,-3.0133,-2.9532,-2.9519,-2.9869,-3.0302,-3.0668,-3.1015,-3.1625,-3.2314,-3.3104,-3.3556,-3.381,-3.405,-3.4564,-3.4384,-3.4043,0.0,0.0,-3.422,-3.5008,-3.4712,0.0,-3.6935,-3.6268,-3.5568,-3.6663,-3.638,-3.5977,-3.5977,-3.5192,-3.4611,-3.5087,-3.4053,-3.2549,-3.0615,-3.0284,-3.0401,-3.0778,-3.0683,-3.0802,-3.136,-3.1086,-3.103,-3.1329,-3.1274,-3.1049,-3.0648,-3.0475,-2.9651,-2.8086,-2.8328,-2.7386,-2.5242,-2.5472,-2.5104,-2.4151,-2.3384,-2.2991,-2.2844,-2.2001,-2.0996,-1.9956,-1.9847,-1.9164,-1.8084,-1.6982,-1.6382,-1.6063,-1.5051,-1.3837,-1.2603,-1.2048,-1.1042,-0.9761,0.0,0.0,0.0,0.0,0.0,0.0,0.0,0.0,0.0,0.0,0.0,0.0,0.0,0.0,0.0,0.0,0.0,0.0,0.0,-4.5554,-4.503,-4.405,-4.3582,-4.3094,-4.2703,-4.2622,-4.2295,-4.1868,0.0,0.0,0.0,0.0,0.0,0.0,0.0,0.0,0.0,-3.7621,-3.6169,-3.4038,-3.2459,-3.1091,-2.9833,-2.9138,-2.9053,-2.9349,-2.9863,-3.0318,-3.0656,-3.1359,-3.1901,-3.2339,-3.3056,-3.3154,-3.3142,-3.3725,-3.3641,-3.342,-3.3476,-3.3429,-3.344,-3.398,-3.4308,0.0,0.0,-3.649,-3.6343,-3.6635,-3.659,-3.6553,-3.6285,-3.606,-3.6094,-3.6502,-3.5917,-3.5107,-3.4155,-3.3135,-3.242,-3.2188,-3.188,-3.1707,-3.148,-3.1438,-3.1532,-3.1912,-3.1693,-3.14,-3.0943,-3.0475,-2.9566,-2.8306,-2.7868,-2.6982,-2.5396,-2.5338,-2.5009,-2.4319,-2.3377,-2.2977,-2.3043,-2.1979,-2.0912,-1.991,-1.991,-1.9086,-1.7675,-1.6848,-1.6125,-1.5391,-1.4491,-1.3548,-1.2581,-1.1723,-1.0556,-0.9336,0.0,0.0,0.0,0.0,0.0,0.0,0.0,0.0,0.0,0.0,0.0,0.0,0.0,0.0,0.0,0.0,0.0,0.0,0.0,-4.5142,-4.4907,-4.3936,-4.3445,-4.2982,-4.265,-4.2368,-4.2049,-4.1619,0.0,0.0,0.0,0.0,0.0,0.0,0.0,0.0,-3.6839,-3.6757,-3.5678,-3.3772,-3.1798,-3.0663,-3.0145,-2.8944,-2.8757,-2.9171,-2.9693,-3.0045,-3.0476,-3.1104,-3.1383,-3.1673,-3.2661,-3.2636,-3.24,-3.3194,-3.3156,-3.2896,-3.3227,-3.2832,-3.2625,-3.3381,-3.3807,-3.4359,0.0,0.0,0.0,-3.63,-3.6447,-3.659,-3.6263,-3.6722,-3.7201,-3.7515,-3.7392,-3.7317,-3.7585,-3.6295,-3.4937,-3.3968,-3.337,-3.272,-3.1993,-3.2055,-3.2182,-3.2383,-3.2274,-3.1805,-3.1101,-3.0288,-2.9429,-2.8451,-2.7544,-2.6606,-2.5762,-2.5358,-2.5017,-2.4708,-2.3541,-2.3136,-2.3291,-2.2005,-2.0896,-1.9984,-1.9874,-1.8975,-1.7469,-1.6902,-1.5918,-1.4724,-1.3993,-1.3235,-1.2423,-1.1362,-1.013,-0.8907,-4.2498,-4.2387,0.0,0.0,0.0,0.0,0.0,0.0,0.0,0.0,0.0,0.0,-4.0677,-4.1719,-4.2202,-4.1403,-4.308,-4.4125,-4.4027,-4.4194,-4.4392,-4.4397,-4.3344,-4.2638,-4.2381,-4.1766,-4.148,-4.1381,0.0,0.0,0.0,0.0,0.0,0.0,-3.8999,-3.7986,-3.6356,-3.6035,-3.4451,-3.2147,-3.1535,-3.1117,-3.0661,-2.9269,-2.8858,-2.9171,-2.9397,-2.9577,-2.9669,-3.0216,-3.0487,-3.0929,-3.2214,-3.2224,-3.1934,-3.2965,-3.268,-3.2201,-3.2624,-3.1771,-3.1369,-3.4101,-3.3091,-3.2333,-3.6241,0.0,-3.6316,-3.7644,0.0,-3.8267,-3.8399,0.0,0.0,-3.8778,-3.8042,-3.7754,-3.8949,-3.8601,-3.7831,-3.6836,-3.5105,-3.4001,-3.4053,-3.3519,-3.2893,-3.2073,-3.2656,-3.2434,-3.1112,-3.0369,-2.9542,-2.8656,-2.7601,-2.6526,-2.5547,-2.5162,-2.4754,-2.4337,-2.3418,-2.303,-2.2976,-2.1388,-2.0407,-1.997,-1.9488,-1.8651,-1.7548,-1.7093,-1.6085,-1.4788,-1.377,-1.2479,-1.1164,-1.0735,-0.972,-0.8405,-4.2092,-4.1782,0.0,0.0,0.0,0.0,0.0,0.0,0.0,0.0,0.0,-4.0045,-3.9697,-4.0595,-4.1096,-4.0644,-4.2274,-4.3382,-4.3491,-4.4037,0.0,-4.391,-4.3428,-4.2817,-4.2079,-4.1895,-4.1568,-4.1184,-4.093,0.0,0.0,0.0,0.0,0.0,-3.7596,-3.6324,-3.435,-3.4438,-3.3779,-3.242,-3.2105,-3.1843,-3.1562,-2.9534,-2.8909,-2.9114,-2.9143,-2.9301,-2.9577,-3.0034,-3.0593,-3.119,-3.183,-3.2274,-3.2678,-3.2864,-3.2759,-3.25,-3.2665,-3.2091,-3.1687,-3.3008,-3.314,-3.3498,-3.5919,-3.6535,-3.6886,-3.7553,0.0,0.0,0.0,0.0,0.0,0.0,-3.8788,-3.8766,-3.9478,-3.8968,-3.8322,-3.7824,-3.6591,-3.5388,-3.4135,-3.3949,-3.3629,-3.3011,-3.3408,-3.3054,-3.1676,-3.0586,-2.9618,-2.8885,-2.7553,-2.6518,-2.5811,-2.5527,-2.5122,-2.458,-2.3581,-2.3189,-2.3291,-2.1806,-2.0758,-2.0114,-1.9893,-1.8721,-1.7028,-1.6881,-1.5641,-1.3813,-1.3439,-1.2664,-1.1608,-1.0417,-0.9428,-0.8518,-4.1372,0.0,0.0,0.0,0.0,0.0,0.0,0.0,0.0,-3.9659,-3.9337,-3.896,-3.8579,-3.9272,-3.9677,-3.9526,-4.0952,-4.2034,-4.2528,-4.3588,-4.3993,-4.3366,-4.3538,-4.3139,-4.2149,-4.1966,-4.1646,-4.0998,0.0,0.0,0.0,0.0,0.0,0.0,-3.6684,-3.5221,-3.3123,-3.328,-3.2874,-3.224,-3.1932,-3.1713,-3.1359,-2.976,-2.9035,-2.9035,-2.885,-2.9024,-2.9393,-2.9852,-3.0365,-3.0997,-3.1501,-3.2146,-3.2706,-3.2575,-3.2466,-3.2557,-3.2647,-3.2128,-3.1782,-3.2953,-3.3682,-3.4564,-3.6198,-3.6882,-3.7288,-3.7614,-3.7621,0.0,0.0,0.0,0.0,0.0,0.0,-3.9337,-3.9538,-3.9118,-3.8747,-3.8691,-3.7923,-3.6587,-3.4463,-3.477,-3.4751,-3.3751,-3.4093,-3.3682,-3.2205,-3.0722,-2.9689,-2.91,-2.7311,-2.6242,-2.5949,-2.5502,-2.5034,-2.4637,-2.3636,-2.3294,-2.3447,-2.1835,-2.0781,-2.0201,-1.9866,-1.8551,-1.6649,-1.6817,-1.5521,-1.3372,-1.3334,-1.295,-1.2168,-1.0296,-0.9048,-0.8169,-4.0083,-4.0389,-4.0504,-4.0504,0.0,0.0,0.0,0.0,-3.9025,-3.8514,-3.8699,-3.8191,-3.6645,-3.7519,-3.7833,-3.699,-3.8417,-3.9863,-4.0945,-4.2684,-4.3639,-4.3355,-4.3709,-4.3607,-4.2703,-4.2109,-4.1515,-4.0866,0.0,0.0,0.0,0.0,0.0,0.0,-3.687,-3.5271,-3.3687,-3.2735,-3.1648,-3.0521,-3.0322,-2.9829,-2.922,-2.9703,-2.9416,-2.885,-2.8757,-2.885,-2.8932,-2.9393,-2.9497,-2.977,-3.0974,-3.1437,-3.1368,-3.1633,-3.1713,-3.1804,-3.2364,-3.1419,-3.1141,-3.4992,-3.4912,-3.462,-3.7676,-3.7662,-3.7222,-3.8473,-3.7648,-3.7004,-3.7975,0.0,0.0,0.0,0.0,0.0,0.0,-3.9451,-3.9737,-3.9895,-3.8908,-3.75,-3.5711,-3.6576,-3.6339,-3.4166,-3.4736,-3.4322,-3.2406,-3.0687,-2.9658,-2.9301,-2.6921,-2.5662,-2.5824,-2.4713,-2.4229,-2.4337,-2.3418,-2.3083,-2.316,-2.0879,-1.9995,-2.0159,-1.9013,-1.7857,-1.6726,-1.697,-1.5906,-1.4027,-1.3561,-1.3067,-1.2335,-1.0347,-0.8523,-0.693,-3.9258,-3.9362,-3.9465,-3.9672,-3.9362,-3.8945,-3.8396,-3.7974,-3.7524,-3.6638,-3.6367,-3.5864,-3.4646,-3.5418,-3.5975,-3.6207,-3.7572,-3.8943,-4.0236,-4.1655,-4.2391,-4.2484,-4.3163,-4.3162,-4.245,-4.2444,-4.215,-4.1529,-4.0948,0.0,0.0,0.0,0.0,0.0,0.0,-3.4825,-3.2821,-3.2314,-3.1399,-3.026,-3.0334,-2.992,-2.9128,-2.9312,-2.9231,-2.9035,-2.9035,-2.8943,-2.8894,-2.9515,-3.0119,-3.0589,-3.1137,-3.1697,-3.1999,-3.176,-3.1518,-3.1252,-3.1425,-3.0754,-3.0621,-3.3264,-3.3972,-3.4727,-3.733,-3.7368,-3.7346,-3.8894,-3.7631,-3.6595,-3.7779,0.0,0.0,0.0,0.0,0.0,0.0,0.0,-3.9602,-3.9373,-3.9115,-3.8277,-3.6614,-3.7043,-3.6678,-3.5073,-3.478,-3.4082,-3.2843,-3.1315,-3.0155,-2.9442,-2.8477,-2.7364,-2.6011,-2.5813,-2.5335,-2.4478,-2.3486,-2.3189,-2.3396,-2.1753,-2.0712,-2.0187,-1.9824,-1.8759,-1.7317,-1.7534,-1.6508,-1.4714,-1.4141,-1.3066,-1.1634,-1.0147,-0.8726,-0.7203,-3.8514,-3.8421,-3.8526,-3.8945,-3.8526,-3.7868,-3.7322,-3.6526,-3.5637,-3.4877,-3.4567,-3.4045,-3.3135,-3.4025,-3.4855,-3.5374,-3.6764,-3.8226,-3.9712,-4.0874,-4.1708,-4.1993,-4.2882,-4.3011,-4.2399,-4.2589,-4.2491,-4.1901,-4.1319,-4.1118,0.0,0.0,0.0,0.0,0.0,-3.4781,-3.286,-3.2168,-3.1247,-3.0202,-3.0443,-2.9999,-2.9128,-2.922,-2.9128,-2.9057,-2.914,-2.9206,-2.9189,-2.9789,-3.0345,-3.0782,-3.0975,-3.1506,-3.1995,-3.1496,-3.1122,-3.0861,-3.105,-3.057,-3.0411,-3.2424,-3.3325,-3.4413,-3.6823,-3.6884,-3.6824,-3.8437,-3.7549,-3.6539,-3.7043,0.0,0.0,0.0,0.0,0.0,0.0,-3.9471,-3.9444,-3.9304,-3.9412,-3.8979,-3.7455,-3.7491,-3.7107,-3.5775,-3.4946,-3.4183,-3.3314,-3.1695,-3.0448,-2.9513,-2.8838,-2.7731,-2.6136,-2.6169,-2.5581,-2.4478,-2.3742,-2.3553,-2.3815,-2.2372,-2.1425,-2.0887,-2.054,-1.9431,-1.7927,-1.8175,-1.7168,-1.5358,-1.4803,-1.3575,-1.1931,-1.0229,-0.8513,-0.6687,-3.7986,-3.7679,-3.7691,-3.8198,-3.7346,-3.646,-3.5772,-3.4591,-3.3737,-3.3366,-3.3063,-3.2703,-3.1941,-3.3376,-3.4309,-3.4332,-3.5841,-3.7409,-3.908,-4.0461,-4.135,-4.1623,-4.2724,-4.3076,-4.2511,-4.2693,-4.2616,-4.2046,-4.2019,0.0,0.0,0.0,0.0,0.0,-3.7299,0.0,-3.3808,-3.2515,-3.1307,-3.0239,-3.0535,-3.0072,-2.9194,-2.9472,-2.9287,-2.897,-2.9303,-2.9467,-2.9554,-3.0046,-3.0231,-3.0253,-3.0557,-3.0964,-3.123,-3.096,-3.0707,-3.0685,-3.1253,-3.0668,-3.0457,-3.2671,-3.3089,-3.36,-3.625,-3.6108,-3.5812,-3.7259,-3.7264,-3.6676,-3.5791,0.0,0.0,0.0,0.0,0.0,0.0,0.0,-3.925,-3.9681,-3.9854,-3.951,-3.8167,-3.8117,-3.763,-3.6374,-3.5359,-3.4513,-3.3792,-3.185,-3.0419,-2.957,-2.812,-2.7,-2.6175,-2.5728,-2.5156,-2.4429,-2.4227,-2.4218,-2.4326,-2.279,-2.2119,-2.2161,-2.1052,-1.978,-1.8599,-1.8922,-1.7878,-1.6002,-1.5542,-1.4543,-1.3077,-1.0526,-0.7925,-0.5501,-3.7346,-3.6796,-3.6254,-3.6134,-3.6472,-3.6128,-3.4536,-3.4272,-3.3497,-3.1611,-3.1518,-3.137,-3.0632,-3.1707,-3.2972,-3.3993,-3.5115,-3.6579,-3.8149,-3.9044,-3.9888,-4.0808,-4.1428,-4.1928,-4.219,-4.2498,-4.2528,-4.238,-4.1908,0.0,-4.2303,0.0,0.0,0.0,0.0,-3.7294,-3.5919,-3.4421,-3.2759,-3.1103,-3.092,-3.06,-3.0212,-3.0308,-3.0212,-3.0039,-2.9443,-2.936,-2.9554,-3.0229,-3.0635,-3.0777,-3.1439,-3.1395,-3.0975,-3.0954,-3.0581,-3.0405,-3.0674,-3.0593,-3.0662,-3.1864,-3.2616,-3.3375,-3.4322,-3.4347,-3.4388,-3.5302,-3.464,-3.4254,-3.5717,-3.6311,0.0,0.0,0.0,0.0,0.0,0.0,-3.9162,-3.9854,-3.9839,-3.9561,-3.8859,-3.8672,-3.81,-3.7096,-3.6298,-3.5317,-3.4023,-3.3166,-3.1839,-3.0003,-2.974,-2.8783,-2.7176,-2.7112,-2.6783,-2.6129,-2.5377,-2.5163,-2.5436,-2.3515,-2.262,-2.2466,-2.1638,-2.0627,-1.9538,-1.9617,-1.857,-1.6828,-1.616,-1.4284,-1.1759,-0.9684,-0.7592,-0.5581,-3.6626,-3.5806,-3.5146,-3.4714,-3.5035,-3.4869,-3.3506,-3.3028,-3.2208,-3.0524,-3.0364,-3.0243,-2.991,-3.1011,-3.223,-3.3347,-3.4477,-3.5822,-3.7501,-3.8173,-3.8908,-3.9865,-4.058,-4.1185,-4.1584,-4.1993,-4.2204,-4.2302,-4.1941,0.0,-4.2373,0.0,0.0,0.0,0.0,-3.823,-3.6646,-3.4805,-3.3066,-3.1597,-3.1598,-3.1252,0.0,-3.089,-3.089,-3.0704,-3.0147,-3.0175,-3.0577,-3.1261,-3.1495,-3.1661,-3.2039,-3.1838,-3.1405,-3.1516,-3.1186,-3.0723,-3.0909,-3.096,-3.0987,-3.1371,-3.1831,-3.2438,-3.3152,-3.3156,-3.3122,-3.3814,-3.3744,-3.3784,-3.4361,-3.5691,0.0,0.0,0.0,0.0,0.0,-3.9086,-3.887,-3.9768,-3.961,-3.9322,-3.9104,-3.871,-3.8186,-3.7529,-3.6561,-3.5551,-3.4602,-3.3578,-3.2181,-3.0281,-3.0065,-2.9252,-2.7579,-2.7727,-2.7489,-2.6903,-2.618,-2.6008,-2.6134,-2.4539,-2.3639,-2.3212,-2.2619,-2.1481,-2.0128,-2.0263,-1.9181,-1.7381,-1.6218,-1.4168,-1.1707,-1.0083,-0.8215,-0.6228,-3.5897,-3.4925,-3.4155,-3.3625,-3.3491,-3.3187,-3.2437,-3.1578,-3.0748,-2.9937,-2.9764,-2.9574,-2.9635,-3.0799,-3.1891,-3.262,-3.3876,-3.533,-3.6846,-3.7536,-3.8185,-3.9013,-3.9762,-4.0389,-4.0668,-4.1285,-4.1696,-4.198,-4.2079,0.0,0.0,0.0,0.0,0.0,0.0,0.0,0.0,-3.4462,-3.2919,-3.2103,-3.2517,-3.2134,-3.136,-3.1576,-3.1479,-3.1263,-3.1263,-3.1401,-3.1782,-3.2308,-3.2499,-3.2544,-3.2544,-3.2229,-3.2026,-3.2342,-3.194,-3.1418,-3.1529,-3.1513,-3.1564,-3.1281,-3.1228,-3.1471,-3.2417,-3.2296,-3.2122,-3.2539,-3.351,-3.3931,-3.2734,-3.5272,0.0,0.0,0.0,0.0,-3.9542,-3.8818,-3.8589,-3.9481,-3.9322,0.0,-3.9104,-3.857,-3.8157,-3.787,-3.6722,-3.575,-3.5257,-3.3751,-3.2203,-3.0542,-2.9929,-2.9073,-2.7863,-2.796,-2.7838,-2.7344,-2.7006,-2.6846,-2.672,-2.56,-2.4765,-2.4126,-2.3575,-2.2253,-2.0599,-2.0754,-1.9606,-1.7598,-1.5929,-1.4153,-1.2308,-1.1052,-0.9313,-0.7234,-3.4969,-3.4177,-3.3625,-3.3296,-3.283,-3.2189,-3.1357,-3.1271,-3.109,-3.0479,-2.9967,-2.9697,-3.0054,-3.1054,-3.2028,-3.2642,-3.3769,-3.5079,-3.6363,-3.6592,-3.712,-3.8185,-3.8619,-3.9129,-3.9815,-4.0655,-4.1198,-4.1411,-4.1881,0.0,0.0,0.0,0.0,0.0,0.0,0.0,-3.743,-3.5369,-3.406,-3.3412,-3.3505,-3.3284,-3.2918,-3.2918,-3.2918,-3.2918,-3.2619,-3.2205,-3.1726,-3.2101,-3.2307,-3.2544,-3.2544,-3.2229,-3.2015,-3.2026,-3.196,-3.2006,-3.2443,-3.2598,-3.2616,-3.2271,-3.2197,-3.203,-3.1494,-3.1252,-3.1159,-3.107,-3.134,-3.1932,-3.2889,-3.4742,-3.6516,0.0,-3.7694,-3.7468,-3.7521,-3.804,-3.8568,-3.8929,-3.9017,-3.9104,-3.9104,-3.8986,-3.8693,-3.8177,-3.8311,-3.7624,-3.5681,-3.5352,-3.3903,-3.1179,-3.0691,-2.9859,-2.863,-2.8807,-2.8815,-2.8781,-2.8479,-2.8158,-2.7681,-2.6356,-2.5279,-2.4391,-2.3735,-2.2726,-2.1528,-2.1081,-1.9348,-1.6886,-1.5693,-1.427,-1.2749,-1.1452,-1.0017,-0.8365,-3.3963,-3.3285,-3.2861,-3.2642,-3.2138,-3.1635,-3.1309,-3.1154,-3.0837,-3.016,-3.014,-3.0206,-3.0422,-3.0874,-3.1629,-3.2551,-3.3119,-3.3917,-3.5058,-3.5378,-3.5916,-3.6785,-3.7441,-3.808,-3.9013,-3.9634,-4.0402,-4.1323,-4.1428,0.0,0.0,0.0,0.0,0.0,0.0,-3.8923,0.0,0.0,-3.4347,-3.4064,-3.3779,-3.383,-3.4063,-3.4063,-3.4214,-3.4411,-3.4055,-3.3862,-3.3579,-3.2975,-3.2764,-3.2869,-3.2869,-3.2656,-3.2499,-3.2949,-3.2746,-3.2611,-3.3085,-3.3174,-3.3024,-3.2761,-3.2597,-3.246,-3.2072,-3.1563,-3.1217,-3.1213,-3.1137,-3.1651,-3.3153,-3.4667,-3.5921,-3.6704,-3.689,-3.702,-3.7104,-3.763,-3.814,-3.8335,-3.8793,-3.8942,-3.8679,-3.8649,-3.8575,-3.8501,-3.8575,-3.7872,-3.6072,-3.5797,-3.4441,-3.1909,-3.1142,-3.0427,-2.9582,-2.9251,-2.9162,-2.9338,-2.8923,-2.8595,-2.833,-2.7004,-2.5988,-2.528,-2.4298,-2.3222,-2.2116,-2.0867,-1.919,-1.7348,-1.6417,-1.5224,-1.3841,-1.2518,-1.122,-0.9696,-3.3056,-3.2571,-3.2086,-3.1859,-3.1513,-3.1319,-3.1564,-3.14,-3.1031,-3.0217,-3.0611,-3.0874,-3.1075,-3.1086,-3.1485,-3.2649,-3.2807,-3.3242,-3.4177,-3.4725,-3.5146,-3.5708,-3.6472,-3.7227,-3.7986,-3.8594,-3.9536,-4.0796,-4.0785,-4.1129,0.0,0.0,0.0,0.0,0.0,0.0,-3.6651,-3.5137,-3.4492,-3.4501,-3.4129,-3.4422,-3.5082,-3.5082,-3.5329,-3.5624,-3.5121,-3.5168,-3.5207,-3.4124,-3.3723,-3.3531,-3.3442,-3.3172,-3.2982,-3.3765,-3.3526,-3.3141,-3.3743,-3.3606,-3.3442,-3.3241,-3.2952,-3.2724,-3.2889,-3.2262,-3.1763,-3.1901,-3.175,-3.1961,-3.3355,-3.4313,-3.5148,-3.5983,-3.6371,-3.6743,-3.7112,-3.7565,-3.79,-3.8067,-3.8621,-3.8804,-3.8312,-3.8289,-3.8352,-3.856,-3.8427,-3.7725,-3.6373,-3.5999,-3.4796,-3.2563,-3.1623,-3.0946,-3.0532,-2.9661,-2.9356,-2.9673,-2.9246,-2.8881,-2.8661,-2.7664,-2.6793,-2.6,-2.501,-2.3808,-2.2441,-2.0826,-1.9327,-1.8035,-1.7512,-1.6284,-1.4682,-1.3683,-1.245,-1.0917,-3.2392,-3.2095,-3.1839,-3.1144,-3.1299,-3.1554,-3.1385,-3.2075,-3.2416,-3.2117,-3.1674,-3.1574,-3.2211,-3.2364,-3.2617,-3.3254,-3.3662,-3.4267,-3.4869,-3.498,-3.5091,-3.5412,-3.5719,-3.6254,-3.6808,-3.7655,-3.8421,-3.9074,-3.9993,-4.0529,0.0,0.0,0.0,0.0,-3.8761,-3.7676,-3.6468,-3.5247,-3.4903,-3.5134,-3.5046,-3.5355,-3.5919,-3.5919,-3.5943,-3.5876,-3.5624,-3.5239,-3.4933,-3.531,-3.4929,-3.424,-3.3731,-3.3232,-3.2982,-3.3458,-3.356,-3.3743,-3.4486,-3.4337,-3.3935,-3.3935,-3.3568,-3.3185,-3.2982,-3.2797,-3.2791,-3.2794,-3.2584,-3.2611,-3.3429,-3.3095,-3.3383,-3.5515,-3.5859,-3.6197,-3.7107,-3.7993,-3.8627,-3.8681,-3.8629,-3.8525,-3.8467,-3.8475,-3.8366,-3.8037,-3.8277,-3.7813,-3.6373,-3.6634,-3.5655,-3.2915,-3.2192,-3.1598,-3.1093,-3.0152,-2.9717,-2.9979,-3.0053,-2.9568,-2.8689,-2.8577,-2.7551,-2.5948,-2.5929,-2.4631,-2.2452,-2.1577,-2.0147,-1.8454,-1.8593,-1.6944,-1.4564,-1.4668,-1.3459,-1.1626,-3.1419,-3.1388,-3.1336,-3.1172,-3.1395,-3.155,-3.1986,-3.2169,-3.2316,-3.2598,-3.2437,-3.239,-3.2469,-3.259,-3.2929,-3.3439,-3.3631,-3.3851,-3.4188,-3.4311,-3.4534,-3.4858,-3.5191,-3.573,-3.6483,-3.6916,-3.781,-3.9083,-3.9382,-3.9823,0.0,0.0,0.0,-3.7826,-3.722,-3.6542,-3.5649,-3.5256,-3.5214,-3.5442,-3.5664,-3.6093,-3.6673,-3.6673,-3.6968,-3.7104,-3.6677,-3.6629,-3.6701,-3.641,-3.5509,-3.4458,-3.4566,-3.4337,-3.4085,-3.4564,-3.4507,-3.4429,-3.4739,-3.4509,-3.4127,-3.3839,-3.404,-3.417,-3.384,-3.382,-3.3776,-3.3825,-3.3228,-3.2726,-3.293,-3.3273,-3.3819,-3.4363,-3.5392,-3.6172,-3.6262,-3.7223,-3.7806,-3.7541,-3.7855,-3.7975,-3.7774,-3.7735,-3.7672,-3.7519,-3.8142,-3.8062,-3.6954,-3.6606,-3.5669,-3.4068,-3.275,-3.1916,-3.1748,-3.0853,-3.0549,-3.0696,-3.0518,-3.0135,-2.9771,-2.9026,-2.7722,-2.596,-2.5384,-2.4162,-2.2466,-2.1764,-2.0543,-1.9129,-1.8669,-1.7646,-1.6396,-1.5997,-1.4994,-1.3799,-3.0717,-3.0806,-3.0993,-3.0988,-3.1179,-3.1636,-3.2437,-3.2441,-3.2593,-3.3183,-3.3458,-3.3304,-3.2833,-3.3051,-3.3375,-3.3818,-3.3851,-3.3851,-3.3851,-3.4086,-3.4311,-3.4524,-3.4869,-3.5312,-3.6059,-3.6375,-3.7237,-3.8429,-3.8348,-3.8755,-3.9648,-3.8991,-3.7842,-3.6297,-3.6394,-3.6075,-3.5296,-3.5529,-3.5841,-3.611,-3.6279,-3.6745,-3.7421,-3.7421,-3.7661,-3.7938,-3.7553,-3.7565,-3.7721,-3.7319,-3.6223,-3.5128,-3.5502,-3.5306,-3.5097,-3.5488,-3.5396,-3.5154,-3.5198,-3.5063,-3.4783,-3.4446,-3.4696,-3.5046,-3.488,-3.4897,-3.4793,-3.4606,-3.3817,-3.3046,-3.2755,-3.3558,-3.4094,-3.404,-3.5209,-3.6095,-3.6315,-3.6959,-3.7355,-3.7023,-3.7497,-3.7578,-3.7058,-3.7107,-3.7226,-3.7148,-3.7672,-3.7792,-3.7111,-3.6401,-3.5625,-3.4654,-3.3115,-3.2291,-3.2375,-3.1543,-3.1252,-3.1402,-3.109,-3.0751,-3.0345,-2.9069,-2.7764,-2.6537,-2.5161,-2.4078,-2.3183,-2.2296,-2.1304,-2.0316,-1.9502,-1.8661,-1.7824,-1.7278,-1.6465,-1.5584,-3.0309,-3.0657,-3.0852,-3.0087,-3.079,-3.1774,-3.2588,-3.3269,-3.3857,-3.4022,-3.4635,-3.456,-3.3396,-3.3785,-3.4188,-3.4524,-3.4524,-3.4524,-3.4524,-3.4524,-3.4524,-3.4524,-3.4869,-3.5091,-3.5423,-3.595,-3.636,-3.6414,-3.7008,-3.7308,-3.763,-3.7964,-3.7071,-3.523,-3.6673,-3.6612,-3.5641,-3.6472,-3.6904,-3.718,-3.718,-3.7505,-3.7974,-3.7974,-3.7974,-3.7986,-3.7974,-3.7637,-3.7276,-3.7793,-3.7426,-3.6694,-3.6496,-3.6015,-3.5686,-3.5923,-3.5968,-3.6073,-3.6236,-3.6114,-3.5956,-3.5945,-3.5759,-3.5671,-3.5864,-3.5979,-3.5783,-3.4942,-3.439,-3.3873,-3.3368,-3.3458,-3.3973,-3.5046,-3.5344,-3.61,-3.7665,-3.7835,-3.7807,-3.7661,-3.7754,-3.7508,-3.6659,-3.6869,-3.69,-3.6744,-3.69,-3.6866,-3.641,-3.6217,-3.5489,-3.4225,-3.3251,-3.2874,-3.2974,-3.2166,-3.1792,-3.1792,-3.2027,-3.1388,-3.0137,-2.8559,-2.7776,-2.765,-2.5672,-2.4847,-2.484,-2.344,-2.2608,-2.2086,-2.1513,-2.0077,-1.8386,-1.8464,-1.7688,-1.6606,-3.0902,-3.1218,-3.1706,-3.2221,-3.2598,-3.3182,-3.4109,-3.4131,-3.4174,-3.4449,-3.4701,-3.4634,-3.425,-3.435,-3.4412,-3.4524,-3.4524,-3.4635,-3.4869,-3.4869,-3.4869,-3.5091,-3.5202,-3.5423,-3.5632,-3.6059,-3.6348,-3.6403,-3.6706,-3.692,-3.6765,-3.7242,-3.7037,-3.6259,-3.6743,-3.692,-3.6797,-3.7461,-3.7575,-3.7539,-3.7903,-3.8158,-3.8303,-3.8092,-3.8092,-3.8303,-3.8092,-3.7878,-3.7757,-3.7926,-3.8236,-3.8357,-3.776,-3.7097,-3.6673,-3.6743,-3.6789,-3.6647,-3.6472,-3.6414,-3.6414,-3.6036,-3.6395,-3.6637,-3.6381,-3.6223,-3.6171,-3.5733,-3.5053,-3.4576,-3.4854,-3.4503,-3.4536,-3.5523,-3.5824,-3.6075,-3.6803,-3.7108,-3.7309,-3.7024,-3.6964,-3.6823,-3.6478,-3.6225,-3.6369,-3.7052,-3.673,-3.6646,-3.6789,-3.5821,-3.5102,-3.471,-3.3256,-3.2632,-3.2775,-3.2439,-3.2272,-3.2414,-3.2069,-3.132,-3.0151,-2.8979,-2.8394,-2.8324,-2.6806,-2.5937,-2.5542,-2.4661,-2.3554,-2.2296,-2.1913,-2.1018,-1.9975,-1.9892,-1.945,-1.8769,-3.1296,-3.1635,-3.2255,-3.2879,-3.3149,-3.3702,-3.4812,-3.4754,-3.4728,-3.5027,-3.5061,-3.5061,-3.4952,-3.5001,-3.4958,-3.4858,-3.4858,-3.498,-3.5102,-3.5191,-3.5301,-3.5423,-3.5632,-3.5852,-3.595,-3.6266,-3.6456,-3.6508,-3.6811,-3.6733,-3.6309,-3.7043,-3.7121,-3.6715,-3.7225,-3.7538,-3.7676,-3.8231,-3.8349,-3.8051,-3.8392,-3.8526,-3.8514,-3.8409,-3.8409,-3.855,-3.8652,-3.8618,-3.8643,-3.8837,-3.9343,-3.9682,-3.9114,-3.8443,-3.7833,-3.7417,-3.7251,-3.718,-3.6767,-3.6897,-3.7037,-3.668,-3.7044,-3.7409,-3.7072,-3.6795,-3.6722,-3.6621,-3.6027,-3.5647,-3.5866,-3.5793,-3.5743,-3.6251,-3.6571,-3.6839,-3.6804,-3.7146,-3.7168,-3.6654,-3.6701,-3.6709,-3.6411,-3.6035,-3.6048,-3.6866,-3.6579,-3.633,-3.6284,-3.5515,-3.4976,-3.4976,-3.3859,-3.3152,-3.2891,-3.2963,-3.2853,-3.2547,-3.1956,-3.1419,-3.086,-2.975,-2.9128,-2.8909,-2.7886,-2.7029,-2.6343,-2.5574,-2.4591,-2.3455,-2.2658,-2.2011,-2.149,-2.0995,-2.067,-2.0466,-3.1603,-3.2068,-3.2542,-3.2542,-3.2971,-3.3828,-3.5001,-3.5256,-3.5426,-3.5783,-3.5852,-3.5852,-3.5533,-3.5719,-3.5817,-3.5522,-3.5412,-3.5423,-3.5412,-3.5719,-3.5708,-3.5522,-3.6059,-3.6386,-3.6386,-3.6592,-3.6778,-3.6823,-3.7112,-3.6836,-3.6164,-3.7206,-3.7309,-3.6645,-3.7959,-3.841,-3.8267,-3.9059,-3.9154,-3.8841,-3.8841,-3.8841,-3.8853,-3.8878,-3.8902,-3.8976,-3.9541,-3.9738,-3.9812,-4.0279,-4.0584,-4.0597,-4.0572,-4.0011,-3.9199,-3.8024,-3.7631,-3.7584,-3.7251,-3.7358,-3.7596,-3.7596,-3.7785,-3.7986,-3.7986,-3.7577,-3.7296,-3.7515,-3.7193,-3.6783,-3.6616,-3.711,-3.7469,-3.6972,-3.7615,-3.795,-3.766,-3.7776,-3.7544,-3.6455,-3.6831,-3.7042,-3.6463,-3.6082,-3.6018,-3.6297,-3.6354,-3.6002,-3.5261,-3.5289,-3.5278,-3.5182,-3.4761,-3.4128,-3.3307,-3.3716,-3.3453,-3.254,-3.1842,-3.1764,-3.2138,-3.0832,-2.9993,-2.9443,-2.8781,-2.8033,-2.7221,-2.6202,-2.5661,-2.5273,-2.3715,-2.3055,-2.2874,-2.1931,-2.1676,-2.1682,-3.2466,-3.3088,-3.3782,-3.4353,-3.474,-3.5264,-3.6206,-3.6514,-3.6668,-3.6796,-3.6808,-3.6808,-3.67,-3.6808,-3.6808,-3.67,-3.6036,-3.5817,-3.6059,-3.6157,-3.6266,-3.6386,-3.67,-3.6916,-3.6916,-3.7251,-3.7428,-3.7412,-3.7746,-3.7788,-3.7575,-3.8203,-3.8583,-3.8667,-3.9009,-3.9175,-3.9303,-3.9531,-3.9478,-3.9154,-3.9374,-3.9374,-3.9203,-3.9625,-3.9773,-3.9848,-4.0178,-4.0267,-4.0279,-4.0511,-4.094,-4.1322,-4.0683,-4.0474,-4.0276,-3.9211,-3.8441,-3.7892,-3.7773,-3.788,-3.788,-3.788,-3.7986,-3.7986,-3.7986,-3.7786,-3.7515,-3.7618,-3.7295,-3.7304,-3.7777,-3.7616,-3.7617,-3.8317,-3.8228,-3.795,-3.7371,-3.768,-3.7629,-3.6527,-3.644,-3.6483,-3.6264,-3.6015,-3.604,-3.6631,-3.6532,-3.6364,-3.6304,-3.6142,-3.5643,-3.4711,-3.4272,-3.3813,-3.332,-3.3711,-3.3875,-3.3861,-3.2396,-3.2111,-3.2737,-3.1674,-3.0844,-3.0241,-2.9945,-2.9199,-2.8066,-2.7343,-2.6538,-2.5687,-2.5455,-2.4747,-2.3942,-2.4291,-2.4099,-2.3524,-3.2986,-3.3701,-3.4434,-3.4918,-3.5476,-3.6119,-3.6738,-3.7024,-3.7131,-3.7131,-3.7131,-3.7131,-3.7131,-3.7346,-3.756,-3.756,-3.6796,-3.6472,-3.67,-3.682,-3.6928,-3.6916,-3.7143,-3.7358,-3.756,-3.7679,-3.7853,-3.8191,-3.8203,-3.8319,-3.8435,-3.8706,-3.8945,-3.927,-3.9478,-3.9581,-3.9697,-3.9697,-3.9835,-4.0049,-4.0153,-4.0408,-4.0635,-4.0475,-4.0664,-4.0927,-4.0894,-4.1047,-4.1295,-4.1544,-4.1778,-4.1876,-4.1467,-4.0923,-4.0463,-3.9857,-3.9059,-3.8303,-3.8198,-3.8198,-3.8198,-3.7986,-3.7986,-3.7986,-3.7986,-3.7863,-3.7867,-3.8087,-3.8062,-3.8083,-3.8527,-3.8591,-3.8692,-3.907,-3.9032,-3.8793,-3.8237,-3.8142,-3.7858,-3.6905,-3.6714,-3.6555,-3.6463,-3.616,-3.6185,-3.6678,-3.6867,-3.6804,-3.6646,-3.7057,-3.6615,-3.5129,-3.4936,-3.463,-3.4004,-3.3919,-3.3946,-3.4085,-3.2965,-3.2671,-3.3076,-3.2305,-3.161,-3.1093,-3.1026,-3.0266,-2.9073,-2.8552,-2.7732,-2.6743,-2.6414,-2.6062,-2.5737,-2.5724,-2.5716,-2.5597,-3.3377,-3.4142,-3.4901,-3.5051,-3.5876,-3.6661,-3.7061,-3.7239,-3.7346,-3.7346,-3.7346,-3.7346,-3.7346,-3.7773,-3.8092,-3.8092,-3.7667,-3.7346,-3.7346,-3.7584,-3.7584,-3.7346,-3.7584,-3.7904,-3.8092,-3.8198,-3.8409,-3.8841,-3.8736,-3.8736,-3.8945,-3.8945,-3.905,-3.9374,-3.9594,-3.9697,-3.9697,-3.9876,-4.0282,-4.092,-4.1101,-4.1486,-4.2016,-4.1486,-4.1521,-4.1795,-4.1746,-4.194,-4.2343,-4.2808,-4.2607,-4.2032,-4.2032,-4.1222,-4.0196,-4.0283,-3.9711,-3.8964,-3.8648,-3.8542,-3.8412,-3.8116,-3.7986,-3.7986,-3.7986,-3.7986,-3.8092,-3.8631,-3.8736,-3.881,-3.8866,-3.946,-3.9829,-3.9386,-3.9791,-3.9893,-3.936,-3.8789,-3.8108,-3.7249,-3.7077,-3.6922,-3.6722,-3.658,-3.6456,-3.6625,-3.7153,-3.7272,-3.6598,-3.7738,-3.7592,-3.6035,-3.6075,-3.5748,-3.4963,-3.4208,-3.4041,-3.4217,-3.3601,-3.3336,-3.3518,-3.2828,-3.2327,-3.1806,-3.1806,-3.1171,-3.008,-2.9678,-2.9045,-2.8202,-2.7482,-2.7404,-2.7572,-2.6933,-2.7042,-2.7379,-3.4116,-3.4571,-3.5113,-3.6004,-3.653,-3.6966,-3.7406,-3.7892,-3.8198,-3.8198,-3.8421,-3.8526,-3.8526,-3.8631,-3.8631,-3.8631,-3.8631,-3.8409,-3.8198,-3.821,-3.8198,-3.8198,-3.821,-3.8421,-3.8631,-3.8945,-3.9154,-3.9258,-3.9374,-3.9478,-3.9581,-3.9581,-3.9594,-3.9594,-3.9685,-3.9697,-3.9722,-4.0383,-4.0831,-4.0946,-4.1941,-4.2007,-4.1659,-4.2626,-4.2609,-4.2311,-4.3176,-4.3047,-4.2511,-4.26,-4.2149,-4.1467,-4.1467,-4.1028,-4.0508,-4.0971,-4.0721,-4.0177,-3.966,-3.934,-3.9004,-3.853,-3.8198,-3.7986,-3.7986,-3.7986,-3.7974,-3.8092,-3.8303,-3.8489,-3.873,-3.9104,-3.9453,-3.9572,-3.993,-3.9791,-3.9045,-3.8677,-3.8108,-3.7249,-3.6792,-3.6546,-3.6722,-3.6832,-3.6867,-3.6651,-3.752,-3.7695,-3.6797,-3.7652,-3.7885,-3.7284,-3.6741,-3.6185,-3.5588,-3.4502,-3.4539,-3.5705,-3.4571,-3.4128,-3.4355,-3.3721,-3.2811,-3.1806,-3.1806,-3.1405,-3.0715,-3.0304,-3.0062,-2.9951,-3.0087,-2.9501,-2.8577,-2.9054,-2.8587,-2.7723,-3.4918,-3.5451,-3.6102,-3.6704,-3.7328,-3.7802,-3.8185,-3.8421,-3.8631,-3.8631,-3.8736,-3.8841,-3.8841,-3.8945,-3.9173,-3.947,-3.96,-3.9705,-3.9495,-3.9001,-3.8631,-3.8631,-3.8631,-3.8736,-3.905,-3.9374,-3.9478,-3.9478,-3.9478,-3.9581,-3.9697,-3.9697,-3.9788,-3.989,-4.0413,-4.0643,-4.0681,-4.1333,-4.1859,-4.2378,-4.2835,-4.3083,-4.3254,-4.3355,-4.3364,-4.3334,-4.3348,-4.3041,-4.2607,-4.2607,-4.2023,-4.1342,-4.1556,-4.1273,-4.1003,-4.1481,-4.1153,-4.057,-4.0058,-3.9677,-3.9328,-3.8554,-3.8303,-3.8198,-3.7986,-3.7986,-3.8092,-3.8409,-3.8409,-3.8514,-3.8945,-3.9154,-3.9374,-3.9478,-3.9685,-3.9802,-3.9346,-3.8932,-3.8479,-3.8128,-3.76,-3.7232,-3.7216,-3.7286,-3.7339,-3.7143,-3.7782,-3.7975,-3.7612,-3.8295,-3.8452,-3.7858,-3.7335,-3.6809,-3.6198,-3.5642,-3.5493,-3.5884,-3.492,-3.459,-3.4653,-3.4039,-3.3526,-3.3038,-3.2781,-3.2299,-3.1847,-3.1294,-3.0918,-3.0613,-3.0811,-3.0541,-3.0207,-3.0538,-3.0213,-2.9511,-3.6086,-3.6709,-3.724,-3.7569,-3.8036,-3.8526,-3.8736,-3.8841,-3.8945,-3.8945,-3.8945,-3.9099,-3.9223,-3.9549,-3.9877,-4.0439,-4.0701,-4.082,-4.0714,-3.9984,-3.9322,-3.9062,-3.9062,-3.9154,-3.9374,-3.9685,-3.9788,-3.9903,-3.9685,-3.9685,-3.9903,-4.0029,-4.0183,-4.0402,-4.1285,-4.1633,-4.1672,-4.2237,-4.2844,-4.3484,-4.3708,-4.405,-4.45,-4.3985,-4.3955,-4.4162,-4.3398,-4.2938,-4.2608,-4.236,-4.1935,-4.1354,-4.1567,-4.1562,-4.1474,-4.1815,-4.1618,-4.1267,-4.0707,-4.0368,-3.9922,-3.9145,-3.8892,-3.8785,-3.8572,-3.8476,-3.8497,-3.8932,-3.8717,-3.8631,-3.9154,-3.9258,-3.9362,-3.9374,-3.9581,-3.9697,-3.9697,-3.9322,-3.8969,-3.8969,-3.8553,-3.8083,-3.7827,-3.7776,-3.7736,-3.7557,-3.7952,-3.8213,-3.8304,-3.8845,-3.8911,-3.829,-3.7736,-3.7297,-3.6822,-3.6673,-3.6375,-3.5913,-3.5316,-3.4963,-3.4814,-3.4289,-3.4159,-3.4072,-3.367,-3.3353,-3.2987,-3.2563,-3.2082,-3.1544,-3.1544,-3.1569,-3.1534,-3.1534,-3.134,-3.1077,-3.7792,-3.7939,-3.8123,-3.8589,-3.8712,-3.8736,-3.8841,-3.905,-3.9258,-3.9258,-3.9478,-3.9873,-4.0689,-4.074,-4.098,-4.1669,-4.1719,-4.16,-4.1279,-4.1455,-4.0976,-3.9735,-3.9581,-3.9697,-3.9697,-3.9981,-4.0185,-4.0402,-4.0402,-4.0402,-4.0415,-4.1029,-4.1273,-4.1298,-4.1862,-4.2118,-4.2157,-4.3054,-4.342,-4.3617,-4.4353,-4.4369,-4.399,-4.4474,-4.4369,-4.3938,-4.3578,-4.3109,-4.246,-4.1736,-4.1439,-4.1297,-4.1076,-4.1339,-4.1764,-4.2053,-4.2459,-4.2735,-4.2183,-4.1813,-4.1347,-4.05,-4.0353,-4.0219,-3.9892,-3.9744,-3.9627,-3.9627,-3.921,-3.8841,-3.9258,-3.9258,-3.9374,-3.9581,-3.9697,-3.9697,-3.9697,-3.9436,-3.9284,-3.9284,-3.8962,-3.8666,-3.8411,-3.8346,-3.822,-3.7847,-3.8044,-3.8304,-3.8602,-3.8832,-3.8881,-3.8841,-3.7939,-3.7514,-3.746,-3.689,-3.6578,-3.6537,-3.5927,-3.5357,-3.4828,-3.4787,-3.4461,-3.3946,-3.4044,-3.408,-3.4114,-3.4211,-3.3928,-3.3376,-3.3376,-3.283,-3.2054,-3.2054,-3.1814,-3.1481,-3.8963,-3.8972,-3.8931,-3.9337,-3.927,-3.9258,-3.9556,-3.9659,-4.0004,-4.0552,-4.0707,-4.1027,-4.1693,-4.1744,-4.1974,-4.2549,-4.2493,-4.2493,-4.2385,-4.2493,-4.1996,-4.077,-4.0389,-4.0211,-4.0211,-4.0632,-4.0913,-4.1029,-4.1362,-4.1542,-4.1542,-4.1956,-4.2151,-4.2176,-4.2969,-4.3228,-4.3267,-4.3945,-4.4193,-4.4327,-4.4535,-4.4604,-4.4434,-4.4643,-4.4369,-4.3872,-4.3766,-4.3074,-4.21,-4.2125,-4.1954,-4.1703,-4.2047,-4.2341,-4.2506,-4.272,-4.2811,-4.2936,-4.2723,-4.2409,-4.1801,-4.0926,-4.0789,-4.0582,-3.9937,-3.9717,-3.9697,-3.9445,-3.9377,-3.9475,-3.9767,-3.9767,-3.978,-3.9687,-3.9715,-3.9685,-3.9478,-3.9509,-3.9588,-3.9779,-3.9677,-3.9507,-3.9141,-3.8975,-3.8644,-3.8181,-3.8149,-3.8213,-3.8317,-3.8575,-3.8742,-3.8908,-3.8566,-3.8175,-3.7925,-3.7768,-3.7541,-3.7175,-3.6958,-3.6727,-3.6497,-3.6103,-3.5805,-3.5547,-3.4893,-3.4566,-3.4539,-3.4249,-3.4128,-3.4237,-3.4059,-3.3771,-3.3395,-3.3225,-3.2989,-3.2679,-3.9917,-3.9788,-3.9775,-3.989,-3.9788,-3.9775,-4.0185,-4.044,-4.0683,-4.1285,-4.1595,-4.1929,-4.2494,-4.2664,-4.2776,-4.3342,-4.3393,-4.3393,-4.3297,-4.3226,-4.2699,-4.1644,-4.1234,-4.1029,-4.1119,-4.1608,-4.1918,-4.2022,-4.2305,-4.2499,-4.2604,-4.2878,-4.3061,-4.3087,-4.3779,-4.4134,-4.4173,-4.4552,-4.4722,-4.4709,-4.4539,-4.446,-4.4447,-4.4264,-4.4068,-4.3846,-4.3557,-4.3009,-4.2424,-4.2618,-4.2484,-4.249,-4.2995,-4.3181,-4.3073,-4.3073,-4.3085,-4.2974,-4.3085,-4.2683,-4.2095,-4.1566,-4.138,-4.1168,-4.0483,-4.0261,-4.0145,-3.9972,-4.009,-4.0257,-4.0445,-4.0308,-4.0196,-3.9996,-3.9852,-3.9594,-3.9478,-3.9685,-3.989,-4.007,-4.0173,-4.0058,-3.9783,-3.9582,-3.9149,-3.8493,-3.8527,-3.8596,-3.8582,-3.8764,-3.8853,-3.8908,-3.8908,-3.872,-3.8343,-3.8418,-3.8206,-3.7813,-3.7623,-3.7528,-3.7514,-3.689,-3.6605,-3.6537,-3.5533,-3.5113,-3.5072,-3.4679,-3.4562,-3.4643,-3.4539,-3.4396,-3.4315,-3.4067,-3.3876,-3.3814,-4.0504,-4.0504,-4.0504,-4.0504,-4.0504,-4.0517,-4.0504,-4.0991,-4.144,-4.1453,-4.1836,-4.2507,-4.3407,-4.3471,-4.3704,-4.4261,-4.4313,-4.4216,-4.3899,-4.3553,-4.308,-4.2208,-4.2182,-4.2381,-4.2578,-4.2578,-4.2919,-4.3478,-4.3153,-4.3153,-4.3491,-4.3835,-4.3885,-4.3912,-4.4474,-4.4722,-4.4722,-4.4722,-4.4722,-4.467,-4.4108,-4.3885,-4.382,-4.3245,-4.3376,-4.3794,-4.2891,-4.3165,-4.3781,-4.2878,-4.3178,-4.3872,-4.354,-4.3387,-4.3394,-4.3394,-4.3184,-4.3085,-4.3283,-4.278,-4.2296,-4.2501,-4.2338,-4.2158,-4.1816,-4.1513,-4.1354,-4.1342,-4.1342,-4.1354,-4.1342,-4.0902,-4.0526,-4.0526,-4.0061,-3.9697,-3.9697,-3.9878,-4.007,-4.007,-4.0287,-4.0387,-4.0008,-4.0042,-3.966,-3.8815,-3.9272,-3.9528,-3.9375,-3.9428,-3.9253,-3.8935,-3.8908,-3.8908,-3.8908,-3.8621,-3.8423,-3.8423,-3.7826,-3.7541,-3.7528,-3.6904,-3.6605,-3.6578,-3.5995,-3.5723,-3.5723,-3.5723,-3.5371,-3.4841,-3.4841,-3.4722,-3.4596,-3.4341,-3.4479,-3.478,-4.101,-4.0896,-4.0795,-4.0795,-4.1029,-4.1196,-4.1415,-4.2074,-4.2671,-4.31,-4.3506,-4.382,-4.4314,-4.4594,-4.4673,-4.4613,-4.4748,-4.4748,-4.4518,-4.4349,-4.418,-4.4011,-4.3243,-4.2814,-4.2906,-4.3297,-4.3717,-4.4032,-4.4348,-4.4559,-4.4679,-4.473,-4.4702,-4.4487,-4.4657,-4.4722,-4.4722,-4.4722,-4.4722,-4.4709,-4.4539,-4.4474,-4.4447,-4.4278,-4.4068,-4.3846,-4.357,-4.3362,-4.331,-4.3427,-4.3503,-4.3604,-4.372,-4.3746,-4.3764,-4.3764,-4.3666,-4.3543,-4.3394,-4.3415,-4.3339,-4.3146,-4.2657,-4.2158,-4.2035,-4.2032,-4.1806,-4.1417,-4.1643,-4.2028,-4.2137,-4.2119,-4.2005,-4.2195,-4.1288,-4.0563,-4.0563,-4.0324,-4.0185,-4.0402,-4.0593,-4.073,-4.065,-4.046,-4.0083,-3.966,-3.9909,-3.9984,-3.9798,-3.9774,-3.9637,-3.9553,-3.9137,-3.92,-3.9812,-3.9332,-3.9034,-3.9034,-3.8857,-3.8776,-3.8749,-3.8152,-3.7867,-3.784,-3.7256,-3.6985,-3.6958,-3.6358,-3.6075,-3.6035,-3.5453,-3.5099,-3.4958,-3.4881,-3.5036,-3.5266,-4.1597,-4.1398,-4.1285,-4.1385,-4.1667,-4.1956,-4.2173,-4.3034,-4.3756,-4.4125,-4.4586,-4.4877,-4.502,-4.5287,-4.5287,-4.5059,-4.5287,-4.5287,-4.5059,-4.5059,-4.5059,-4.5059,-4.4388,-4.3914,-4.3702,-4.4029,-4.4319,-4.4639,-4.4888,-4.5072,-4.518,-4.5072,-4.4843,-4.4735,-4.4843,-4.4843,-4.4722,-4.4843,-4.4843,-4.4709,-4.4487,-4.4382,-4.4369,-4.4134,-4.3977,-4.3872,-4.3872,-4.3794,-4.3755,-4.4095,-4.4092,-4.3942,-4.4196,-4.4107,-4.4107,-4.4107,-4.401,-4.3887,-4.3751,-4.3707,-4.3592,-4.3687,-4.3097,-4.2473,-4.2473,-4.2473,-4.2384,-4.2043,-4.2435,-4.2937,-4.3047,-4.2977,-4.2812,-4.3015,-4.214,-4.1448,-4.1448,-4.0963,-4.0722,-4.0837,-4.0836,-4.0795,-4.0883,-4.0772,-4.0564,-4.0491,-4.0544,-4.0503,-4.0503,-4.0535,-4.0427,-4.0291,-3.9822,-3.9887,-4.0553,-4.0096,-3.9798,-3.9644,-3.9414,-3.9305,-3.9278,-3.8695,-3.8336,-3.8222,-3.7614,-3.7236,-3.6993,-3.6531,-3.6304,-3.6212,-3.5697,-3.5506,-3.5538,-3.5771,-3.5946,-3.6212,-4.2079,-4.1881,-4.1796,-4.2079,-4.2372,-4.277,-4.2984,-4.3904,-4.4623,-4.4676,-4.5169,-4.5542,-4.5595,-4.5595,-4.5595,-4.5595,-4.5595,-4.5595,-4.5595,-4.5595,-4.5595,-4.5595,-4.5595,-4.5381,-4.483,-4.4735,-4.4951,-4.5287,-4.4951,-4.4951,-4.518,-4.4843,-4.4735,-4.4722,-4.5072,-4.5072,-4.4735,-4.5072,-4.5072,-4.4683,-4.4267,-4.4057,-4.4005,-4.3376,-4.3493,-4.4057,-4.4057,-4.4291,-4.4735,-4.4722,-4.4722,-4.4735,-4.4722,-4.4518,-4.4422,-4.4313,-4.4216,-4.4119,-4.4203,-4.3707,-4.3329,-4.4183,-4.3803,-4.32,-4.3092,-4.3092,-4.3092,-4.3092,-4.3528,-4.3899,-4.3899,-4.3464,-4.3092,-4.32,-4.2725,-4.2365,-4.2365,-4.1877,-4.1492,-4.1453,-4.0991,-4.0771,-4.0961,-4.1012,-4.1126,-4.1402,-4.1104,-4.1068,-4.1293,-4.1528,-4.1545,-4.1218,-4.0844,-4.0844,-4.1205,-4.0844,-4.0626,-4.0255,-3.9726,-3.9441,-3.9359,-3.8729,-3.8371,-3.8115,-3.7591,-3.7053,-3.6542,-3.6434,-3.6141,-3.5791,-3.5683,-3.5817,-3.6074,-3.6743,-3.7058,-3.7385,-4.2079,-4.2079,-4.2079,-4.2079,-4.2585,-4.2884,-4.2998,-4.3787,-4.4403,-4.4663,-4.5045,-4.53,-4.5555,-4.5808,-4.5808,-4.5595,-4.5595,-4.5595,-4.5595,-4.5595,-4.5595,-4.5595,-4.5595,-4.5488,-4.5381,-4.5381,-4.5595,-4.5808,-4.5595,-4.5488,-4.5502,-4.518,-4.4951,-4.4722,-4.5072,-4.518,-4.5072,-4.5395,-4.5488,-4.5368,-4.5035,-4.4888,-4.4875,-4.4516,-4.4555,-4.4888,-4.4888,-4.4967,-4.5072,-4.4843,-4.4843,-4.5072,-4.4735,-4.4843,-4.4964,-4.4735,-4.4748,-4.4869,-4.4422,-4.4548,-4.4699,-4.4587,-4.4859,-4.4767,-4.3926,-4.3707,-4.3707,-4.3707,-4.381,-4.401,-4.4216,-4.4113,-4.4118,-4.4323,-4.3747,-4.317,-4.317,-4.2667,-4.2138,-4.1712,-4.1749,-4.1876,-4.1876,-4.228,-4.2358,-4.2017,-4.2378,-4.2299,-4.1919,-4.1949,-4.1842,-4.1815,-4.126,-4.1247,-4.1802,-4.1247,-4.0949,-4.092,-4.0586,-4.0262,-3.9983,-3.9395,-3.8983,-3.872,-3.8599,-3.8464,-3.8276,-3.7375,-3.6932,-3.6801,-3.5693,-3.5318,-3.5629,-3.6237,-3.6605,-3.6866,-4.2666,-4.2582,-4.2484,-4.2679,-4.2982,-4.3285,-4.3498,-4.434,-4.4913,-4.5119,-4.5506,-4.5789,-4.6007,-4.6139,-4.6139,-4.6034,-4.6034,-4.6034,-4.6034,-4.6034,-4.6034,-4.6034,-4.6034,-4.6034,-4.6034,-4.6034,-4.5928,-4.5808,-4.5702,-4.5595,-4.5595,-4.5502,-4.5274,-4.5167,-4.5488,-4.5502,-4.5395,-4.5702,-4.5595,-4.5395,-4.5287,-4.518,-4.5193,-4.4964,-4.518,-4.5395,-4.5395,-4.5395,-4.5395,-4.5167,-4.5287,-4.5395,-4.5167,-4.5274,-4.5395,-4.5167,-4.5274,-4.5287,-4.4964,-4.518,-4.5395,-4.5167,-4.5381,-4.5381,-4.4856,-4.4653,-4.4544,-4.4544,-4.4422,-4.4313,-4.4409,-4.4518,-4.4518,-4.4518,-4.4162,-4.3873,-4.3873,-4.3355,-4.2982,-4.2814,-4.2645,-4.2579,-4.2579,-4.284,-4.2788,-4.2213,-4.2581,-4.2531,-4.1921,-4.2105,-4.2234,-4.2234,-4.1936,-4.1923,-4.2234,-4.1827,-4.157,-4.1557,-4.0696,-4.0118,-3.9795,-3.924,-3.8855,-3.8549,-3.8549,-3.8389,-3.8096,-3.7497,-3.7184,-3.6949,-3.6333,-3.6092,-3.6146,-3.7159,-3.782,-3.8361,-4.3533,-4.3327,-4.3189,-4.3369,-4.3378,-4.366,-4.4176,-4.4939,-4.5459,-4.5663,-4.6125,-4.6465,-4.6574,-4.6574,-4.6469,-4.6469,-4.6469,-4.6469,-4.6469,-4.6469,-4.6469,-4.6469,-4.6469,-4.6469,-4.6574,-4.6469,-4.6258,-4.5702,-4.5702,-4.5702,-4.5702,-4.5595,-4.5595,-4.5595,-4.5914,-4.5914,-4.5702,-4.5914,-4.5822,-4.5408,-4.5395,-4.5287,-4.5287,-4.5287,-4.5395,-4.5702,-4.5702,-4.5702,-4.5715,-4.5595,-4.5595,-4.5702,-4.5595,-4.5595,-4.5702,-4.5595,-4.5595,-4.5702,-4.5595,-4.5595,-4.5702,-4.5702,-4.5782,-4.5862,-4.5862,-4.5541,-4.5299,-4.5206,-4.4935,-4.4853,-4.4748,-4.4722,-4.4626,-4.4422,-4.4422,-4.4422,-4.4422,-4.3994,-4.3643,-4.3885,-4.3454,-4.3167,-4.3167,-4.3258,-4.3036,-4.2356,-4.2637,-4.2435,-4.1736,-4.2204,-4.24,-4.24,-4.24,-4.24,-4.24,-4.219,-4.2079,-4.2052,-4.0495,-3.9694,-3.9561,-3.891,-3.8501,-3.82,-3.82,-3.7936,-3.7487,-3.7395,-3.7241,-3.6964,-3.7142,-3.7016,-3.697,-3.8193,-3.9294,-4.0161,-4.4526,-4.4429,-4.4153,-4.3601,-4.3574,-4.3822,-4.447,-4.4691,-4.509,-4.6165,-4.6168,-4.6312,-4.6832,-4.6678,-4.6469,-4.6469,-4.6469,-4.6469,-4.6469,-4.6469,-4.6469,-4.6469,-4.6469,-4.6574,-4.6887,-4.6574,-4.6469,-4.6364,-4.6126,-4.5914,-4.5914,-4.5702,-4.5595,-4.5595,-4.5914,-4.602,-4.602,-4.6245,-4.6364,-4.6258,-4.602,-4.5914,-4.5914,-4.5595,-4.5702,-4.5914,-4.5914,-4.6139,-4.6258,-4.5822,-4.5702,-4.5914,-4.5702,-4.5808,-4.5914,-4.5702,-4.5808,-4.5914,-4.5702,-4.5808,-4.5914,-4.5914,-4.6517,-4.7122,-4.6813,-4.6272,-4.5678,-4.4948,-4.5153,-4.5349,-4.4826,-4.4722,-4.4722,-4.4626,-4.4626,-4.4626,-4.4626,-4.4561,-4.4314,-4.3925,-4.3807,-4.3755,-4.3755,-4.4199,-4.4055,-4.2984,-4.31,-4.2844,-4.1749,-4.1993,-4.2177,-4.2177,-4.2177,-4.2177,-4.2177,-4.2079,-4.198,-4.1782,-4.0539,-4.0039,-4.0106,-3.9136,-3.8503,-3.82,-3.82,-3.816,-3.8055,-3.7758,-3.7595,-3.7563,-3.7316,-3.7016,-3.6884,-3.7846,-3.9217,-4.0556,-4.5358,-4.5288,-4.5191,-4.49,-4.4747,-4.483,-4.5233,-4.5467,-4.5782,-4.6335,-4.6592,-4.6806,-4.7067,-4.6991,-4.6991,-4.6991,-4.6991,-4.6991,-4.6991,-4.6991,-4.6991,-4.6991,-4.6991,-4.6887,-4.6887,-4.6783,-4.6678,-4.6469,-4.635,-4.6245,-4.6245,-4.6139,-4.6139,-4.6139,-4.6245,-4.6245,-4.6245,-4.6469,-4.6364,-4.6245,-4.602,-4.6007,-4.6007,-4.5914,-4.602,-4.6245,-4.6245,-4.635,-4.6469,-4.6139,-4.6139,-4.6245,-4.6139,-4.6139,-4.6245,-4.6139,-4.6139,-4.6326,-4.6544,-4.6745,-4.6812,-4.715,-4.7433,-4.7541,-4.7213,-4.687,-4.6257,-4.5555,-4.5276,-4.5049,-4.5004,-4.4843,-4.4722,-4.4722,-4.4518,-4.4518,-4.4518,-4.4518,-4.431,-4.3938,-4.4147,-4.4225,-4.3912,-4.4395,-4.4251,-4.3114,-4.3114,-4.2719,-4.1563,-4.1696,-4.1881,-4.1881,-4.198,-4.2079,-4.1881,-4.1881,-4.1796,-4.1683,-4.0852,-4.0285,-3.986,-3.9254,-3.8582,-3.807,-3.8464,-3.8425,-3.8044,-3.7885,-3.778,-3.7883,-3.8296,-3.8577,-3.8768,-3.8948,-3.9573,-4.0423]},{"header":{"parameterUnit":"m.s-1","parameterCategory":1,"la1":30.6,"la2":28.766,"lo1":-90.7593,"lo2":-88.6598,"dy":0.0162,"dx":0.0183,"nx":116,"ny":114,"refTime":"2023-03-23T12:00:00:Z","depth":0,"parameterNumber":3,"parameterNumberName":"V-component_of_WINDS"},"data":[0.0,0.0,0.0,0.0,0.0,0.0,0.0,0.0,0.0,0.0,0.0,0.0,0.0,0.0,0.0,0.0,0.0,0.0,0.0,0.0,0.0,0.0,0.0,0.0,0.0,0.0,0.0,0.0,0.0,0.0,0.0,0.0,0.0,0.0,0.0,0.0,0.0,0.0,0.0,0.0,0.0,0.0,0.0,0.0,0.0,0.0,0.0,0.0,0.0,0.0,0.0,0.0,0.0,0.0,0.0,0.0,0.0,0.0,0.0,0.0,0.0,0.0,0.0,0.0,0.0,0.0,0.0,0.0,0.0,0.0,0.0,0.0,0.0,0.0,0.0,0.0,0.0,0.0,0.0,0.0,0.0,0.0,0.0,0.0,0.0,0.0,0.0,0.0,0.0,0.0,0.0,0.0,0.0,0.0,0.0,0.0,0.0,0.0,0.0,0.0,0.0,0.0,0.0,0.0,0.0,0.0,0.0,0.0,0.0,0.0,0.0,0.0,0.0,0.0,0.0,0.0,0.0,0.0,0.0,0.0,0.0,0.0,0.0,0.0,0.0,0.0,0.0,0.0,0.0,0.0,0.0,0.0,0.0,0.0,0.0,0.0,0.0,0.0,0.0,0.0,0.0,0.0,0.0,0.0,0.0,0.0,0.0,0.0,0.0,0.0,0.0,0.0,0.0,0.0,0.0,0.0,0.0,0.0,0.0,0.0,0.0,0.0,0.0,0.0,0.0,0.0,0.0,0.0,0.0,0.0,0.0,0.0,0.0,0.0,0.0,0.0,0.0,0.0,0.0,0.0,0.0,0.0,0.0,0.0,0.0,0.0,0.0,0.0,0.0,0.0,0.0,0.0,0.0,0.0,0.0,0.0,0.0,0.0,0.0,0.0,0.0,0.0,0.0,0.0,0.0,0.0,0.0,0.0,0.0,0.0,0.0,0.0,0.0,0.0,0.0,0.0,0.0,0.0,0.0,0.0,0.0,0.0,0.0,0.0,0.0,0.0,0.0,0.0,0.0,0.0,0.0,0.0,0.0,0.0,0.0,0.0,0.0,0.0,0.0,0.0,0.0,0.0,0.0,0.0,0.0,0.0,0.0,0.0,0.0,0.0,0.0,0.0,0.0,0.0,0.0,0.0,0.0,0.0,0.0,0.0,0.0,0.0,0.0,0.0,0.0,0.0,0.0,0.0,0.0,0.0,0.0,0.0,0.0,0.0,0.0,0.0,0.0,0.0,0.0,0.0,0.0,0.0,0.0,0.0,0.0,0.0,0.0,0.0,0.0,0.0,0.0,0.0,0.0,0.0,0.0,0.0,0.0,0.0,0.0,0.0,0.0,0.0,0.0,0.0,0.0,0.0,0.0,0.0,0.0,0.0,0.0,0.0,0.0,0.0,0.0,0.0,0.0,0.0,0.0,0.0,0.0,0.0,0.0,0.0,0.0,0.0,0.0,0.0,0.0,0.0,0.0,0.0,0.0,0.0,0.0,0.0,0.0,0.0,0.0,0.0,0.0,0.0,0.0,0.0,0.0,0.0,0.0,0.0,0.0,0.0,0.0,0.0,0.0,0.0,0.0,0.0,0.0,0.0,0.0,0.0,0.0,0.0,0.0,0.0,0.0,0.0,0.0,0.0,0.0,0.0,0.0,0.0,0.0,0.0,0.0,0.0,0.0,0.0,0.0,0.0,0.0,0.0,0.0,0.0,0.0,0.0,0.0,0.0,0.0,0.0,0.0,0.0,0.0,0.0,0.0,0.0,0.0,0.0,0.0,0.0,0.0,0.0,0.0,0.0,0.0,0.0,0.0,0.0,0.0,0.0,0.0,0.0,0.0,0.0,0.0,0.0,0.0,0.0,0.0,0.0,0.0,0.0,0.0,0.0,0.0,0.0,0.0,0.0,0.0,0.0,0.0,0.0,0.0,0.0,0.0,0.0,0.0,0.0,0.0,0.0,0.0,0.0,0.0,0.0,0.0,0.0,0.0,0.0,0.0,0.0,0.0,0.0,0.0,0.0,0.0,0.0,0.0,0.0,0.0,0.0,0.0,0.0,0.0,0.0,0.0,0.0,0.0,0.0,0.0,0.0,0.0,0.0,0.0,0.0,0.0,0.0,0.0,0.0,0.0,0.0,0.0,0.0,0.0,0.0,0.0,0.0,0.0,0.0,0.0,0.0,0.0,0.0,0.0,0.0,0.0,0.0,0.0,0.0,0.0,0.0,0.0,0.0,0.0,0.0,0.0,0.0,0.0,0.0,0.0,0.0,0.0,0.0,0.0,0.0,0.0,0.0,0.0,0.0,0.0,0.0,0.0,0.0,0.0,0.0,0.0,0.0,0.0,0.0,0.0,0.0,0.0,0.0,0.0,0.0,0.0,0.0,0.0,0.0,0.0,0.0,0.0,0.0,0.0,0.0,0.0,0.0,0.0,0.0,0.0,0.0,0.0,0.0,0.0,0.0,0.0,0.0,0.0,0.0,0.0,0.0,0.0,0.0,0.0,0.0,0.0,0.0,0.0,0.0,0.0,0.0,0.0,0.0,0.0,0.0,0.0,0.0,0.0,0.0,0.0,0.0,0.0,0.0,0.0,0.0,0.0,0.0,0.0,0.0,0.0,0.0,0.0,0.0,0.0,0.0,0.0,0.0,0.0,0.0,0.0,0.0,0.0,0.0,0.0,0.0,0.0,0.0,0.0,0.0,0.0,0.0,0.0,0.0,0.0,0.0,0.0,0.0,0.0,0.0,0.0,0.0,0.0,0.0,0.0,0.0,0.0,0.0,0.0,0.0,0.0,0.0,0.0,0.0,0.0,0.0,0.0,0.0,0.0,0.0,0.0,0.0,0.0,0.0,0.0,0.0,0.0,0.0,0.0,0.0,0.0,0.0,0.0,0.0,0.0,0.0,0.0,0.0,0.0,0.0,0.0,0.0,0.0,0.0,0.0,0.0,0.0,0.0,0.0,0.0,0.0,0.0,0.0,0.0,0.0,0.0,0.0,0.0,0.0,0.0,0.0,0.0,0.0,0.0,0.0,0.0,0.0,0.0,0.0,0.0,0.0,0.0,0.0,0.0,0.0,0.0,0.0,0.0,0.0,0.0,0.0,0.0,0.0,0.0,0.0,0.0,0.0,0.0,0.0,0.0,0.0,0.0,0.0,0.0,0.0,0.0,0.0,0.0,0.0,0.0,0.0,0.0,0.0,0.0,0.0,0.0,0.0,0.0,0.0,0.0,0.0,0.0,0.0,0.0,0.0,0.0,0.0,0.0,0.0,0.0,0.0,0.0,0.0,0.0,0.0,0.0,0.0,0.0,0.0,0.0,0.0,0.0,0.0,0.0,0.0,0.0,0.0,0.0,0.0,0.0,0.0,0.0,0.0,0.0,0.0,0.0,0.0,0.0,0.0,0.0,0.0,0.0,0.0,0.0,0.0,0.0,0.0,0.0,0.0,0.0,0.0,0.0,0.0,0.0,0.0,0.0,0.0,0.0,0.0,0.0,0.0,0.0,0.0,0.0,0.0,0.0,0.0,0.0,0.0,0.0,0.0,0.0,0.0,0.0,0.0,0.0,0.0,0.0,0.0,0.0,0.0,0.0,0.0,0.0,0.0,0.0,0.0,0.0,0.0,0.0,0.0,0.0,0.0,0.0,0.0,0.0,0.0,0.0,0.0,0.0,0.0,0.0,0.0,0.0,0.0,0.0,0.0,0.0,0.0,0.0,0.0,0.0,0.0,0.0,0.0,0.0,0.0,0.0,0.0,0.0,0.0,0.0,0.0,0.0,0.0,0.0,0.0,0.0,0.0,0.0,0.0,0.0,0.0,0.0,0.0,0.0,0.0,0.0,0.0,0.0,0.0,0.0,0.0,0.0,0.0,0.0,0.0,0.0,0.0,0.0,0.0,0.0,0.0,0.0,0.0,0.0,0.0,0.0,0.0,0.0,0.0,0.0,0.0,0.0,0.0,0.0,0.0,0.0,0.0,0.0,0.0,0.0,0.0,0.0,0.0,0.0,0.0,0.0,0.0,0.0,0.0,0.0,0.0,0.0,0.0,0.0,0.0,0.0,0.0,0.0,0.0,0.0,0.0,0.0,0.0,0.0,0.0,0.0,0.0,0.0,0.0,0.0,0.0,0.0,0.0,0.0,0.0,0.0,0.0,0.0,0.0,0.0,0.0,0.0,0.0,0.0,0.0,0.0,0.0,0.0,0.0,0.0,0.0,0.0,0.0,0.0,0.0,0.0,0.0,0.0,0.0,0.0,0.0,0.0,0.0,0.0,0.0,0.0,0.0,0.0,0.0,0.0,0.0,0.0,0.0,0.0,0.0,0.0,0.0,0.0,0.0,0.0,0.0,0.0,0.0,0.0,0.0,0.0,0.0,0.0,0.0,0.0,0.0,0.0,0.0,0.0,0.0,0.0,0.0,0.0,0.0,0.0,0.0,0.0,0.0,0.0,0.0,0.0,0.0,0.0,0.0,0.0,0.0,0.0,0.0,0.0,0.0,0.0,0.0,0.0,0.0,0.0,0.0,0.0,0.0,0.0,0.0,0.0,0.0,0.0,0.0,0.0,0.0,0.0,0.0,0.0,0.0,0.0,0.0,0.0,0.0,0.0,0.0,0.0,0.0,0.0,0.0,0.0,0.0,0.0,0.0,0.0,0.0,0.0,0.0,0.0,0.0,0.0,0.0,0.0,0.0,0.0,0.0,0.0,0.0,0.0,0.0,0.0,0.0,0.0,0.0,0.0,0.0,0.0,0.0,0.0,0.0,0.0,0.0,0.0,0.0,0.0,0.0,0.0,0.0,0.0,0.0,0.0,0.0,0.0,0.0,0.0,0.0,0.0,0.0,0.0,0.0,0.0,0.0,0.0,0.0,0.0,0.0,0.0,0.0,0.0,0.0,0.0,0.0,0.0,0.0,0.0,0.0,0.0,0.0,0.0,0.0,0.0,0.0,0.0,0.0,0.0,0.0,0.0,0.0,0.0,0.0,0.0,0.0,0.0,0.0,0.0,0.0,0.0,0.0,0.0,0.0,0.0,0.0,0.0,0.0,0.0,0.0,0.0,0.0,0.0,0.0,0.0,0.0,0.0,0.0,0.0,0.0,0.0,0.0,0.0,0.0,0.0,0.0,0.0,0.0,0.0,0.0,0.0,0.0,0.0,0.0,0.0,0.0,0.0,0.0,0.0,0.0,0.0,0.0,0.0,0.0,0.0,0.0,0.0,0.0,0.0,0.0,0.0,0.0,0.0,0.0,0.0,0.0,0.0,0.0,0.0,0.0,0.0,0.0,0.0,0.0,0.0,0.0,0.0,0.0,0.0,0.0,0.0,0.0,0.0,0.0,0.0,0.0,0.0,0.0,0.0,0.0,0.0,0.0,0.0,0.0,0.0,0.0,0.0,0.0,0.0,0.0,0.0,0.0,0.0,0.0,0.0,0.0,0.0,0.0,0.0,0.0,0.0,0.0,0.0,0.0,0.0,0.0,0.0,0.0,0.0,0.0,0.0,0.0,0.0,0.0,0.0,0.0,0.0,0.0,0.0,0.0,0.0,0.0,0.0,0.0,0.0,0.0,0.0,0.0,0.0,0.0,0.0,0.0,0.0,0.0,0.0,0.0,0.0,0.0,0.0,0.0,0.0,0.0,0.0,0.0,0.0,0.0,0.0,0.0,0.0,0.0,0.0,0.0,0.0,0.0,0.0,0.0,0.0,0.0,0.0,0.0,0.0,0.0,0.0,0.0,0.0,0.0,0.0,0.0,0.0,0.0,0.0,0.0,0.0,0.0,0.0,0.0,0.0,0.0,0.0,0.0,0.0,0.0,0.0,0.0,0.0,0.0,0.0,0.0,0.0,0.0,0.0,0.0,0.0,0.0,0.0,0.0,0.0,0.0,0.0,0.0,0.0,0.0,0.0,0.0,0.0,0.0,0.0,0.0,0.0,0.0,0.0,0.0,0.0,0.0,0.0,0.0,0.0,0.0,0.0,0.0,0.0,0.0,0.0,0.0,0.0,0.0,0.0,0.0,0.0,0.0,0.0,0.0,0.0,0.0,0.0,0.0,0.0,0.0,0.0,0.0,0.0,0.0,0.0,0.0,0.0,0.0,0.0,0.0,0.0,0.9288,0.8384,0.0,0.0,0.0,0.0,0.0,0.0,0.0,0.0,0.0,0.0,0.0,0.0,0.0,0.0,0.0,0.0,0.0,0.0,0.0,0.0,0.0,0.0,0.0,0.0,0.0,0.0,0.0,0.0,0.0,0.0,0.0,0.0,0.0,0.0,0.0,0.0,0.0,0.0,0.0,0.0,0.0,0.0,0.0,0.0,0.0,0.0,0.0,0.0,0.0,0.0,0.0,0.0,0.0,0.0,0.0,0.0,0.0,0.0,0.0,0.0,0.0,0.0,0.0,0.0,0.0,0.0,0.0,0.0,0.0,0.0,0.0,0.0,0.0,0.0,0.0,0.0,0.0,0.0,0.0,0.0,0.0,0.0,0.0,0.0,0.0,0.0,0.0,0.0,0.0,0.0,0.0,0.0,0.0,0.0,0.0,0.0,0.0,0.0,0.0,0.0,0.0,0.0,0.0,0.0,0.0,0.0,0.0,0.0,0.0,0.0,0.0,0.0,0.0,0.0,1.2002,1.0938,0.0,0.0,0.0,0.0,0.0,0.0,0.0,0.0,0.0,0.0,0.0,0.0,0.0,0.0,0.0,0.0,0.0,0.0,0.0,0.0,0.0,0.0,0.0,0.0,0.0,0.0,0.0,0.0,0.0,0.0,0.0,0.0,0.0,0.0,0.0,0.0,0.0,0.0,0.0,0.0,0.0,0.0,0.0,0.0,0.0,0.0,0.0,0.0,0.0,0.0,0.0,0.0,0.0,0.0,0.0,0.0,0.0,0.0,0.0,0.0,0.0,0.0,0.0,0.0,0.0,0.0,0.0,0.0,0.0,0.0,0.0,0.0,0.0,0.0,0.0,0.0,0.0,0.0,0.0,0.0,0.0,0.0,0.0,0.0,0.0,0.0,0.0,0.0,0.0,0.0,0.0,0.0,0.0,0.0,0.0,0.0,0.0,0.0,0.0,0.0,0.0,0.0,0.0,0.0,0.0,0.0,0.0,0.0,1.2696,1.2578,1.2671,1.3925,1.5007,1.5813,1.4849,1.3795,1.2743,1.1439,0.0,0.0,0.0,0.0,0.0,0.0,0.0,0.0,0.0,0.0,0.0,0.0,0.0,0.0,0.0,0.0,0.0,0.0,0.0,0.0,0.0,0.0,0.0,0.0,0.0,0.0,0.0,0.0,0.0,0.0,0.0,0.0,0.0,0.0,0.0,0.0,0.0,0.0,4.872,5.0468,5.1899,5.2967,5.2238,0.0,0.0,0.0,0.0,0.0,0.0,0.0,0.0,0.0,0.0,0.0,0.0,0.0,0.0,0.0,0.0,0.0,0.0,0.0,0.0,0.0,0.0,0.0,0.0,0.0,0.0,0.0,0.0,0.0,0.0,0.0,0.0,0.0,0.0,0.0,0.0,0.0,0.0,0.0,0.0,0.0,0.0,0.0,1.6701,1.6641,0.0,0.0,0.0,0.0,0.0,0.0,0.0,0.0,0.0,0.0,0.0,0.0,0.0,2.4026,2.3813,2.1416,1.8823,1.6188,1.5796,1.5414,1.506,1.6198,1.7101,1.7855,1.818,0.0,1.5266,1.4151,0.0,0.0,0.0,0.0,0.0,0.0,0.0,0.0,0.0,0.0,0.0,0.0,0.0,0.0,0.0,0.0,0.0,0.0,0.0,0.0,0.0,0.0,0.0,0.0,0.0,0.0,0.0,0.0,0.0,0.0,0.0,0.0,0.0,0.0,0.0,0.0,4.3778,4.6584,4.8537,5.0579,5.1806,5.2348,5.1489,5.0223,4.8376,4.3922,0.0,0.0,0.0,0.0,0.0,0.0,0.0,0.0,0.0,0.0,0.0,0.0,0.0,0.0,0.0,0.0,0.0,0.0,0.0,0.0,0.0,0.0,0.0,0.0,0.0,0.0,0.0,0.0,0.0,0.0,0.0,0.0,0.0,0.0,0.0,0.0,0.0,0.0,0.0,1.7481,1.8038,1.8169,1.765,1.7414,0.0,0.0,0.0,0.0,0.0,0.0,0.0,0.0,0.0,2.4327,2.468,2.4792,2.4596,2.3325,2.1545,1.924,1.8609,1.8228,1.8104,1.8511,1.912,1.9952,2.0436,2.0118,1.9125,1.7294,1.6333,1.6055,0.0,0.0,0.0,0.0,1.456,1.4775,0.0,0.0,0.0,0.0,0.0,0.0,0.0,0.0,0.0,0.0,0.0,0.0,0.0,0.0,0.0,2.4026,0.0,0.0,0.0,0.0,0.0,0.0,0.0,0.0,0.0,0.0,0.0,4.1379,4.4128,4.6186,4.7573,4.9711,5.0833,5.0916,4.9624,4.8772,4.8008,4.2986,3.8297,0.0,0.0,0.0,0.0,0.0,0.0,0.0,0.0,0.0,0.0,0.0,0.0,0.0,0.0,0.0,0.0,0.0,0.0,0.0,0.0,0.0,0.0,0.0,0.0,0.0,0.0,0.0,0.0,0.0,0.0,0.0,0.0,0.0,0.0,0.0,0.0,0.0,0.0,1.9192,1.9656,1.9793,1.9371,1.9179,0.0,0.0,0.0,0.0,0.0,0.0,2.073,2.1285,2.255,2.4632,2.5026,2.5167,2.5179,2.4498,2.3408,2.1827,2.1018,2.0643,2.0747,2.0598,2.1034,2.1923,2.2218,2.2476,2.2509,2.0154,1.9079,1.8901,1.8481,1.818,1.7928,1.761,1.7731,1.8023,0.0,0.0,0.0,0.0,0.0,0.0,0.0,0.0,0.0,0.0,0.0,0.0,0.0,0.0,2.5329,2.5494,2.6026,2.6558,0.0,0.0,0.0,0.0,0.0,0.0,0.0,0.0,0.0,4.0476,4.3211,4.4974,4.5769,4.733,4.8482,4.9131,4.7175,4.7085,4.802,4.2349,3.7298,3.2529,0.0,0.0,0.0,0.0,0.0,0.0,0.0,0.0,0.0,0.0,0.0,0.0,0.0,0.0,0.0,0.0,0.0,0.0,0.0,0.0,0.0,0.0,0.0,0.0,0.0,0.0,0.0,0.0,0.0,0.0,0.0,0.0,0.0,0.0,0.0,0.0,0.0,0.0,0.0,2.1708,2.2136,0.0,0.0,0.0,0.0,2.1872,2.2054,2.2342,2.2819,2.3603,2.4225,2.4696,2.4843,2.5229,2.5828,2.4761,2.3994,2.3582,2.2873,2.254,2.2461,2.2349,2.2748,2.3591,2.3646,2.4039,2.4418,2.2389,2.1727,2.2043,2.1896,2.1791,2.1661,2.1229,2.0849,2.05,0.0,0.0,0.0,0.0,0.0,0.0,0.0,0.0,0.0,0.0,0.0,0.0,0.0,2.5378,2.6375,2.6736,2.721,2.7635,2.7966,0.0,0.0,0.0,0.0,0.0,0.0,0.0,3.8625,4.0214,4.2305,4.3759,4.4592,4.5696,4.6335,4.6442,4.4575,4.3896,4.3925,3.9535,3.5524,3.1513,2.4668,1.8952,0.0,0.0,0.0,0.0,0.0,0.0,0.0,0.0,0.0,0.0,0.0,0.0,0.0,0.0,0.0,0.0,0.0,0.0,0.0,0.0,0.0,0.0,0.0,0.0,0.0,0.0,0.0,0.0,0.0,0.0,0.0,0.0,0.0,0.0,0.0,0.0,0.0,2.3888,2.3663,0.0,2.3817,2.3302,2.3042,2.3235,2.3208,2.3365,2.3747,2.4086,2.4463,2.4887,2.5239,2.5571,2.5887,2.5656,2.5562,2.5572,2.4603,2.4275,2.4573,2.3954,2.4144,2.4941,2.5019,2.5303,2.5623,2.5045,2.4399,2.3814,2.399,2.3884,2.3481,2.3122,2.3326,2.3676,0.0,0.0,0.0,0.0,0.0,0.0,0.0,0.0,0.0,0.0,0.0,2.4436,2.54,2.6627,2.75,2.781,2.8238,2.8545,2.8604,0.0,0.0,0.0,0.0,0.0,0.0,3.6669,3.7852,3.9429,4.0896,4.1904,4.2468,4.3331,4.3528,4.3082,4.1564,4.0559,3.9813,3.6181,3.3316,3.0677,2.4125,1.8734,1.411,0.0,0.0,0.0,0.0,0.0,0.0,0.0,0.0,0.0,0.0,0.0,0.0,0.0,0.0,0.0,0.0,0.0,0.0,0.0,0.0,0.0,0.0,0.0,0.0,0.0,0.0,0.0,0.0,0.0,0.0,0.0,0.0,0.0,0.0,2.403,2.4959,2.5488,2.5243,2.5152,2.5468,2.4985,2.4604,2.445,2.4449,2.4495,2.4533,2.463,2.4781,2.5032,2.5266,2.563,2.61,2.6126,2.633,2.659,2.571,2.5447,2.5711,2.5142,2.5306,2.5999,2.6193,2.6402,2.659,2.6807,2.6418,2.5763,2.5896,2.5783,2.554,2.5162,2.549,2.604,0.0,0.0,0.0,0.0,0.0,0.0,0.0,0.0,0.0,0.0,2.4586,2.6262,2.7694,2.8384,2.8732,2.8732,2.909,2.9195,2.8867,2.9638,0.0,0.0,0.0,0.0,3.6239,3.6569,3.7157,3.8072,3.901,3.9412,3.9349,4.0182,4.0085,3.9146,3.817,3.7204,3.6051,3.2466,3.0706,2.9907,2.485,1.9727,1.4582,0.0,0.0,0.0,0.0,0.0,0.0,0.0,0.0,0.0,0.0,0.0,0.0,0.0,0.0,0.0,0.0,0.0,0.0,0.0,0.0,0.0,0.0,0.0,0.0,0.0,0.0,0.0,0.0,0.0,0.0,0.0,0.0,0.0,2.457,2.5507,2.6283,2.647,2.6898,2.6921,2.6087,2.635,2.6319,2.5597,2.5841,2.5806,2.5283,2.5395,2.536,2.5143,2.4949,2.5391,2.6486,2.6131,2.6157,2.6609,2.6272,2.5988,2.5853,2.5905,2.627,2.6841,2.7117,2.7258,2.7317,2.7535,2.7771,2.7982,2.756,2.7619,2.7865,2.7412,2.7393,2.7497,0.0,0.0,0.0,0.0,0.0,0.0,0.0,0.0,0.0,0.0,2.4021,2.5938,2.7237,2.8451,2.9182,2.9273,2.9589,2.9701,2.9447,0.0,0.0,0.0,0.0,0.0,3.5772,3.6523,3.7075,3.7378,3.8261,3.8363,3.7736,3.7981,3.761,3.6704,3.5178,3.4315,3.3805,3.0824,2.8622,2.6823,2.2727,1.8484,1.4158,0.0,0.0,0.0,0.0,0.0,0.0,0.0,0.0,0.0,0.0,0.0,0.0,0.0,0.0,0.0,0.0,0.0,0.0,0.0,0.0,0.0,0.0,0.0,0.0,0.0,0.0,0.0,0.0,0.0,0.0,0.0,2.5993,2.6046,2.5767,2.662,2.7525,2.8153,2.7846,2.7741,2.8176,2.7243,2.6701,2.6933,2.6805,2.672,2.6724,2.6855,2.6587,2.5842,2.6288,2.6609,2.6726,2.6457,2.6636,2.7236,2.6389,2.6224,2.673,2.6507,2.686,2.7666,2.7654,2.776,2.7961,2.801,2.8201,2.8404,2.8102,2.8183,2.8464,2.8458,2.8647,2.8965,0.0,0.0,0.0,0.0,0.0,0.0,0.0,0.0,0.0,0.0,2.3688,2.5655,2.7118,2.8572,2.9531,2.9605,3.0054,3.0186,2.9892,0.0,0.0,0.0,0.0,3.3994,3.5067,3.5325,3.566,3.6095,3.6249,3.6031,3.5493,3.5132,3.4505,3.3593,3.2245,3.122,3.0369,2.8383,2.6332,2.4187,2.137,1.8228,1.4821,1.1004,0.7893,0.5413,0.4142,0.4503,0.5985,0.8693,0.0,0.0,0.0,0.0,0.0,0.0,0.0,0.0,0.0,0.0,0.0,0.0,0.0,0.0,0.0,0.0,0.0,0.0,0.0,0.0,0.0,0.0,0.0,0.0,2.6903,2.6692,2.6923,2.755,2.8255,2.9044,2.8319,2.8135,2.8979,2.7802,2.713,2.7369,2.7319,2.7251,2.7146,2.7293,2.7112,2.6582,2.6987,2.7114,2.6879,2.7056,2.7172,2.7156,2.6817,2.688,2.7314,2.7064,2.7388,2.821,2.8156,2.8237,2.8414,2.8456,2.8615,2.8827,0.0,0.0,0.0,0.0,2.9476,2.9784,0.0,0.0,0.0,0.0,0.0,0.0,0.0,0.0,0.0,0.0,0.0,2.5316,2.6995,2.8489,2.9456,2.9636,3.0261,3.0544,0.0,0.0,0.0,3.2314,3.2546,3.3133,3.4216,3.3628,3.3707,3.4542,3.3766,3.3262,3.3,3.2224,3.1298,3.0247,2.9413,2.814,2.6532,2.5552,2.3995,2.2038,2.0515,1.8425,1.5879,1.2459,0.9475,0.7017,0.5985,0.6072,0.7034,0.9853,0.0,0.0,0.0,0.0,0.0,0.0,0.0,0.0,0.0,0.0,0.0,0.0,0.0,0.0,0.0,0.0,0.0,0.0,0.0,0.0,0.0,0.0,0.0,0.0,2.7735,2.7342,2.7905,2.8204,2.8638,2.9425,2.8653,2.8312,2.8941,2.8243,2.7606,2.732,2.7609,2.7632,2.7176,2.7324,0.0,0.0,0.0,2.7375,2.7157,2.781,2.7713,2.6891,2.7371,2.761,2.7634,2.7518,2.7858,2.8543,2.8612,2.8687,2.8767,2.8887,2.9075,2.9272,2.9064,2.9107,2.9355,2.9713,2.9965,3.0118,0.0,0.0,0.0,0.0,0.0,0.0,0.0,0.0,0.0,2.1056,2.2342,2.376,2.5461,2.6594,2.7648,2.8742,2.9297,3.0049,0.0,0.0,3.1024,3.2032,3.1816,3.2161,3.3256,3.325,3.3327,3.3573,3.3395,3.2622,3.1274,3.1056,2.9761,2.7593,2.6737,2.5742,2.4659,2.3483,2.2143,2.0704,1.9558,1.759,1.5156,1.342,1.1007,0.8572,0.8395,0.9021,1.02,1.2304,1.4918,1.7809,2.0043,0.0,0.0,0.0,0.0,0.0,0.0,0.0,0.0,0.0,0.0,0.0,0.0,0.0,0.0,0.0,0.0,0.0,0.0,0.0,0.0,2.8691,2.7939,2.7437,2.779,2.8204,2.8701,2.9425,2.9176,2.8953,2.8994,2.8677,2.8298,2.7877,2.8316,2.8617,2.8673,2.8808,2.8669,2.8183,2.8802,2.8802,2.8145,2.8222,2.8203,2.8054,2.734,0.0,2.7922,2.7769,2.816,2.8905,2.8923,2.8975,2.9112,2.9185,2.9454,2.9773,2.9663,2.9717,2.9872,3.0047,3.0177,3.0279,0.0,0.0,0.0,0.0,0.0,0.0,0.0,0.0,0.0,0.0,2.0987,2.231,2.3595,2.504,2.6472,2.7876,2.9337,0.0,0.0,3.1556,3.1372,3.1784,3.1317,3.134,3.1993,3.1744,3.1887,3.2447,3.1616,3.0781,2.9973,2.9066,2.7739,2.6068,2.5053,2.3763,2.2281,2.1412,2.0168,1.8664,1.7569,1.5973,1.4158,1.3217,1.1523,0.9698,0.9819,1.052,1.1777,1.3765,1.6207,1.8803,2.0894,2.2822,2.4545,0.0,0.0,0.0,0.0,0.0,0.0,0.0,0.0,0.0,0.0,0.0,0.0,0.0,0.0,3.042,3.0598,0.0,2.9354,2.9142,2.8272,2.7587,2.7401,2.773,2.8352,2.9348,2.929,2.9268,2.9441,2.9231,2.8903,2.8453,2.881,2.9011,2.8947,2.9093,2.9063,2.8856,2.9325,2.9176,2.8408,2.8765,2.8746,2.8353,2.8143,2.8266,2.8653,2.8547,2.8703,2.9089,2.913,2.9178,2.9249,2.9435,2.9699,3.001,3.0007,3.0034,3.0118,3.0248,3.0333,3.0409,0.0,0.0,0.0,0.0,0.0,0.0,0.0,0.0,0.0,0.0,1.9696,2.0848,2.1693,2.339,2.5176,0.0,0.0,0.0,0.0,3.2038,3.1664,3.1299,3.0717,3.0411,3.045,2.9832,2.996,3.0876,2.9427,2.8665,2.8522,2.6958,2.5645,2.4541,2.3366,2.1741,1.9864,1.9212,1.8021,1.6481,1.5346,1.4173,1.3051,1.2396,1.1464,1.0545,1.0922,1.1611,1.2654,1.4831,1.7063,1.9312,2.1386,2.3369,2.5093,2.5975,2.6887,0.0,0.0,0.0,0.0,0.0,0.0,0.0,0.0,0.0,3.106,3.154,3.1589,3.1554,3.161,3.0899,3.0134,2.9559,2.858,2.7636,2.69,2.7129,2.7771,2.8732,2.9113,2.9444,2.9783,2.9736,2.9402,2.8792,2.9054,2.9115,2.8748,2.8863,2.9071,2.9251,2.9373,2.9155,2.8577,2.9232,2.9213,2.852,2.9055,2.9289,2.9302,2.924,2.92,2.9218,2.9304,2.9349,2.9394,2.9608,2.9874,3.0102,3.0157,3.0207,3.0241,3.0375,3.0441,3.0511,0.0,0.0,0.0,0.0,0.0,0.0,0.0,0.0,0.0,0.0,0.0,0.0,0.0,0.0,0.0,0.0,0.0,0.0,3.0556,3.0972,3.0889,3.019,2.96,2.9039,2.8516,2.8038,2.796,2.831,2.7644,2.6963,2.6254,2.5346,2.3916,2.2049,2.0715,1.9243,1.7681,1.6681,1.567,1.4682,1.3463,1.2662,1.2075,1.1286,1.0957,1.1092,1.2291,1.2896,1.3446,1.5708,1.7665,1.9451,2.1134,2.335,2.5464,2.6189,0.0,2.8012,2.8787,2.9258,2.9792,3.0429,3.0719,3.1527,0.0,0.0,3.3622,3.4158,3.4022,3.3395,3.2338,3.1237,3.0309,2.9839,2.8713,2.7569,2.668,2.6764,2.6963,2.6909,2.8451,2.9577,2.9546,2.9956,2.9745,2.8637,2.8886,2.8913,2.8476,2.8669,2.8952,2.92,2.9228,2.9214,2.9204,2.9357,2.9357,2.9282,2.9291,2.9283,2.9302,2.9302,2.9262,2.92,2.9411,2.955,2.9664,2.9755,2.991,3.0102,3.0157,3.0234,3.0316,3.0449,3.0492,3.0501,0.0,0.0,0.0,0.0,0.0,0.0,0.0,0.0,0.0,0.0,0.0,0.0,0.0,0.0,0.0,0.0,0.0,0.0,2.9347,2.9707,2.9632,2.8972,2.8202,2.7491,2.6827,2.6736,2.6623,2.6507,2.5969,2.5407,2.4836,2.3839,2.252,2.0964,1.969,1.8079,1.6202,1.4948,1.3643,1.2396,1.1468,1.0927,1.0686,1.0407,1.0713,1.1383,1.2426,1.3425,0.0,0.0,1.8276,2.0121,2.1966,2.346,2.488,2.6163,2.7094,0.0,2.9825,3.0668,3.1199,3.1447,3.2144,3.3036,3.4094,3.3862,3.3603,3.4238,3.4123,3.3643,3.2745,3.2329,3.1634,3.0366,2.9274,2.821,2.6927,2.6626,2.6483,2.6371,2.7416,2.8458,2.9178,2.9881,2.9888,2.8887,2.9155,2.9026,2.8136,2.8414,2.8687,2.8887,2.9007,2.9138,2.9181,2.9203,2.9225,2.9267,2.9175,2.9152,2.9175,2.9175,2.9222,2.9267,2.9392,2.955,2.9701,2.9718,2.9874,3.0102,3.0128,3.0221,3.0316,3.0439,3.0491,3.0501,0.0,0.0,0.0,0.0,0.0,0.0,0.0,0.0,0.0,0.0,0.0,0.0,0.0,0.0,0.0,0.0,0.0,0.0,0.0,2.8421,2.8408,2.7745,2.7066,2.6364,2.5589,2.5273,2.4968,2.4713,2.4062,2.3579,2.3204,2.2177,2.1083,1.9886,1.8402,1.667,1.4738,1.314,1.1687,1.0351,0.9515,0.9266,0.9415,0.965,1.0444,1.1446,1.2598,1.3754,0.0,0.0,1.8732,2.0428,2.233,2.3577,2.4749,2.6346,2.7675,2.8872,3.0198,3.1324,3.2026,3.1928,3.2806,3.3638,3.3386,3.3139,3.3099,3.349,3.3401,3.3111,3.2717,3.2614,3.2214,3.082,2.9827,2.8766,2.7373,2.6511,2.5993,2.5945,2.6245,2.6987,2.8244,2.9326,2.9708,2.9093,2.9261,2.8985,2.8112,2.818,2.8362,2.8612,2.8767,2.8887,2.8952,2.8952,2.8998,2.9067,2.8952,2.8929,2.9021,2.9062,2.9156,2.9291,2.9353,2.9472,2.9645,2.9682,2.9823,3.0057,3.0068,3.0147,3.0279,3.0371,3.0428,3.0481,0.0,0.0,0.0,0.0,0.0,0.0,0.0,0.0,0.0,0.0,0.0,0.0,0.0,0.0,0.0,0.0,0.0,0.0,0.0,2.7063,2.7382,2.6617,2.6321,2.5819,2.4961,2.3422,2.2615,2.2669,2.1768,2.1243,2.1084,2.0332,1.947,1.846,1.6274,1.4508,1.3037,1.0968,0.9692,0.8943,0.7856,0.7734,0.8344,0.8942,0.9938,1.1211,1.3048,0.0,0.0,0.0,1.886,2.0248,2.166,2.3482,0.0,2.7066,2.9098,0.0,0.0,0.0,3.1567,3.144,3.2064,3.2664,3.2687,3.2711,3.2625,3.2342,3.2048,3.189,3.1914,3.1573,3.1214,3.1045,3.028,2.9217,2.7674,2.639,2.5514,2.5255,2.5101,2.5356,2.6395,2.8132,2.9203,2.9108,2.8925,2.8713,2.8479,2.8129,2.8055,2.8406,2.8484,2.8562,2.8612,2.8612,2.8662,2.8718,2.8637,2.8687,2.881,2.8929,2.9108,2.9302,2.9291,2.9373,2.9512,2.9645,2.9774,2.9912,2.9975,3.0083,3.0199,3.0207,3.0292,3.0398,0.0,0.0,0.0,0.0,0.0,0.0,0.0,0.0,0.0,0.0,0.0,0.0,0.0,0.0,0.0,0.0,0.0,0.0,0.0,2.5833,2.6238,2.5551,2.5577,2.4983,2.375,2.3107,2.2285,2.1251,2.0961,2.0456,1.9727,1.9128,1.8298,1.7279,1.5403,1.3593,1.1825,0.9968,0.8399,0.7163,0.6816,0.6947,0.7433,0.8682,1.0227,1.1878,0.0,0.0,0.0,0.0,0.0,0.0,2.2941,0.0,0.0,2.7418,0.0,0.0,0.0,0.0,3.1043,3.0827,3.0446,3.0044,2.9735,2.9203,2.8693,2.8432,2.897,2.9704,3.039,3.0755,3.1129,3.1432,3.0522,2.9446,2.8484,2.7624,2.6711,2.5703,2.5815,2.5877,2.5619,2.7289,2.8358,2.8426,2.8861,2.8837,2.8135,2.8317,2.8317,2.8007,2.8146,2.8273,2.8335,2.8335,2.838,2.8458,2.851,2.8587,2.8662,2.881,2.8929,2.9044,2.9134,2.9243,2.9388,2.9511,2.9645,2.9789,2.9891,3.0019,3.0123,3.0138,3.0161,3.0202,0.0,0.0,0.0,0.0,0.0,0.0,0.0,0.0,0.0,0.0,0.0,0.0,0.0,0.0,0.0,0.0,0.0,0.0,0.0,0.0,2.5336,2.4991,2.5171,2.4807,2.3754,2.3315,2.2498,2.1175,2.0789,2.0051,1.9137,1.8414,1.7499,1.6497,1.4644,1.2818,1.0962,0.898,0.7427,0.6241,0.5992,0.6261,0.7015,0.8623,1.0335,0.0,0.0,0.0,0.0,0.0,0.0,0.0,0.0,0.0,0.0,0.0,0.0,0.0,0.0,3.064,3.0084,2.9798,2.866,2.7527,2.6952,2.5869,2.5075,2.532,2.6008,2.6974,2.8612,2.9363,3.0065,3.1012,3.0363,2.9646,2.9154,2.8292,2.7424,2.6414,2.6338,2.6167,2.5661,2.6834,2.7814,2.8198,2.8737,2.8758,2.8228,2.8338,2.8213,2.7642,2.7806,2.794,2.7979,2.8007,2.8045,2.8119,2.8282,2.8406,2.851,2.8637,2.8761,2.8881,2.8952,2.9085,2.9197,2.9349,2.9492,2.957,2.9771,2.9891,3.0003,3.0019,3.0003,3.0003,0.0,0.0,0.0,0.0,0.0,0.0,0.0,0.0,0.0,0.0,0.0,0.0,0.0,0.0,0.0,0.0,0.0,0.0,0.0,0.0,0.0,2.491,2.5108,2.5136,2.4944,2.4096,2.3251,2.2346,2.1161,2.0149,1.9254,1.8173,1.7056,1.5991,1.3848,1.2031,1.04,0.7974,0.6585,0.6034,0.5386,0.5796,0.6945,0.8562,0.0,0.0,0.0,0.0,0.0,0.0,0.0,0.0,0.0,0.0,0.0,0.0,0.0,3.0797,3.0883,2.9979,2.8781,2.8349,2.6733,2.5066,2.438,2.2892,2.1977,2.3115,2.3251,2.3946,0.0,0.0,2.8242,2.9904,2.9876,2.9669,2.9666,2.8547,2.7653,2.7258,2.6579,2.6174,2.6286,2.6841,2.7515,2.8261,2.8484,2.86,2.8665,2.8284,2.7809,2.7289,2.7461,2.7539,2.7587,2.7642,2.7701,2.7789,2.7996,2.8136,2.8273,2.8414,2.8569,2.8761,2.8761,2.8834,2.8994,2.9197,2.9286,2.9314,2.9569,2.9738,2.9808,2.9878,2.9861,2.9808,0.0,0.0,0.0,0.0,0.0,0.0,0.0,0.0,0.0,0.0,0.0,0.0,0.0,0.0,0.0,0.0,0.0,0.0,0.0,0.0,0.0,0.0,0.0,0.0,0.0,0.0,0.0,0.0,0.0,2.1402,2.0129,1.8813,1.7409,1.581,1.3774,1.178,0.9885,0.8088,0.6752,0.5913,0.0,0.6184,0.7206,0.0,0.0,0.0,0.0,0.0,0.0,0.0,0.0,0.0,0.0,2.881,3.0599,0.0,0.0,3.1096,3.0615,2.9213,2.7576,2.6207,2.428,2.2438,2.1376,2.0413,1.9727,1.9823,2.0822,2.211,2.3593,2.5535,2.7468,2.9333,2.9635,2.9813,3.0439,2.9411,2.8316,2.751,0.0,2.6748,2.6354,2.6901,2.734,2.7472,2.8553,2.901,2.856,2.8572,2.808,2.6973,2.6989,2.7085,2.723,2.7276,2.74,2.7569,2.7647,2.7748,2.7933,2.7961,2.8091,2.8273,2.838,2.8518,2.8718,2.8929,2.9089,2.9225,2.9412,2.955,2.9664,2.9719,2.9701,2.9626,0.0,0.0,0.0,0.0,0.0,0.0,0.0,0.0,0.0,0.0,0.0,0.0,0.0,0.0,0.0,0.0,0.0,0.0,0.0,0.0,0.0,0.0,0.0,0.0,0.0,0.0,0.0,0.0,0.0,0.0,0.0,1.9127,1.7391,1.5447,1.3523,1.1543,0.9697,0.8021,0.0,0.0,0.0,0.0,0.0,0.0,0.0,0.0,0.0,0.0,0.0,0.0,0.0,2.7767,2.8168,2.9559,3.1071,3.1373,0.0,3.0706,3.028,2.8439,2.627,2.4529,2.2514,2.0762,1.9798,1.8965,1.8528,1.8864,1.9803,2.0934,2.218,2.4118,2.6125,0.0,0.0,0.0,3.0255,2.9525,2.863,0.0,2.7471,0.0,2.6597,2.7071,2.75,2.7672,2.84,2.8496,2.775,2.7914,2.7531,2.6486,2.6521,2.6691,2.6875,2.6858,2.6989,2.7279,2.731,2.7448,2.7659,2.7689,2.7806,2.7996,2.8109,2.8273,2.8422,2.8644,2.8839,2.9044,2.9203,2.9328,2.9431,2.9511,2.9229,2.8851,0.0,0.0,0.0,0.0,0.0,0.0,0.0,0.0,0.0,0.0,0.0,0.0,0.0,0.0,0.0,0.0,0.0,0.0,0.0,0.0,0.0,0.0,0.0,0.0,0.0,0.0,0.0,0.0,0.0,0.0,0.0,0.0,0.0,0.0,0.0,0.0,0.0,0.0,0.0,0.0,0.0,0.0,0.0,0.0,0.0,0.0,0.0,0.0,0.0,0.0,2.6919,2.8263,2.8612,2.9699,3.0947,3.1461,3.0893,3.0085,2.9894,2.7773,2.5136,2.3295,2.1385,1.989,1.9219,1.843,1.8106,1.9217,1.9743,2.0318,2.1554,2.3045,2.4716,2.668,0.0,2.8641,2.9673,2.9195,2.8516,2.8008,2.747,2.7049,2.677,2.7269,2.7715,2.8069,2.803,2.764,2.6847,2.6994,2.6733,2.597,2.6118,2.6314,2.6504,2.6435,2.6538,2.6909,2.6973,2.7166,2.7386,2.7465,2.7569,2.7701,2.7853,2.7996,2.8146,2.8335,2.8562,2.8761,2.8952,2.8993,2.899,2.9061,2.8479,2.7687,0.0,0.0,0.0,0.0,0.0,0.0,0.0,0.0,0.0,0.0,1.7673,1.7865,0.0,0.0,0.0,0.0,0.0,0.0,0.0,0.0,0.0,0.0,0.0,0.0,0.0,0.0,0.0,0.0,0.0,0.0,0.0,0.0,0.0,0.0,0.0,0.0,0.0,0.0,0.0,0.0,0.0,0.0,0.0,0.0,0.0,0.0,0.0,0.0,0.0,0.0,2.6675,2.806,2.8539,2.9668,3.0955,3.1477,3.1187,3.0429,2.9452,2.7358,2.5057,2.2967,2.1546,2.0428,1.9441,1.9071,0.0,0.0,1.9653,2.0177,2.0661,2.2413,2.4338,2.5981,2.7256,2.8504,2.9776,2.8792,2.7846,0.0,2.6946,2.6465,2.6525,2.7034,2.727,2.6995,2.7145,2.7313,2.7364,2.751,2.7006,2.5728,2.5738,2.5885,2.6026,2.6154,2.6295,2.6435,2.6589,2.6725,2.6775,2.6925,2.7072,2.7152,2.7404,2.76,2.7789,2.8007,2.8246,2.8484,2.8587,2.827,2.7812,2.7862,2.7328,2.6585,0.0,0.0,0.0,0.0,0.0,0.0,0.0,1.7951,1.7789,1.7716,1.7629,1.7817,1.8576,1.9136,0.0,0.0,0.0,0.0,0.0,0.0,0.0,0.0,0.0,0.0,0.0,0.0,0.0,0.0,0.0,0.0,0.0,0.0,0.0,0.0,0.0,0.0,0.0,0.0,0.0,0.0,0.0,0.0,0.0,0.0,0.0,0.0,0.0,0.0,0.0,0.0,2.5465,2.6325,2.7601,2.8777,2.9869,3.0165,3.0062,2.951,2.8657,2.7028,2.5031,2.2978,2.1729,2.0747,1.9722,0.0,0.0,0.0,2.0184,2.0613,2.07,2.1977,0.0,2.4681,2.5474,2.6559,2.8412,2.7283,2.6566,2.7322,2.6455,2.5906,2.6136,2.6669,2.6953,2.6846,2.7229,2.7149,2.6519,2.6275,2.5927,2.5355,2.5362,2.5476,2.5659,2.5717,2.5901,2.6082,2.617,2.6312,2.6435,2.6555,2.6657,2.6792,2.7006,2.7227,2.7487,2.7659,2.7922,2.8183,2.8192,2.778,2.7209,2.7265,2.6483,2.5386,0.0,0.0,0.0,0.0,0.0,0.0,0.0,1.7878,1.7797,1.7473,1.7546,1.7814,1.8224,1.8717,1.9307,0.0,0.0,0.0,0.0,0.0,0.0,0.0,0.0,0.0,0.0,0.0,0.0,0.0,0.0,0.0,0.0,0.0,0.0,0.0,0.0,0.0,0.0,0.0,0.0,0.0,0.0,0.0,0.0,0.0,0.0,0.0,0.0,0.0,0.0,0.0,2.411,2.4436,2.5906,2.7174,2.8155,2.8521,2.8588,2.8361,2.7943,2.6634,2.4978,2.3168,2.1997,2.108,2.0033,1.9864,0.0,2.0232,2.0555,2.0881,2.098,2.1551,2.2247,0.0,2.3687,2.4684,2.6845,2.5936,2.5631,0.0,2.6057,0.0,2.5784,2.6258,2.663,2.6841,2.7223,2.6907,2.5685,2.5212,2.4963,2.4989,2.4989,2.5091,2.5278,2.5301,2.5454,2.5733,2.5807,2.5954,2.6154,2.6189,2.633,2.6504,2.6657,2.6906,2.7178,2.7324,2.7569,2.7811,2.7783,2.7353,2.6747,2.6606,2.564,2.4378,0.0,0.0,0.0,0.0,0.0,0.0,0.0,1.7627,1.7619,1.7392,1.7392,1.7516,1.7679,1.8619,1.9587,0.0,0.0,0.0,0.0,0.0,0.0,0.0,0.0,0.0,0.0,0.0,0.0,0.0,0.0,0.0,0.0,0.0,0.0,0.0,0.0,0.0,0.0,0.0,0.0,0.0,0.0,0.0,0.0,0.0,0.0,0.0,0.0,0.0,0.0,0.0,0.0,2.3114,2.3303,2.4598,2.6214,2.6818,0.0,0.0,2.7437,2.6308,2.4914,2.375,2.2532,2.1409,2.0421,0.0,2.0249,2.0283,2.0292,2.0459,2.0721,2.0857,2.1306,2.2267,0.0,2.4397,2.5975,2.5752,2.5709,2.6478,0.0,0.0,2.5494,2.5798,2.6096,2.6336,2.6272,2.6206,2.6031,2.5654,2.5175,2.4554,2.4589,2.4726,2.4862,2.5045,2.513,2.5185,2.5492,2.5659,2.5675,2.5844,2.6043,2.6239,2.6365,2.6556,2.6758,2.6957,2.7152,2.7258,2.7276,2.684,2.6172,2.5455,2.4646,2.3875,0.0,0.0,0.0,0.0,0.0,0.0,1.7392,1.7664,1.7796,1.7796,1.7903,1.8102,1.8156,1.8879,1.9401,0.0,0.0,0.0,0.0,0.0,0.0,0.0,0.0,0.0,0.0,0.0,0.0,2.4324,2.2703,0.0,0.0,0.0,0.0,0.0,0.0,0.0,0.0,0.0,0.0,0.0,0.0,0.0,0.0,0.0,0.0,0.0,0.0,0.0,0.0,0.0,0.0,0.0,2.2337,2.2753,0.0,0.0,2.5497,2.5977,2.6147,2.5498,2.4498,2.3531,2.2501,2.1463,2.0473,0.0,2.0019,2.0019,2.0292,2.0532,2.0588,2.0657,2.0978,0.0,0.0,0.0,2.4241,2.4315,2.4657,2.6205,2.602,2.5824,2.6018,2.6623,2.6947,2.6911,2.6736,2.6453,2.5938,2.5379,2.4811,2.4276,2.4343,2.4482,2.462,2.4766,2.4831,2.4926,2.5162,2.5278,2.5301,2.547,2.5584,2.5733,2.5885,2.612,2.635,2.6556,2.6674,2.6791,2.6808,2.635,2.5622,2.5317,2.4435,2.3379,0.0,0.0,0.0,0.0,0.0,1.7424,1.7409,1.7703,1.7924,1.7916,1.8222,1.8514,1.8543,1.9037,1.9338,1.916,0.0,0.0,0.0,0.0,0.0,0.0,0.0,0.0,0.0,0.0,2.4988,2.3392,2.1852,2.0362,0.0,0.0,1.5866,1.5056,0.0,0.0,0.0,0.0,0.0,0.0,0.0,0.0,0.0,0.0,0.0,0.0,0.0,0.0,0.0,0.0,0.0,0.0,0.0,0.0,0.0,0.0,2.4064,2.4573,2.5105,2.484,2.4241,2.3464,2.2422,2.1463,0.0,0.0,1.9837,1.9845,2.0116,2.0366,2.0323,2.0434,2.0613,0.0,0.0,2.1758,2.3379,2.3727,2.442,2.6167,0.0,2.6317,2.6579,2.7139,2.7314,2.6985,2.6905,2.6556,2.5763,2.5353,2.4957,2.4487,2.4587,2.4716,2.4774,2.4702,2.4678,2.4834,2.482,2.4831,2.495,2.5084,2.524,2.5394,2.553,2.5721,2.5961,2.612,2.621,2.6264,2.6332,2.5846,2.5095,2.4862,2.4016,2.2903,0.0,0.0,0.0,0.0,0.0,0.0,0.0,1.7728,1.804,1.7858,1.811,1.8518,1.8637,1.9115,1.9462,1.9638,0.0,0.0,0.0,0.0,0.0,0.0,0.0,0.0,0.0,0.0,2.3734,2.2997,2.1076,1.9523,1.842,1.7005,1.5903,1.5089,0.0,0.0,0.0,0.0,0.0,0.0,0.0,0.0,0.0,0.0,0.0,0.0,0.0,0.0,0.0,0.0,0.0,0.0,0.0,0.0,0.0,0.0,2.3171,2.3887,2.4413,2.4327,2.4079,2.358,2.2618,2.1463,0.0,0.0,1.9845,1.9679,1.965,1.9799,2.0086,2.0034,1.9968,2.0263,0.0,0.0,2.3694,2.4624,2.5526,0.0,2.6264,2.6254,2.695,2.7,2.6735,2.6167,2.6365,2.6251,2.5646,2.5843,2.5786,2.5408,2.5461,2.5478,2.5478,2.4942,2.4761,2.4909,2.4499,2.4426,2.4589,2.4726,2.4982,2.5294,2.5294,2.5432,2.5605,2.5663,2.5701,2.5701,2.5701,2.5314,2.4629,2.3911,2.3144,2.2443,0.0,0.0,0.0,0.0,0.0,0.0,0.0,1.8002,1.8314,1.8419,1.871,1.8979,1.8953,1.9429,1.955,1.9141,0.0,0.0,0.0,0.0,0.0,0.0,0.0,0.0,0.0,0.0,2.3767,2.2401,2.1506,2.0144,1.845,1.7531,1.6691,1.5594,1.5325,0.0,0.0,0.0,0.0,0.0,0.0,0.0,0.0,0.0,0.0,0.0,0.0,0.0,0.0,0.0,0.0,0.0,0.0,0.0,0.0,0.0,0.0,0.0,2.3125,2.3309,2.3232,2.3067,2.2274,2.1293,2.0645,2.0192,1.9845,1.9679,2.0116,2.0527,2.013,2.0662,2.1244,2.1409,0.0,0.0,0.0,0.0,0.0,2.6906,2.748,2.8005,2.8412,2.7769,2.7183,2.6762,2.6691,2.652,2.6107,2.637,2.6134,2.5295,2.5379,2.5426,2.5426,2.5329,2.5077,2.4702,2.4609,2.445,2.4177,2.4302,2.4467,2.4742,2.4806,2.4926,2.5084,2.5208,2.5246,2.5176,2.4831,2.4457,2.4058,2.3355,2.2617,2.1927,0.0,0.0,0.0,0.0,0.0,0.0,0.0,1.819,1.851,1.8872,1.9058,1.9198,1.9257,1.9612,1.9743,1.9289,0.0,0.0,0.0,0.0,0.0,0.0,0.0,0.0,0.0,2.4809,2.4017,2.2321,2.1742,2.0506,1.8854,1.8009,1.7207,1.6328,1.594,1.5518,0.0,0.0,0.0,0.0,0.0,0.0,1.7306,0.0,0.0,0.0,0.0,0.0,0.0,0.0,0.0,0.0,0.0,0.0,0.0,0.0,0.0,0.0,0.0,2.2627,2.2803,2.2706,2.2097,0.0,0.0,2.0283,2.0027,1.9845,2.0329,2.0665,2.0519,2.11,2.172,2.2143,2.2832,0.0,0.0,0.0,0.0,2.7776,2.8524,2.8975,2.9095,2.834,2.7637,2.7227,2.6967,2.6674,2.6379,2.6659,2.6468,2.5804,2.5888,2.5938,2.5938,2.5707,2.5331,2.4771,2.4581,2.4253,2.3812,2.3867,2.4036,2.4234,2.4302,2.4385,0.0,2.4655,2.4751,2.4719,2.4382,2.3997,2.353,2.2842,2.2082,2.1372,0.0,0.0,0.0,0.0,0.0,0.0,0.0,0.0,0.0,1.9096,1.9196,1.9288,1.9587,1.9754,1.9928,1.9837,0.0,0.0,0.0,0.0,0.0,0.0,0.0,0.0,2.4496,2.4793,2.4245,2.2797,2.1782,2.0676,1.966,1.8401,1.7616,1.7022,1.6517,1.6103,0.0,0.0,0.0,0.0,0.0,0.0,0.0,0.0,0.0,0.0,0.0,0.0,0.0,0.0,0.0,0.0,0.0,0.0,0.0,0.0,0.0,0.0,0.0,2.2362,2.2706,2.2441,2.2087,2.1553,2.0925,2.0564,0.0,2.0348,2.0464,2.0689,2.1144,2.1322,2.1675,2.2558,2.3547,0.0,0.0,2.6739,2.7858,2.9022,2.9296,2.9321,2.9123,2.8684,2.8181,2.7547,2.7089,2.6712,2.651,2.6712,2.6779,2.6779,2.6779,2.6779,2.6779,2.617,2.5567,2.498,2.4461,2.3998,2.3466,2.3538,2.3653,2.3797,2.3797,2.3867,2.4078,2.4063,2.4162,2.4261,2.4256,2.3728,2.2958,2.2286,2.1523,2.0743,0.0,0.0,0.0,0.0,0.0,0.0,0.0,0.0,0.0,0.0,1.9387,1.9487,1.9587,1.9754,1.9845,0.0,0.0,0.0,0.0,0.0,0.0,0.0,0.0,0.0,2.55,2.5102,2.4384,2.3493,2.2322,2.1387,2.0452,1.9283,1.8376,1.7779,1.7101,1.6588,0.0,0.0,0.0,0.0,0.0,0.0,0.0,0.0,0.0,0.0,1.89,1.9225,0.0,0.0,0.0,0.0,0.0,0.0,0.0,0.0,2.0127,0.0,2.1392,0.0,2.2362,2.2618,2.2185,2.1642,0.0,0.0,0.0,2.0616,2.1176,2.1765,2.2329,2.2631,2.3275,2.4594,2.5135,2.5786,2.6909,2.8186,2.9142,2.9457,3.0069,3.0187,2.9565,2.9086,2.8446,2.7547,2.7142,2.6817,2.651,2.6765,2.6899,2.6779,2.6779,2.6779,2.6779,2.662,2.5981,2.4834,2.4723,2.4163,2.3216,2.3201,2.3334,2.3553,2.3553,2.3625,2.3724,2.3824,2.3967,2.4048,2.3667,2.3093,2.2301,2.1598,2.078,2.0044,0.0,0.0,0.0,0.0,0.0,0.0,0.0,0.0,0.0,0.0,0.0,0.0,0.0,0.0,0.0,0.0,0.0,0.0,0.0,0.0,0.0,0.0,0.0,2.6036,2.5655,2.5268,2.4632,2.3855,2.2703,2.1648,2.0564,1.9628,1.8809,1.8048,1.7789,1.7434,0.0,0.0,0.0,0.0,1.735,0.0,0.0,0.0,0.0,0.0,1.9072,1.9426,0.0,2.0029,2.0171,2.0281,0.0,0.0,0.0,0.0,2.0382,2.1006,2.1642,2.2422,2.3096,2.3367,2.3096,2.2736,2.2629,0.0,0.0,2.1318,2.1813,2.2524,2.2995,2.3578,2.4487,2.5743,2.6238,2.6963,2.8363,2.9421,3.0122,3.0469,3.0822,3.0911,3.0484,2.9923,2.9219,2.8408,2.7832,2.7413,2.7171,2.7292,2.7453,2.7527,2.7321,2.7084,2.6779,2.6779,2.6141,2.4863,2.4785,2.4167,2.2992,2.2992,2.3082,2.3201,2.3201,2.329,2.3363,2.3538,2.3668,2.3739,2.3516,2.2985,2.2254,2.1521,2.0783,2.0035,0.0,0.0,0.0,0.0,0.0,0.0,0.0,0.0,0.0,0.0,0.0,0.0,0.0,0.0,0.0,0.0,0.0,0.0,0.0,0.0,0.0,0.0,0.0,2.6076,2.5707,2.5368,2.4955,2.4302,2.3063,2.1859,2.0738,1.9987,1.9171,1.8272,1.8542,1.8357,0.0,0.0,1.7893,1.7792,1.7766,0.0,0.0,0.0,0.0,0.0,0.0,0.0,0.0,2.0076,2.034,2.0666,2.0456,0.0,0.0,0.0,0.0,0.0,2.2325,2.3511,2.4416,2.418,2.4265,2.4245,2.3821,0.0,0.0,0.0,2.2585,2.3107,2.3818,2.469,2.5618,2.6719,2.7314,2.8193,2.9813,3.045,3.094,3.1552,3.1509,3.1452,3.1537,3.0798,3.0131,2.9481,2.8818,2.8287,2.8057,2.7969,2.805,2.8281,2.7801,2.7331,2.6779,2.6779,2.6184,2.4988,2.4945,2.4231,2.3033,2.3033,2.2989,2.2888,2.2888,2.2947,2.3082,2.3246,2.3363,2.3509,2.361,2.3118,2.2319,2.1754,2.0991,2.0188,0.0,0.0,0.0,0.0,0.0,0.0,0.0,0.0,0.0,0.0,0.0,0.0,0.0,0.0,0.0,0.0,0.0,0.0,0.0,0.0,0.0,0.0,2.5926,2.6519,2.6636,2.614,2.5754,2.5462,2.3965,2.2775,2.2034,2.0902,1.9911,1.9004,1.9096,1.8912,1.8643,1.8643,1.8542,1.8442,1.8756,0.0,0.0,0.0,0.0,0.0,0.0,0.0,0.0,2.0471,2.0651,2.0747,2.0639,0.0,0.0,0.0,0.0,0.0,2.3144,2.4735,2.5753,2.4723,2.4904,2.5041,2.4232,0.0,0.0,0.0,0.0,0.0,0.0,2.6463,2.7246,2.8597,2.9289,3.0061,3.0852,3.1407,3.1766,3.2079,3.2079,3.1966,3.1667,3.0983,3.0451,3.0164,2.9555,2.9074,2.877,2.838,2.8037,2.7813,2.7258,2.6881,2.6779,2.6645,2.6165,2.5473,2.5371,2.4683,2.3605,2.3605,2.3302,2.2888,2.2888,2.2902,2.2933,2.3187,2.3363,2.3509,2.3711,2.296,2.1824,2.1695,2.0863,1.9708,0.0,0.0,0.0,0.0,0.0,0.0,0.0,0.0,0.0,0.0,0.0,0.0,0.0,0.0,0.0,0.0,0.0,0.0,0.0,0.0,0.0,2.5179,2.625,2.683,2.699,2.6529,2.6282,2.6168,2.4939,2.3849,2.2688,2.1167,2.0102,1.9563,1.9563,1.9563,1.9563,1.9371,1.9279,1.9263,0.0,0.0,0.0,0.0,0.0,0.0,0.0,0.0,0.0,0.0,2.1429,2.166,2.1498,0.0,0.0,0.0,0.0,0.0,2.3444,2.5115,2.6367,2.6141,2.6493,2.6782,2.6381,2.5352,2.4614,0.0,0.0,0.0,0.0,2.7762,2.8716,3.0303,3.0969,3.1504,3.1905,3.2256,3.2547,3.2648,3.2703,3.2523,3.2247,3.1789,3.1304,3.0734,3.0363,3.0018,2.9684,2.9134,2.8777,2.8739,2.785,2.7326,2.718,2.6751,2.626,2.5705,2.5654,2.5164,2.4303,2.4317,2.4221,2.3978,2.3661,2.3547,2.3518,2.3437,2.3466,2.348,2.3293,2.2559,2.1496,2.0833,2.0117,1.9501,0.0,0.0,0.0,0.0,0.0,0.0,0.0,0.0,0.0,0.0,0.0,0.0,0.0,0.0,0.0,0.0,0.0,0.0,0.0,0.0,2.409,2.5326,2.6351,2.7178,2.7679,2.7107,2.6835,2.6978,2.5923,2.4721,2.334,2.1491,2.0603,2.0503,2.0235,2.0292,2.0564,2.0102,2.0002,1.9994,0.0,0.0,0.0,0.0,0.0,0.0,0.0,0.0,0.0,0.0,0.0,0.0,0.0,0.0,0.0,2.2274,2.2618,2.3232,2.3993,2.5484,2.6883,2.7787,2.8096,2.8221,2.8424,2.7115,2.5973,2.6406,2.6425,2.668,2.788,2.9024,3.0303,3.1777,3.2351,3.2625,3.2819,3.3033,3.3272,3.353,3.3297,3.3105,3.303,3.2655,3.2127,3.1363,3.1207,3.0985,3.0592,2.9982,2.9551,2.9435,2.8455,2.7798,2.7342,2.6891,2.6385,2.5944,2.5908,2.5575,2.4968,2.5046,2.4901,2.4631,2.4218,2.3958,2.3814,2.3541,2.3466,2.3421,2.3059,2.2274,2.1252,1.9952,1.9391,1.9376,0.0,0.0,0.0,0.0,0.0,0.0,0.0,0.0,0.0,0.0,0.0,0.0,0.0,0.0,0.0,0.0,0.0,0.0,0.0,0.0,2.3927,2.4946,2.6218,2.7614,2.9116,2.8174,2.7988,2.8527,2.6752,2.5221,2.4068,2.2555,2.2007,2.2154,2.1338,2.1096,2.1302,2.1006,2.0727,2.0546,2.0529,0.0,0.0,0.0,0.0,0.0,0.0,0.0,0.0,0.0,0.0,0.0,0.0,0.0,2.3329,2.2891,2.3232,2.4003,2.5326,2.6472,2.7683,2.9135,2.8932,2.8523,2.9494,2.851,2.7677,2.8515,2.8332,2.8271,2.903,3.0555,3.1962,3.2772,3.3193,3.3435,3.3591,3.3642,3.395,3.4764,3.39,3.3561,3.4209,3.3263,3.2532,3.2321,3.217,3.189,3.142,3.0836,3.0041,2.8949,2.8439,2.7753,2.6852,2.6913,2.6803,2.6438,2.6308,2.5993,2.5545,2.556,2.4947,2.3963,2.3905,2.3557,2.3006,2.3201,2.3319,2.3319,2.3406,2.2507,2.0983,1.9571,1.9093,1.9139,0.0,0.0,0.0,0.0,0.0,0.0,0.0,0.0,0.0,0.0,0.0,0.0,0.0,0.0,0.0,0.0,0.0,0.0,0.0,0.0,2.3917,2.4765,2.5863,2.7096,2.8432,2.8348,2.8262,2.8383,2.6836,2.5624,2.4632,2.3319,2.2472,2.1942,2.1446,2.1472,2.1839,2.1553,2.1365,2.1275,2.1006,2.1015,0.0,0.0,0.0,0.0,0.0,0.0,0.0,0.0,2.3027,2.3179,0.0,0.0,2.3667,2.3493,2.3841,2.4444,2.5348,2.6919,2.8567,2.9666,3.0277,3.0699,3.101,2.9984,2.9261,3.0319,3.0023,2.9893,3.0763,3.1972,3.2986,3.3491,3.4304,3.4771,3.4266,3.459,3.4929,3.5101,3.4736,3.4478,3.4536,3.4423,3.3865,3.2703,3.2854,3.2706,3.1981,3.1177,3.0293,2.9362,2.8655,2.7845,2.6951,2.6951,2.6884,2.6712,2.6659,2.6544,2.6364,2.6364,2.5937,2.5199,2.4757,2.425,2.3714,2.3393,2.3319,2.3187,2.2363,2.1345,2.0229,1.931,1.8965,1.8936,0.0,0.0,0.0,0.0,0.0,0.0,0.0,0.0,0.0,0.0,0.0,0.0,0.0,0.0,0.0,0.0,0.0,0.0,2.3148,2.3379,2.3831,2.4669,2.56,2.659,2.769,2.8127,2.8426,2.8585,2.7394,2.6494,2.5764,2.4295,2.3367,2.2811,2.203,2.2008,2.2539,2.2087,2.1998,2.1998,2.1454,2.1374,0.0,0.0,0.0,0.0,0.0,0.0,0.0,0.0,2.3406,0.0,0.0,0.0,0.0,0.0,2.469,2.5359,2.5935,2.7648,2.9424,3.0316,3.1388,3.2461,3.3116,3.2075,3.1195,3.2064,3.1634,3.1347,3.2155,3.2902,3.3563,3.4084,3.5103,3.5663,3.5119,3.5416,3.5758,3.6062,3.5616,3.5295,3.5428,3.5553,3.5078,3.3701,3.3668,3.345,3.2962,3.184,3.088,3.0263,2.9441,2.8571,2.7603,2.7535,2.7326,2.7031,2.7084,2.6968,2.6779,2.6779,2.6468,2.59,2.5238,2.463,2.4051,2.3466,2.3113,2.2775,2.1467,2.0491,1.9738,1.9147,1.8851,1.8822,0.0,0.0,0.0,0.0,0.0,0.0,0.0,0.0,0.0,0.0,0.0,0.0,0.0,0.0,0.0,0.0,0.0,0.0,2.3367,2.3477,2.3841,2.4509,2.5432,2.6279,2.7196,2.765,2.8398,2.9397,2.8654,2.8094,2.7661,2.5696,2.4935,2.5088,2.3248,2.2794,2.3416,2.2706,2.253,2.2715,2.1998,2.1741,2.1741,0.0,0.0,0.0,0.0,0.0,0.0,0.0,2.3861,0.0,0.0,0.0,0.0,0.0,2.5924,2.6894,2.7395,2.873,3.0279,3.1409,3.2305,3.3493,3.5953,3.4988,3.3591,3.3774,3.3036,3.2485,3.3077,3.3339,3.3716,3.4578,3.5447,3.6073,3.6204,3.5992,3.6372,3.7821,3.6495,3.5909,3.7199,3.6551,3.5892,3.545,3.462,3.4248,3.4488,3.2898,3.1898,3.1597,3.0768,2.9873,2.8931,2.8679,2.8192,2.7504,2.7614,2.7389,2.6779,2.6779,2.6416,2.5749,2.5154,2.45,2.3833,2.33,2.2659,2.1931,2.1026,2.0229,1.9523,1.8899,1.8736,1.8822,0.0,0.0,0.0,0.0,0.0,0.0,0.0,0.0,0.0,0.0,0.0,0.0,0.0,0.0,0.0,0.0,0.0,0.0,2.4051,2.4104,2.4533,2.5173,2.5444,2.619,2.7323,2.8436,2.9114,2.9421,2.8688,2.8043,2.7412,2.5952,2.4948,2.4213,2.3602,2.3406,2.3503,2.3406,2.3319,2.3242,2.3057,2.3065,2.3147,0.0,0.0,0.0,0.0,0.0,0.0,0.0,0.0,0.0,0.0,0.0,0.0,2.5274,2.6163,2.7383,2.7775,2.9566,3.1621,3.2667,3.4442,3.6013,3.6876,3.5959,3.4968,3.5101,3.4406,3.3871,3.412,3.4431,3.4752,3.4991,3.6374,3.7172,3.6541,3.7315,3.7987,3.8129,3.7678,3.737,3.746,3.7478,3.6974,3.5776,3.5616,3.5363,3.4809,3.3556,3.2524,3.1898,3.0824,2.9873,2.9042,2.8353,2.7828,2.7489,2.7083,2.6833,2.6779,2.6989,2.6461,2.5389,2.5131,2.4476,2.3436,2.2761,2.2294,2.1888,2.0647,1.9938,1.9615,1.8988,1.8784,1.8822,0.0,0.0,0.0,0.0,0.0,0.0,0.0,0.0,0.0,0.0,0.0,0.0,0.0,0.0,0.0,0.0,0.0,0.0,0.0,2.4884,2.5137,2.5774,2.5964,2.6628,2.7919,2.8912,2.9549,2.9824,2.9392,2.8842,2.8011,2.6822,2.5738,2.4788,2.4605,2.4426,2.4196,2.437,2.4176,2.3851,2.359,2.3673,2.3978,0.0,0.0,0.0,0.0,0.0,0.0,0.0,0.0,0.0,0.0,0.0,0.0,2.6239,2.7136,2.8164,2.9086,3.0913,3.2961,3.4266,3.5998,3.7671,3.8477,3.7333,3.609,3.6169,3.5454,3.4891,3.5094,3.5266,3.5475,3.5886,3.7119,3.7976,3.7621,3.8316,3.8841,3.882,3.8552,3.833,3.8224,3.8362,3.7987,3.6798,3.6499,3.6227,3.5837,3.4207,3.3196,3.2886,3.1462,3.0448,2.9894,2.8881,2.8221,2.7864,2.727,2.6891,2.6712,2.6922,2.6505,2.5575,2.5011,2.4156,2.3143,2.2439,2.193,2.1496,2.0344,1.9703,1.9391,1.9042,1.8898,1.8907,0.0,0.0,0.0,0.0,0.0,0.0,0.0,0.0,0.0,0.0,0.0,0.0,0.0,0.0,0.0,0.0,0.0,0.0,0.0,0.0,2.5867,2.6382,2.6911,2.7679,2.8769,2.9246,2.9859,3.0593,3.0519,3.0039,2.9181,2.7965,2.6988,2.6314,2.5902,2.5582,2.5349,2.5448,2.519,2.4602,2.3988,2.4065,2.4336,2.4336,0.0,0.0,0.0,0.0,0.0,0.0,0.0,0.0,2.6209,2.6215,2.6345,2.7721,2.8466,2.916,3.0719,3.2423,3.4129,3.5889,3.7282,3.8668,4.0426,3.8906,3.7154,3.7182,3.6321,3.5698,3.595,3.5837,3.6004,3.6994,3.7763,3.844,3.8967,3.9156,3.9395,3.9798,3.9259,3.9039,3.9375,3.9193,3.8815,3.8173,3.7326,3.6901,3.7222,3.4907,3.3771,3.4178,3.2315,3.1234,3.1087,2.9943,2.9131,2.8482,2.7917,2.7267,2.651,2.6765,2.6608,2.6046,2.4793,2.3789,2.3083,2.2294,2.1598,2.093,2.0215,1.9541,1.9031,1.9078,1.9101,1.9014,0.0,0.0,0.0,0.0,0.0,0.0,0.0,0.0,0.0,0.0,0.0,0.0,0.0,0.0,0.0,0.0,0.0,0.0,0.0,0.0,2.6403,2.7327,2.8348,2.9083,2.9332,3.0167,3.0779,3.114,3.0363,2.9903,2.9723,2.8042,2.7381,2.7687,2.7028,2.6661,2.6659,2.6844,2.653,2.5947,2.5926,2.5893,2.5728,2.5728,2.6167,0.0,0.0,0.0,0.0,0.0,0.0,0.0,2.6604,2.7173,2.7689,2.7334,2.8492,3.0007,3.0722,3.2354,3.4376,3.6745,3.8994,4.0671,4.0797,3.9831,3.8916,3.8668,3.7463,3.6444,3.6502,3.6502,3.6703,3.7532,3.8226,3.887,3.9473,4.0414,4.0985,4.0898,4.104,4.0925,4.0237,3.9785,3.9202,3.8424,3.779,3.7408,3.7238,3.5459,3.4306,3.403,3.2272,3.1234,3.1087,2.9943,2.9131,2.8482,2.7862,2.7281,2.6765,2.7093,2.6648,2.5527,2.4663,2.3894,2.3187,2.2468,2.1781,2.1067,2.0335,1.9657,1.9078,1.9055,1.904,1.9124,0.0,0.0,0.0,0.0,0.0,0.0,0.0,0.0,0.0,0.0,0.0,0.0,0.0,0.0,0.0,0.0,0.0,0.0,0.0,0.0,0.0,2.8279,2.8976,2.9489,3.0016,3.0496,3.108,3.1673,3.0867,3.0517,3.0521,2.9581,2.9092,2.9044,2.8614,2.8268,2.8018,2.8077,2.7635,2.6944,2.702,2.7064,2.7106,2.7106,2.7471,2.8006,2.8006,0.0,0.0,0.0,0.0,0.0,0.0,0.0,2.8256,2.8418,2.9058,2.9967,3.125,3.2846,3.4922,3.8075,4.0263,4.1595,4.1564,4.0588,3.9673,3.9494,3.8058,3.6829,3.6829,3.6806,3.7132,3.8231,3.8643,3.9143,4.0158,4.1026,4.1512,4.1307,4.1704,4.1753,4.1166,4.0364,3.9609,3.8999,3.8242,3.7626,3.7238,3.5599,3.4503,3.4089,3.2315,3.1278,3.1087,3.0134,2.9305,2.861,2.7917,2.735,2.687,2.6533,2.5918,2.5066,2.4218,2.3614,2.3128,2.2131,2.1503,2.1108,2.0118,1.9482,1.9191,1.9205,1.8987,1.8738,0.0,0.0,0.0,0.0,0.0,0.0,0.0,0.0,0.0,0.0,0.0,0.0,0.0,0.0,0.0,0.0,0.0,0.0,0.0,0.0,0.0,0.0,2.9184,2.9701,3.0656,3.0726,3.1153,3.2038,3.165,3.1516,3.1699,3.1393,3.0907,3.0411,3.0206,2.9823,2.9421,2.9235,2.8767,2.8042,2.7943,2.7999,2.8132,2.8132,2.8285,2.8536,2.8536,0.0,2.8789,2.8789,0.0,0.0,0.0,0.0,2.8794,2.9729,2.9794,2.9858,3.1785,3.3564,3.567,3.9051,4.0897,4.1917,4.2246,4.1131,3.9985,3.9971,3.8386,3.7009,3.7009,3.6908,3.7318,3.8856,3.8947,3.9378,4.0901,4.1538,4.1852,4.1818,4.2236,4.2387,4.2122,4.1117,4.0205,3.9534,3.8563,3.7812,3.7254,3.5599,3.4503,3.4208,3.2417,3.1394,3.1132,3.0308,2.9491,2.8666,2.7857,2.7287,2.6855,2.5663,2.5014,2.4825,2.3934,2.3348,2.2834,2.1796,2.1184,2.0907,1.985,1.9332,1.9141,1.9178,1.8823,1.8209,0.0,0.0,0.0,0.0,0.0,0.0,0.0,0.0,0.0,0.0,0.0,0.0,0.0,0.0,0.0,0.0,0.0,0.0,0.0,0.0,0.0,0.0,2.9532,3.017,3.0847,3.1057,3.1601,3.2313,3.2476,3.2771,3.3331,3.1701,3.1209,3.1758,3.1036,3.0735,3.066,3.0652,3.0295,2.9531,2.9706,2.9218,2.8307,2.8307,2.8184,2.7998,2.7998,2.8555,2.9294,2.9294,2.9713,0.0,0.0,0.0,3.04,3.0015,3.0217,3.0749,3.141,0.0,3.6952,0.0,4.021,4.1666,4.2187,4.1131,4.0107,4.0583,3.8757,3.7069,3.7009,3.6987,3.7439,3.8856,3.8972,3.9624,4.1752,4.2442,4.2912,4.3492,4.3939,4.3794,4.2756,4.2286,4.1287,3.9509,3.8921,3.8185,3.7285,3.5481,3.4342,3.4045,3.2359,3.1437,3.1292,3.0366,2.9491,2.8666,2.7324,2.6558,2.6351,2.5243,2.4898,2.5143,2.4742,2.3737,2.2293,2.2017,2.1262,2.0258,2.0118,1.9411,1.8431,1.8431,1.814,1.7667,0.0,0.0,0.0,0.0,0.0,0.0,0.0,0.0,0.0,0.0,0.0,0.0,0.0,0.0,0.0,0.0,0.0,0.0,0.0,0.0,0.0,0.0,3.0057,3.0589,3.1128,3.1484,3.2025,3.255,3.2636,3.3133,3.404,3.3445,3.3445,3.3977,3.3158,3.2835,3.2769,3.1769,3.1075,3.0685,3.0773,3.056,3.0134,3.03,3.0301,3.023,3.0214,3.0371,3.0685,3.0685,3.0927,3.1217,3.1128,0.0,0.0,0.0,3.0834,3.1052,3.2137,3.4229,3.6503,0.0,3.9679,4.0856,4.1059,4.0772,4.025,3.9441,3.8425,3.7782,3.8099,3.7446,3.7452,3.9364,3.9199,3.9586,4.1795,4.2498,4.3031,4.3659,4.4079,4.4004,4.3398,4.2532,4.1608,4.0538,3.9285,3.8288,3.7668,3.5639,3.4401,3.4149,3.2506,3.1524,3.1278,3.0467,2.9358,2.8129,2.7147,2.6592,2.639,2.5515,2.4934,2.4601,2.3548,2.2669,2.1931,2.122,2.0637,2.0079,1.9388,1.8833,1.8311,1.8062,1.7614,1.7161,0.0,0.0,0.0,0.0,0.0,0.0,0.0,0.0,0.0,0.0,0.0,0.0,0.0,0.0,0.0,0.0,0.0,0.0,0.0,0.0,0.0,0.0,0.0,3.0847,3.1472,3.1849,3.23,3.2797,3.2797,3.3357,3.4436,3.4844,3.5424,3.6053,3.4969,3.4395,3.3982,3.2598,3.1989,3.1813,3.1756,3.1773,3.1785,3.1988,3.1989,0.0,0.0,3.1883,3.1871,3.1845,3.1991,3.2101,3.2089,3.2101,0.0,0.0,0.0,3.1272,3.2275,0.0,3.5228,3.6774,3.8274,3.9429,0.0,3.9643,3.9581,3.83,3.7694,3.7704,3.8651,3.7808,3.7607,3.9477,3.9326,3.979,4.1926,4.2517,4.296,4.3736,4.4069,4.408,4.3713,4.2818,4.1878,4.1077,3.9593,3.8495,3.7748,3.5641,3.4342,3.4149,3.2637,3.167,3.1278,3.029,2.8949,2.7407,2.6891,2.652,2.616,2.544,2.471,2.39,2.2712,2.206,2.1773,2.0703,2.0219,2.006,1.8797,1.8218,1.8052,1.7584,1.701,1.6488,0.0,0.0,0.0,0.0,0.0,0.0,0.0,0.0,0.0,0.0,0.0,0.0,0.0,0.0,3.1817,3.0902,0.0,0.0,0.0,0.0,0.0,0.0,0.0,0.0,3.1901,3.2201,3.2649,3.3081,3.3081,3.3703,3.4844,3.4917,3.5904,3.7375,3.5923,3.4606,3.3436,3.3326,3.3313,3.3262,3.3014,3.2628,3.2236,3.22,3.1925,3.1527,3.1525,3.1874,3.2281,3.2268,3.2714,3.3313,3.3043,3.3129,3.3227,0.0,0.0,0.0,0.0,3.1928,0.0,3.3172,3.5282,3.7239,3.6967,3.728,3.7695,3.7793,3.6673,3.6118,3.7674,3.7833,3.7999,3.8764,3.9295,4.0427,4.2533,4.2775,4.3148,4.4321,4.4485,4.4219,4.3492,4.3339,4.2446,4.0328,3.9768,3.884,3.7124,3.5274,3.4149,3.3985,3.2594,3.167,3.1278,2.9635,2.8016,2.6568,2.6394,2.5973,2.527,2.466,2.4007,2.3334,2.3249,2.2772,2.1946,2.1109,2.0489,2.0011,1.8855,1.7939,1.7204,1.6743,1.6157,1.5566,0.0,0.0,0.0,0.0,0.0,0.0,0.0,0.0,0.0,0.0,0.0,0.0,0.0,3.3387,3.2955,3.2401,3.1808,0.0,0.0,0.0,0.0,0.0,0.0,0.0,0.0,3.2624,3.3257,3.4043,3.3857,3.4488,3.5839,3.5642,3.5752,3.6109,3.568,3.5384,3.5173,3.4218,3.3907,3.4011,3.3649,3.3542,3.3661,3.3887,3.3943,3.3993,3.4403,3.4419,3.4245,3.4212,3.4118,3.3979,3.381,3.3894,3.3979,3.3471,3.3202,3.2827,0.0,0.0,0.0,3.3297,3.4207,3.5093,3.4989,3.5674,3.6053,3.4917,3.4774,3.4857,3.4871,3.6014,3.7433,3.8853,3.9217,4.0078,4.2209,4.2462,4.2861,4.4068,4.4499,4.4304,4.3482,4.3493,4.2988,4.1517,4.0308,3.9204,3.8419,3.6214,3.4787,3.4164,3.2972,3.1597,2.9918,2.9166,2.8123,2.6712,2.6525,2.6103,2.5435,2.4755,2.4112,2.3502,2.2594,2.1856,2.1167,2.0587,2.0005,1.9333,1.8147,1.7505,1.7069,1.6197,1.5477,1.4987,0.0,0.0,0.0,0.0,0.0,0.0,0.0,0.0,0.0,0.0,0.0,0.0,0.0,0.0,3.4314,3.3553,3.2971,3.2392,3.1796,3.1968,0.0,0.0,0.0,0.0,0.0,3.3345,3.4072,3.4879,3.4691,3.5264,3.6444,3.5878,3.5683,3.5745,3.5508,3.5482,3.5688,3.4772,3.4439,3.4523,3.411,3.4285,3.4813,3.5218,3.5605,3.5869,3.6386,3.6211,3.5768,3.5641,3.5332,3.4895,3.4647,3.4481,3.4397,3.4063,0.0,0.0,3.2885,0.0,0.0,0.0,3.3317,3.3514,3.3302,3.3931,3.4213,3.2817,3.3014,3.3316,3.277,3.403,3.581,3.7683,3.8369,3.9413,4.1502,4.1883,4.2579,4.4206,4.4527,4.4422,4.399,4.3811,4.3283,4.2157,4.0658,3.9566,3.8858,3.6925,3.5231,3.3844,3.2945,3.1455,2.9451,2.8978,2.8184,2.6992,2.6587,2.5936,2.5083,2.4619,2.3949,2.322,2.2053,2.1398,2.1081,2.0301,1.958,1.8896,1.7742,1.7069,1.6669,1.5489,1.4832,1.4519,0.0,0.0,0.0,0.0,0.0,0.0,0.0,0.0,0.0,0.0,0.0,0.0,0.0,0.0,0.0,3.455,3.4417,3.4124,3.3338,3.3289,0.0,0.0,0.0,0.0,0.0,3.4454,3.4996,3.5544,3.5455,3.584,3.6767,3.5827,3.5797,3.6358,3.5362,3.4888,3.4703,3.4781,3.4841,3.4811,3.457,3.4794,3.548,3.5991,3.6511,3.6969,3.7229,3.7024,3.6678,3.6415,3.6243,3.5951,3.5562,3.5141,3.4716,3.4481,0.0,0.0,0.0,0.0,0.0,0.0,0.0,3.2768,3.1984,3.204,3.213,3.1787,3.1516,3.142,3.1519,3.2116,3.3126,3.5026,3.673,3.849,4.0445,4.1078,4.2187,4.4554,4.4594,4.4582,4.4903,4.4269,4.3331,4.2205,4.1037,3.9786,3.8402,3.7157,3.5416,3.3089,3.2378,3.1368,3.0113,2.9028,2.8109,2.7295,2.6449,2.5392,2.4118,2.4089,2.3449,2.236,2.1719,2.1582,2.1657,2.0282,1.9341,1.8679,1.7624,1.6708,1.5813,1.463,1.417,1.4054,0.0,0.0,0.0,0.0,0.0,0.0,0.0,0.0,0.0,0.0,0.0,0.0,3.8071,3.7404,3.666,3.5958,3.5674,3.5168,3.4136,3.4111,3.4053,3.3875,3.363,3.3814,3.4454,3.4803,3.5443,3.6584,3.6392,3.669,0.0,0.0,0.0,3.6519,3.6236,3.5917,3.5575,3.5154,3.5208,3.5572,3.4971,3.5467,3.6667,3.6714,3.7416,3.8491,3.8998,3.8907,3.8487,3.825,3.7706,3.7028,3.6494,3.5951,0.0,3.5548,0.0,0.0,3.3807,0.0,0.0,0.0,0.0,0.0,3.2253,3.1954,3.1598,3.1363,3.1024,3.076,3.0811,3.0814,3.1089,3.196,3.4208,3.6541,3.8455,3.943,4.0638,4.2408,4.3935,4.4722,4.43,4.4952,4.4723,4.3039,4.2027,4.0639,3.8745,3.6442,3.4636,3.3381,3.2691,3.1455,2.9529,2.9131,2.8334,2.7094,2.6074,2.5189,2.4519,2.3822,2.288,2.181,2.1197,2.0712,2.0337,1.9938,1.9059,1.7953,1.7262,1.6222,1.5057,1.4383,1.3527,1.2616,0.0,0.0,0.0,0.0,0.0,0.0,0.0,0.0,0.0,0.0,0.0,0.0,3.8945,3.8741,3.8135,3.7204,3.7133,3.6524,3.5165,3.5131,3.5017,3.4678,3.4646,3.4767,3.5232,3.5495,3.6184,3.7338,0.0,0.0,0.0,0.0,0.0,0.0,0.0,3.6392,3.5925,3.5688,3.5601,3.5649,3.5421,3.594,3.703,3.7594,3.8356,3.9329,3.9986,3.992,3.9478,3.9205,3.8546,3.7734,3.7211,3.6822,3.6494,3.6429,0.0,0.0,0.0,0.0,0.0,0.0,0.0,0.0,3.2911,3.2051,3.1267,3.1221,3.0667,3.02,3.0131,2.9971,2.9982,3.0419,3.1971,3.397,3.6307,3.7717,3.9365,4.1682,4.333,4.4432,4.4708,4.5487,4.55,4.4193,4.2852,4.1107,3.8731,3.6371,3.463,3.3667,3.305,3.1708,2.9663,2.9119,2.8269,2.7118,2.5893,2.5032,2.4405,2.3589,2.2564,2.1451,2.0855,2.0189,1.9565,1.9041,1.8233,1.722,1.6633,1.5594,1.4345,1.3799,1.2834,1.1727,0.0,0.0,0.0,0.0,0.0,0.0,0.0,0.0,0.0,0.0,0.0,0.0,0.0,0.0,0.0,0.0,3.8627,3.7989,3.6455,3.6444,3.637,3.5827,3.5945,3.6098,3.6098,3.637,3.6909,0.0,0.0,0.0,0.0,0.0,0.0,0.0,0.0,0.0,3.6142,3.6407,3.6157,3.5558,3.5921,3.6399,3.7154,3.8512,3.9237,3.9735,4.0551,4.0509,4.0005,3.9778,3.9133,3.8277,3.7915,3.7749,3.7644,3.7289,3.7289,0.0,0.0,0.0,0.0,0.0,3.4599,0.0,3.3735,3.2532,3.1483,3.1399,3.0692,2.9998,2.9797,2.9692,2.9697,3.009,3.0223,3.1316,3.4235,3.5961,3.8098,4.1278,4.2509,4.3714,4.5398,4.5791,4.5721,4.5362,4.3427,4.1049,3.8433,3.6698,3.5175,3.3804,3.33,3.2062,3.0039,2.9055,2.808,2.7265,2.5792,2.4807,2.414,2.3371,2.2325,2.1145,2.0625,1.995,1.9112,1.7883,1.7082,1.6599,1.5857,1.4833,1.3712,1.3025,1.2141,1.1174,0.0,0.0,0.0,0.0,0.0,0.0,0.0,0.0,0.0,0.0,0.0,0.0,0.0,0.0,0.0,0.0,0.0,0.0,0.0,3.7892,3.7405,3.6952,3.6501,3.6465,3.6841,3.6922,3.7294,3.7848,0.0,0.0,0.0,0.0,0.0,0.0,0.0,0.0,3.7182,3.7744,3.7452,3.6525,3.6187,3.7005,3.8396,3.8836,3.9531,4.0365,4.1138,4.1256,4.0972,4.0478,3.9905,3.9277,3.8943,3.8723,3.8486,3.8052,3.8188,3.831,0.0,0.0,3.6536,3.5781,3.5169,0.0,3.4593,3.382,3.3023,3.2867,3.2186,3.1551,3.1551,3.0727,3.0353,3.0906,3.0394,3.0619,3.2687,3.423,3.5911,3.8007,4.0168,4.2201,4.3965,4.523,4.5788,4.5584,4.2848,4.0282,3.8187,3.6969,3.5494,3.3621,3.3315,3.2065,2.9555,2.9046,2.825,2.7059,2.5408,2.4547,2.4391,2.2983,2.1647,2.0396,2.0285,1.9587,1.8402,1.713,1.6597,1.6418,1.5249,1.4142,1.3108,1.2367,1.1384,1.0286,0.0,0.0,0.0,0.0,0.0,0.0,0.0,0.0,0.0,0.0,0.0,0.0,0.0,0.0,0.0,0.0,0.0,0.0,0.0,3.9079,3.8459,3.7622,3.7388,3.7296,3.7121,3.7214,3.7585,3.8031,0.0,0.0,0.0,0.0,0.0,0.0,0.0,0.0,0.0,3.7785,3.7783,3.7473,3.7671,3.8054,3.8704,3.9739,4.0357,4.0769,4.1482,4.1538,4.1241,4.0684,4.0285,3.9935,3.9394,3.9337,3.9322,3.8797,3.887,3.8957,3.8341,3.7784,3.7303,3.6759,3.5996,0.0,0.0,3.4326,3.3595,3.3277,3.2802,3.2197,3.1821,3.1485,3.1238,3.1452,3.1084,3.106,3.199,3.299,3.4314,3.6222,3.8162,4.004,4.1966,4.367,4.4825,4.5154,4.283,4.0554,3.8727,3.6969,3.5235,3.3436,3.2629,3.1176,2.9086,2.8513,2.7654,2.6539,2.5069,2.4319,2.4176,2.276,2.1373,2.0085,2.0085,1.9169,1.7598,1.6629,1.5915,1.5324,1.4428,1.3548,1.2692,1.1672,1.0602,0.9501,0.0,0.0,0.0,0.0,0.0,0.0,0.0,0.0,0.0,0.0,0.0,0.0,0.0,0.0,0.0,0.0,0.0,0.0,0.0,4.0291,3.9556,3.853,3.8437,3.8194,3.7568,3.765,3.7861,3.8304,0.0,0.0,0.0,0.0,0.0,0.0,0.0,0.0,3.7651,3.7732,3.7926,3.8341,3.9267,3.9247,3.8758,4.0578,4.107,4.0896,4.1628,4.1736,4.1374,4.0904,4.0715,4.0539,3.9975,3.9945,4.0011,3.9559,3.9514,3.9553,3.925,3.8612,3.7863,3.7565,3.6733,3.5892,0.0,0.0,0.0,3.3555,3.3251,3.2802,3.2083,3.2063,3.2196,3.2041,3.1795,3.1731,3.1959,3.2252,3.3154,3.5022,3.6258,3.7807,3.9862,4.1775,4.3294,4.4165,4.2443,4.0709,3.91,3.6743,3.4763,3.3312,3.1826,3.0338,2.8737,2.7917,2.7064,2.615,2.4915,2.4168,2.3909,2.249,2.1171,1.9984,1.9874,1.8728,1.6943,1.6322,1.5372,1.4219,1.3513,1.2837,1.2102,1.0924,0.9782,0.8715,4.4783,4.4862,0.0,0.0,0.0,0.0,0.0,0.0,0.0,0.0,0.0,0.0,4.4979,4.4738,4.4472,4.4205,4.3457,4.2985,4.2889,4.1756,4.0857,4.0505,3.9544,3.9071,3.9177,3.8777,3.8512,3.8589,0.0,0.0,0.0,0.0,0.0,0.0,3.9169,3.8824,3.8145,3.8475,3.86,3.8652,4.0002,4.0007,3.9421,4.0658,4.1023,4.0896,4.1789,4.2045,4.198,4.1588,4.139,4.1232,4.1232,4.0876,4.0508,4.0709,4.0538,4.0121,3.9753,3.8886,3.8054,3.7707,3.6751,3.5909,3.5459,0.0,3.4765,3.4344,0.0,3.3856,3.3527,0.0,0.0,3.3119,3.2205,3.182,3.2827,3.239,3.2453,3.3607,3.4498,3.5829,3.7986,3.977,4.1168,4.2179,4.0507,3.8998,3.7911,3.6193,3.4589,3.3111,3.1751,3.0381,2.8876,2.8068,2.7252,2.6443,2.5003,2.4269,2.4212,2.2245,2.0857,1.997,1.9319,1.8249,1.6946,1.615,1.5197,1.4095,1.2841,1.179,1.0876,0.9967,0.8907,0.7769,4.5138,4.5398,0.0,0.0,0.0,0.0,0.0,0.0,0.0,0.0,0.0,4.6475,4.5666,4.5683,4.5442,4.4745,4.416,4.3762,4.3681,4.2712,0.0,4.1488,4.1032,4.0455,3.9757,3.9411,3.9104,3.8742,3.9011,0.0,0.0,0.0,0.0,0.0,3.9445,3.8953,3.7982,3.8585,3.8517,3.8296,3.9646,4.0032,3.9857,4.1405,4.1868,4.1773,4.2205,4.2238,4.2045,4.172,4.1724,4.1768,4.111,4.1309,4.1638,4.1316,4.1,4.0858,4.07,3.9984,3.913,3.8307,3.7622,3.7041,3.6392,3.5746,3.5157,3.5019,0.0,0.0,0.0,0.0,0.0,0.0,3.2836,3.2528,3.2834,3.2409,3.2298,3.288,3.2947,3.3729,3.5971,3.787,3.9549,4.0948,4.0169,3.9218,3.8256,3.629,3.4525,3.2937,3.1143,2.9711,2.8666,2.7736,2.694,2.6244,2.485,2.4118,2.3909,2.2384,2.1032,1.9853,1.9549,1.8317,1.6444,1.6089,1.4843,1.3108,1.2423,1.1707,1.092,0.9504,0.8415,0.7438,4.5747,0.0,0.0,0.0,0.0,0.0,0.0,0.0,0.0,4.7264,4.7508,4.7262,4.6181,4.639,4.6251,4.527,4.4888,4.4684,4.462,4.397,4.3232,4.2616,4.2412,4.1841,4.0703,4.0526,4.0042,3.9419,0.0,0.0,0.0,0.0,0.0,0.0,3.9685,3.9117,3.8104,3.8794,3.8832,3.8422,3.9786,4.0409,4.0684,4.1916,4.2445,4.2445,4.2571,4.2429,4.2174,4.1851,4.1987,4.2082,4.1239,4.1705,4.2432,4.1694,4.1555,4.1484,4.1413,4.0754,3.9956,3.9098,3.8576,3.8052,3.7321,3.6562,3.6008,3.6007,3.5546,0.0,0.0,0.0,0.0,0.0,0.0,3.3154,3.2884,3.2534,3.2369,3.2466,3.2104,3.2512,3.4313,3.5849,3.7429,3.9343,3.9047,3.8576,3.8042,3.5971,3.4153,3.2747,3.06,2.9145,2.8568,2.7467,2.6728,2.619,2.4798,2.4016,2.3756,2.2219,2.0872,1.9765,1.9437,1.8072,1.6078,1.5958,1.46,1.258,1.2219,1.1712,1.1004,0.923,0.79,0.6855,4.6931,4.6668,4.6594,4.6594,0.0,0.0,0.0,0.0,4.7764,4.8202,4.8003,4.7585,4.6693,4.6747,4.672,4.6295,4.5987,4.5857,4.6077,4.5574,4.4797,4.3926,4.3519,4.304,4.2703,4.2109,4.1515,4.0866,0.0,0.0,0.0,0.0,0.0,0.0,3.9886,3.9518,3.8752,3.9535,3.9788,3.9776,4.0978,4.1819,4.2318,4.2028,4.2206,4.2571,4.2634,4.2571,4.2492,4.2174,4.2125,4.2124,4.2244,4.2291,4.2391,4.2169,4.2084,4.2015,4.161,4.0761,4.0038,4.0077,3.9288,3.8449,3.8006,3.7662,3.7548,3.7479,3.6675,3.6048,3.6195,0.0,0.0,0.0,0.0,0.0,0.0,3.2957,3.2612,3.245,3.2359,3.2598,3.3301,3.3516,3.4485,3.6639,3.6127,3.601,3.6629,3.4838,3.3375,3.2542,3.0163,2.8878,2.8681,2.7447,2.6674,2.6443,2.5003,2.4219,2.3983,2.1433,2.0083,1.9724,1.8521,1.7244,1.6082,1.5824,1.4703,1.308,1.2318,1.1611,1.0817,0.9114,0.7344,0.5687,4.7624,4.7538,4.7452,4.7279,4.7538,4.788,4.8271,4.8604,4.8681,4.862,4.8701,4.8247,4.7035,4.7215,4.7309,4.6762,4.6604,4.6616,4.6697,4.5859,4.526,4.4769,4.4115,4.354,4.3009,4.2629,4.215,4.1529,4.1307,0.0,0.0,0.0,0.0,0.0,0.0,3.9885,3.9463,3.9905,4.0009,3.9975,4.0993,4.1754,4.2381,4.2254,4.2334,4.2445,4.2445,4.2508,4.2636,4.2945,4.3215,4.3483,4.3452,4.3627,4.3841,4.3315,4.2789,4.2428,4.2275,4.1751,4.1194,4.0895,4.0129,3.9425,3.951,3.8527,3.7673,3.8221,3.7304,3.6436,3.6483,0.0,0.0,0.0,0.0,0.0,0.0,0.0,3.25,3.1884,3.1675,3.1834,3.2393,3.2201,3.3171,3.569,3.5238,3.5293,3.6158,3.4932,3.3638,3.2413,3.0941,2.9602,2.8511,2.7924,2.7169,2.6365,2.4967,2.4118,2.3807,2.2136,2.0803,1.9751,1.9312,1.8194,1.665,1.6422,1.526,1.3661,1.2958,1.1817,1.043,0.9017,0.7586,0.6152,4.8202,4.8301,4.8218,4.788,4.8218,4.8687,4.9081,4.9362,4.9503,4.9349,4.9138,4.8621,4.7542,4.7702,4.7754,4.7371,4.7269,4.7205,4.7118,4.6608,4.5917,4.523,4.4795,4.4345,4.3714,4.3529,4.3051,4.2453,4.223,4.2209,0.0,0.0,0.0,0.0,0.0,4.0543,4.0039,4.0622,4.0721,4.0629,4.1519,4.2057,4.2381,4.2318,4.2381,4.2477,4.2799,4.2895,4.3072,4.3751,4.4152,4.4372,4.4237,4.458,4.4856,4.4156,4.3631,4.3266,4.3131,4.2465,4.1857,4.1688,4.097,4.0293,4.0538,3.9553,3.8805,3.9285,3.8377,3.7508,3.7368,0.0,0.0,0.0,0.0,0.0,0.0,3.3268,3.266,3.197,3.1773,3.1564,3.1568,3.1738,3.2542,3.4397,3.4492,3.4785,3.5725,3.4589,3.3374,3.2349,3.0925,2.9608,2.8397,2.794,2.7313,2.6365,2.5128,2.439,2.4024,2.2568,2.1332,2.0348,1.9836,1.8764,1.7312,1.7023,1.587,1.4259,1.3565,1.2331,1.0743,0.913,0.7532,0.5942,4.862,4.8883,4.8898,4.8453,4.9113,4.9725,5.0151,5.0096,5.0017,5.0172,4.9482,4.8713,4.8258,4.8111,4.8099,4.8131,4.7997,4.7881,4.7619,4.7584,4.6944,4.5623,4.5616,4.5392,4.4797,4.4597,4.413,4.354,4.3512,0.0,0.0,0.0,0.0,0.0,4.1974,0.0,4.0649,4.1617,4.1925,4.1813,4.2611,4.2748,4.2478,4.2286,4.2414,4.2749,4.3443,4.3686,4.3816,4.4544,4.482,4.4852,4.4669,4.5053,4.544,4.4629,4.4471,4.4439,4.4018,4.2995,4.2113,4.2386,4.1786,4.1124,4.0973,4.0812,4.0656,4.0483,3.9786,3.9159,3.8888,0.0,0.0,0.0,0.0,0.0,0.0,0.0,3.3227,3.2711,3.2562,3.1994,3.1045,3.1843,3.2567,3.2896,3.3702,3.4513,3.53,3.3858,3.2763,3.227,3.0287,2.8954,2.844,2.771,2.7095,2.6543,2.553,2.497,2.4755,2.2592,2.1547,2.1307,2.0065,1.8936,1.7882,1.7568,1.6454,1.4857,1.4117,1.3037,1.157,0.9354,0.7136,0.5041,4.9113,4.9501,4.99,4.9963,4.9741,4.9726,5.0016,4.9866,4.9661,4.9381,4.9,4.8538,4.8083,4.8132,4.82,4.8323,4.8554,4.8542,4.8392,4.8001,4.7327,4.6328,4.6011,4.5556,4.5046,4.4783,4.462,4.4464,4.3969,0.0,4.3997,0.0,0.0,0.0,0.0,4.2526,4.2242,4.2697,4.308,4.3405,4.3751,4.3904,4.3959,4.3893,4.3959,4.3912,4.3041,4.3121,4.3816,4.4397,4.4994,4.5629,4.5959,4.5894,4.5708,4.5462,4.5126,4.4655,4.4423,4.4099,4.3789,4.3457,4.2698,4.1958,4.1821,4.1115,4.0621,4.0971,4.0201,3.9579,3.9668,3.8939,0.0,0.0,0.0,0.0,0.0,0.0,3.33,3.2562,3.255,3.2611,3.2751,3.2306,3.2829,3.4593,3.3701,3.3661,3.5078,3.4195,3.3114,3.1895,3.1203,3.0199,2.8763,2.8446,2.7977,2.7414,2.605,2.5273,2.4887,2.3108,2.1844,2.1042,2.0355,1.9319,1.814,1.8054,1.6942,1.5286,1.4743,1.2975,1.0495,0.8567,0.6687,0.5069,4.9724,5.0198,5.0663,5.0984,5.0739,5.0498,5.0384,5.0138,4.9834,4.9327,4.8829,4.8398,4.8099,4.8212,4.8464,4.8748,4.901,4.9079,4.8872,4.8423,4.7834,4.7091,4.6476,4.5941,4.558,4.523,4.506,4.4968,4.4584,0.0,4.4847,0.0,0.0,0.0,0.0,4.3211,4.2906,4.3366,4.3681,4.3891,4.4299,4.4425,0.0,4.4321,4.4321,4.426,4.3457,4.37,4.449,4.5062,4.5612,4.6067,4.64,4.6325,4.6124,4.6072,4.5588,4.5123,4.4973,4.4629,4.4253,4.3981,4.3214,4.2466,4.2432,4.1683,4.1085,4.1202,4.0753,4.0262,4.0054,3.9639,0.0,0.0,0.0,0.0,0.0,3.458,3.3641,3.2636,3.2797,3.3142,3.3398,3.2626,3.2759,3.4239,3.3502,3.3443,3.4451,3.3872,3.2891,3.1632,3.127,3.0291,2.881,2.8587,2.8218,2.7617,2.641,2.567,2.5458,2.3905,2.2728,2.1931,2.1278,2.0207,1.8852,1.8649,1.7576,1.5926,1.4796,1.2869,1.0495,0.9,0.7397,0.5808,5.0326,5.0816,5.1359,5.1778,5.1818,5.1596,5.0916,5.0535,5.0176,4.9823,4.8809,4.8261,4.8361,4.8579,4.8875,4.9284,4.9521,4.9531,4.9343,4.8918,4.8438,4.7749,4.7178,4.6668,4.6373,4.5851,4.5504,4.5216,4.5124,0.0,0.0,0.0,0.0,0.0,0.0,0.0,0.0,4.3912,4.4085,4.3983,4.4551,4.4636,4.4373,4.4267,4.4336,4.4441,4.4441,4.4845,4.5389,4.5927,4.6198,4.6262,4.6262,4.6458,4.6598,4.6404,4.6041,4.5713,4.5661,4.5005,4.4252,4.4261,4.3579,4.2921,4.2825,4.2279,4.1674,4.1275,4.1198,4.0979,4.0243,4.022,0.0,0.0,0.0,0.0,3.6234,3.526,3.414,3.2982,3.3142,0.0,3.3398,3.2942,3.2733,3.3065,3.3356,3.363,3.3752,3.3312,3.2485,3.1352,3.0858,2.9975,2.8727,2.8577,2.8205,2.7704,2.6772,2.6267,2.6144,2.483,2.3811,2.3095,2.2371,2.121,1.9719,1.9269,1.8123,1.6411,1.4533,1.2799,1.1229,1.0083,0.8685,0.7017,5.088,5.1392,5.1778,5.2013,5.2285,5.2018,5.0672,5.0289,5.024,5.0476,4.9142,4.846,4.9043,4.9457,4.9555,4.9316,5.0302,5.0566,4.9821,4.9677,4.9259,4.8438,4.8118,4.7679,4.7031,4.6358,4.5956,4.579,4.5307,0.0,0.0,0.0,0.0,0.0,0.0,0.0,4.5004,4.4664,4.4791,4.5154,4.528,4.5394,4.5516,4.5516,4.5516,4.5516,4.573,4.5569,4.5309,4.5212,4.5713,4.6262,4.6262,4.6458,4.6582,4.6598,4.6502,4.6352,4.6119,4.5913,4.5516,4.4827,4.4519,4.4085,4.2953,4.2622,4.2302,4.1419,4.1215,4.1055,4.0796,4.0499,4.0025,0.0,3.8863,3.8128,3.6076,3.5785,3.5186,3.3692,3.3471,3.3398,3.3398,3.3297,3.3487,3.4074,3.3746,3.3433,3.3419,3.3255,3.2455,3.0774,3.096,3.0518,2.9261,2.9059,2.8941,2.8781,2.7865,2.7074,2.6499,2.5341,2.4094,2.2844,2.223,2.1193,1.99,1.9318,1.7885,1.5885,1.4443,1.3192,1.2045,1.0915,0.9758,0.8401,5.1557,5.1997,5.2082,5.1735,5.1934,5.1877,5.1092,5.0591,5.0075,4.9459,4.8944,4.8812,4.9161,4.9409,4.9648,5.0124,5.0756,5.1002,5.0771,5.0525,5.012,4.9486,4.9015,4.8521,4.7749,4.7234,4.6889,4.6707,4.6011,0.0,0.0,0.0,0.0,0.0,0.0,4.5173,0.0,0.0,4.4964,4.5204,4.5442,4.5719,4.6033,4.6033,4.6237,4.6504,4.6233,4.6181,4.6218,4.5595,4.5723,4.608,4.608,4.6207,4.6413,4.6622,4.655,4.6358,4.6598,4.6294,4.5873,4.5508,4.5073,4.4473,4.374,4.3047,4.238,4.18,4.132,4.0878,4.0758,4.059,4.0246,3.9533,3.9387,3.8672,3.6782,3.6497,3.5878,3.4366,3.4322,3.4301,3.392,3.3894,3.3979,3.4063,3.3979,3.3654,3.3054,3.3236,3.2683,3.0949,3.1006,3.056,2.9582,2.9251,2.9035,2.883,2.8053,2.7493,2.712,2.5964,2.4878,2.3781,2.2857,2.1749,2.0444,1.9205,1.7739,1.6106,1.5243,1.4259,1.3192,1.2089,1.093,0.9611,5.1888,5.2125,5.2104,5.1234,5.1425,5.1612,5.1256,5.099,5.0391,4.931,4.9227,4.9409,4.949,4.9507,4.9901,5.0758,5.1004,5.1188,5.1392,5.1,5.0663,5.0292,4.9741,4.9178,4.862,4.8088,4.7748,4.7555,4.6712,4.6488,0.0,0.0,0.0,0.0,0.0,0.0,4.4659,4.4772,4.4951,4.5166,4.5497,4.5887,4.6344,4.6344,4.6671,4.706,4.6608,4.667,4.6934,4.6328,4.5992,4.594,4.6029,4.6079,4.6239,4.6687,4.657,4.6462,4.7088,4.6681,4.6029,4.6174,4.5563,4.4835,4.4448,4.36,4.273,4.2334,4.1565,4.0909,4.0643,4.0532,4.0433,4.0139,3.9866,3.923,3.7931,3.7565,3.692,3.5498,3.5389,3.5247,3.48,3.4476,3.423,3.3966,3.4147,3.3819,3.2751,3.3277,3.2876,3.1172,3.1075,3.0677,2.9873,2.9532,2.9228,2.8906,2.8366,2.8012,2.7678,2.6714,2.5761,2.4781,2.3838,2.2494,2.0926,1.9421,1.8022,1.6744,1.6331,1.5385,1.4178,1.3272,1.2075,1.0681,5.1338,5.1363,5.1201,5.0574,5.1075,5.1239,5.0471,5.133,5.213,5.2154,5.0935,5.0284,5.0806,5.0801,5.0709,5.048,5.11,5.1285,5.0972,5.0896,5.082,5.0573,5.0308,4.99,4.9517,4.8852,4.8301,4.7825,4.7033,4.6624,0.0,0.0,0.0,0.0,4.5183,4.49,4.4834,4.4711,4.5078,4.5788,4.588,4.6284,4.6811,4.6811,4.6842,4.6967,4.706,4.6764,4.6358,4.6857,4.6776,4.6485,4.6856,4.6589,4.6239,4.6907,4.705,4.7088,4.7684,4.7261,4.6708,4.6708,4.6202,4.5466,4.4573,4.4322,4.3912,4.2931,4.2083,4.1367,4.0734,4.0326,4.0139,4.0319,4.0354,4.0025,3.9102,3.9172,3.8796,3.7517,3.6498,3.5925,3.5871,3.4795,3.4243,3.4551,3.4314,3.3749,3.2751,3.3422,3.2815,3.0828,3.136,3.1323,3.0555,3.0284,3.0109,2.9849,2.9663,2.893,2.7705,2.7596,2.6606,2.4948,2.4714,2.3272,2.1028,2.0476,1.9202,1.7666,1.7491,1.6221,1.4438,1.4164,1.3054,1.1576,5.0772,5.0722,5.0639,5.0373,5.0488,5.0736,5.0694,5.074,5.097,5.1416,5.0916,5.0599,5.0966,5.0911,5.0949,5.1246,5.1541,5.1631,5.1408,5.135,5.1199,5.0956,5.0727,5.0324,4.9757,4.9437,4.9053,4.8697,4.7774,4.7459,0.0,0.0,0.0,4.508,4.5152,4.4925,4.4616,4.5126,4.548,4.5773,4.6268,4.6825,4.7364,4.7364,4.7531,4.792,4.7583,4.7521,4.7614,4.7665,4.7123,4.6567,4.7142,4.7261,4.7347,4.8013,4.7933,4.7605,4.7814,4.7281,4.6544,4.615,4.6002,4.5759,4.4908,4.4678,4.4417,4.3294,4.2149,4.1326,4.1214,4.1088,4.0843,4.0591,4.0893,4.0885,4.0097,4.0091,3.9839,3.8875,3.8021,3.7318,3.6797,3.5653,3.4977,3.5141,3.4494,3.3822,3.3273,3.3251,3.2828,3.1769,3.1626,3.1501,3.1199,3.0853,3.0549,3.0429,2.9859,2.9356,2.875,2.803,2.6654,2.4851,2.3983,2.2631,2.1042,2.0563,1.958,1.8232,1.795,1.7041,1.5833,1.5515,1.4417,1.3038,5.0126,5.0025,4.9841,4.9591,4.9655,4.9898,5.0429,5.0194,5.0189,5.0854,5.079,5.0798,5.0801,5.0893,5.1148,5.1582,5.1631,5.1631,5.1631,5.1499,5.135,5.1183,5.0972,5.0666,5.0089,4.9836,4.9415,4.8967,4.821,4.7858,4.7884,4.6881,4.5906,4.5023,4.5346,4.5151,4.4772,4.5681,4.6081,4.6219,4.6854,4.7457,4.7896,4.7896,4.8204,4.8558,4.8065,4.8081,4.8281,4.8198,4.7636,4.7042,4.7543,4.7713,4.7867,4.8622,4.8495,4.8164,4.8446,4.782,4.7007,4.6551,4.6463,4.6297,4.5663,4.5478,4.5139,4.3898,4.2705,4.1919,4.1925,4.1812,4.1729,4.1294,4.159,4.1706,4.1046,4.1047,4.0766,3.9877,3.8999,3.824,3.7546,3.6306,3.548,3.5562,3.4977,3.4327,3.3857,3.3648,3.3221,3.26,3.2119,3.1871,3.1815,3.1406,3.1116,3.0993,3.0419,2.9956,2.9561,2.8071,2.6695,2.5293,2.3877,2.2749,2.1904,2.1251,2.0394,1.9364,1.8915,1.8099,1.7138,1.6831,1.5762,1.4532,4.946,4.9061,4.8661,4.815,4.833,4.8695,4.9235,4.9791,5.0431,5.1401,5.1108,5.0758,5.0456,5.1043,5.1408,5.1183,5.1183,5.1183,5.1183,5.1183,5.1183,5.1183,5.0972,5.082,5.0589,5.0168,4.9363,4.8324,4.7796,4.7538,4.7308,4.7091,4.6605,4.5912,4.5898,4.5822,4.5618,4.6058,4.6812,4.7588,4.7588,4.8004,4.8604,4.8604,4.8604,4.862,4.8604,4.8173,4.7711,4.8373,4.8337,4.8038,4.8213,4.7793,4.7356,4.8326,4.8608,4.8749,4.9647,4.9253,4.8592,4.8577,4.7887,4.7123,4.6951,4.6888,4.6423,4.4925,4.4018,4.3356,4.2709,4.2441,4.233,4.2515,4.2496,4.2268,4.2015,4.202,4.1623,4.0564,3.9267,3.8335,3.7962,3.6548,3.579,3.5951,3.579,3.5291,3.4552,3.467,3.4272,3.305,3.2818,3.2588,3.2403,3.2026,3.1792,3.1792,3.1611,3.098,2.9745,2.7699,2.6823,2.6701,2.5009,2.4205,2.3987,2.2934,2.2024,2.1328,2.0684,1.9473,1.7989,1.7909,1.7082,1.5897,4.8976,4.9238,4.9529,4.9616,4.972,4.9896,5.0332,5.0128,4.9957,5.0123,5.0021,4.9925,4.9834,5.0687,5.1258,5.1183,5.1183,5.1108,5.0972,5.0972,5.0972,5.082,5.0743,5.0589,5.0418,5.0089,4.9347,4.8308,4.8053,4.7469,4.6846,4.7242,4.6981,4.6201,4.6192,4.6001,4.5849,4.6468,4.7027,4.7405,4.7865,4.8186,4.837,4.8537,4.8537,4.837,4.8537,4.8481,4.8327,4.8543,4.8721,4.8875,4.8548,4.8565,4.8667,4.8981,4.9043,4.9077,4.8842,4.8544,4.8104,4.7606,4.7431,4.7318,4.6775,4.6155,4.5474,4.5124,4.4067,4.3274,4.3427,4.3182,4.3031,4.3285,4.3265,4.3184,4.29,4.2688,4.2356,4.2217,4.0516,3.9316,3.929,3.7676,3.6688,3.689,3.6411,3.5855,3.5372,3.4743,3.4194,3.3813,3.3256,3.2775,3.2632,3.2581,3.2555,3.2414,3.1929,3.1048,2.9759,2.8107,2.742,2.7352,2.6,2.5157,2.4666,2.3919,2.2647,2.1251,2.1254,2.0297,1.8873,1.896,1.8376,1.7503,4.8655,4.8948,4.9197,4.944,4.9377,4.9498,5.0181,4.9865,4.9597,4.9793,4.9841,4.9841,4.9917,5.0454,5.0864,5.0956,5.0956,5.0896,5.0836,5.0727,5.065,5.0589,5.0418,5.0262,5.0168,4.9916,4.9268,4.8228,4.7973,4.7441,4.6683,4.72,4.7088,4.6364,4.6382,4.6355,4.6319,4.7001,4.7357,4.7622,4.805,4.8218,4.8202,4.8286,4.8286,4.8248,4.8592,4.8768,4.8799,4.9044,4.924,4.9443,4.9173,4.9204,4.9306,4.9206,4.921,4.9116,4.8792,4.8522,4.8267,4.7803,4.7843,4.7881,4.745,4.6674,4.5959,4.6039,4.509,4.4217,4.4291,4.42,4.4139,4.3976,4.4168,4.4098,4.3668,4.3301,4.2946,4.2539,4.112,4.0061,3.991,3.8475,3.7656,3.7679,3.7223,3.6809,3.6443,3.5361,3.4823,3.4823,3.4007,3.3442,3.3179,3.3107,3.2996,3.2832,3.2236,3.1419,3.0458,2.9108,2.8375,2.8039,2.7047,2.6331,2.5775,2.4913,2.3851,2.275,2.2169,2.1349,2.0482,2.0011,1.953,1.8919,4.8433,4.8221,4.802,4.802,4.775,4.7866,4.9069,4.9199,4.9437,5.0167,5.0262,5.0262,5.0512,5.0308,5.0214,5.0496,5.0573,5.0589,5.0573,5.0308,5.0292,5.0496,5.0089,4.9852,4.9852,4.9677,4.9028,4.7988,4.7716,4.7361,4.6918,4.7196,4.7114,4.6693,4.6667,4.6803,4.7046,4.7382,4.7709,4.7964,4.7964,4.7964,4.798,4.801,4.804,4.8131,4.883,4.9072,4.9163,4.974,4.9895,4.991,4.988,4.963,4.928,4.9109,4.9042,4.898,4.921,4.9128,4.8996,4.8996,4.88,4.862,4.862,4.8096,4.7522,4.7375,4.6758,4.6036,4.5217,4.542,4.5453,4.4851,4.5027,4.5027,4.4095,4.3841,4.3189,4.1936,4.1266,4.0602,3.9967,3.9204,3.8625,3.8416,3.8309,3.8104,3.7648,3.6543,3.5899,3.5802,3.5065,3.4427,3.3893,3.3569,3.3307,3.3113,3.2403,3.1903,3.1582,3.0431,2.9474,2.8807,2.8283,2.7789,2.7221,2.5974,2.5438,2.5273,2.3406,2.2656,2.2478,2.1179,2.057,2.0307,4.7906,4.8144,4.8471,4.8834,4.8704,4.876,4.9379,4.9346,4.9329,4.9501,4.9517,4.9517,4.9597,4.9517,4.9517,4.9597,5.0058,5.0214,5.0089,4.9995,4.9916,4.9852,4.9597,4.9437,4.9437,4.921,4.8558,4.7456,4.7241,4.7082,4.7027,4.76,4.7646,4.7326,4.7322,4.7312,4.7257,4.7321,4.7467,4.7709,4.7553,4.7553,4.777,4.8283,4.8464,4.8555,4.9395,4.9725,4.974,4.9804,5.0109,5.0351,5.0016,4.9758,4.9516,4.9295,4.8982,4.8718,4.8785,4.8702,4.8702,4.8702,4.862,4.862,4.862,4.7932,4.7375,4.7293,4.6676,4.6067,4.6237,4.604,4.5837,4.5867,4.5559,4.5027,4.434,4.3923,4.3478,4.2956,4.2104,4.1418,4.1351,4.0529,3.9851,3.9282,3.9347,3.8996,3.7924,3.7755,3.7233,3.6259,3.5489,3.471,3.3907,3.4454,3.4622,3.4307,3.268,3.1971,3.2171,3.0855,2.9916,2.9331,2.9299,2.8693,2.7701,2.6987,2.6079,2.5133,2.4475,2.369,2.292,2.295,2.267,2.2226,4.7549,4.7908,4.8274,4.8504,4.8606,4.8812,4.9423,4.9356,4.9275,4.9275,4.9275,4.9275,4.9275,4.9113,4.8949,4.8949,4.9501,4.9741,4.9597,4.9533,4.9452,4.9437,4.9291,4.9128,4.8949,4.8883,4.845,4.7585,4.76,4.7532,4.7463,4.7797,4.788,4.7639,4.7467,4.7381,4.7309,4.7309,4.7474,4.7728,4.7641,4.7732,4.8,4.8237,4.8461,4.8775,4.9388,4.9794,5.0095,5.0397,5.0456,5.035,5.008,4.9643,4.9085,4.9001,4.8667,4.837,4.8453,4.8453,4.8453,4.862,4.862,4.862,4.862,4.8245,4.7819,4.7668,4.7213,4.6819,4.653,4.6401,4.6316,4.6152,4.6107,4.5824,4.5168,4.4659,4.4131,4.3787,4.2797,4.2237,4.2317,4.1597,4.09,4.0379,4.0233,3.9814,3.8785,3.888,3.8249,3.6697,3.6178,3.5549,3.4906,3.5124,3.5152,3.499,3.3545,3.2957,3.3076,3.2024,3.1199,3.0555,3.0623,3.0003,2.8821,2.8181,2.7371,2.651,2.5731,2.5168,2.4745,2.4305,2.4086,2.387,4.7228,4.7426,4.7599,4.7804,4.8044,4.8431,4.9181,4.9194,4.9113,4.9113,4.9113,4.9113,4.9113,4.8785,4.8537,4.8537,4.8867,4.9113,4.9113,4.898,4.898,4.9113,4.898,4.8733,4.8537,4.8453,4.8286,4.7964,4.8049,4.8049,4.788,4.788,4.7794,4.7553,4.7396,4.7309,4.7309,4.7312,4.7583,4.7911,4.7911,4.8147,4.8334,4.8147,4.84,4.8936,4.9312,4.9761,5.0239,5.0792,5.0553,5.0092,5.0092,4.9344,4.8546,4.8651,4.8389,4.8116,4.837,4.8454,4.8508,4.8567,4.862,4.862,4.862,4.862,4.8537,4.8133,4.8049,4.7713,4.6731,4.6819,4.684,4.6319,4.659,4.6708,4.6085,4.5416,4.4816,4.4392,4.3411,4.285,4.2996,4.2267,4.1754,4.1397,4.1082,4.0498,3.9765,3.9768,3.9098,3.7316,3.7032,3.6696,3.6206,3.5578,3.525,3.5433,3.4643,3.422,3.396,3.3406,3.261,3.1806,3.1806,3.1171,3.008,2.9292,2.8793,2.8449,2.7124,2.6813,2.6977,2.567,2.5328,2.5309,4.6528,4.6507,4.6809,4.7997,4.804,4.8174,4.8969,4.8718,4.8453,4.8453,4.8301,4.8218,4.8218,4.8133,4.8133,4.8133,4.8133,4.8286,4.8453,4.8469,4.8453,4.8453,4.8469,4.8301,4.8133,4.788,4.7709,4.7624,4.7553,4.7467,4.7381,4.7381,4.7396,4.7396,4.7294,4.7309,4.7339,4.7702,4.7807,4.7941,4.8036,4.79,4.7712,4.8605,4.8801,4.8673,4.9887,5.0179,4.9994,5.0099,4.9789,4.9419,4.9419,4.8895,4.849,4.9044,4.8745,4.8308,4.8758,4.9017,4.9035,4.8439,4.8453,4.862,4.862,4.862,4.8604,4.8537,4.837,4.8172,4.7828,4.7649,4.7437,4.716,4.6959,4.6795,4.6326,4.5486,4.4816,4.4392,4.3653,4.317,4.2996,4.2746,4.2225,4.1427,4.1488,4.0958,3.9633,3.985,3.9575,3.8608,3.8046,3.747,3.6852,3.5728,3.5611,3.6493,3.5334,3.4729,3.4505,3.3868,3.2955,3.1806,3.1806,3.1405,3.0715,2.991,2.9542,2.9433,2.8928,2.8241,2.7596,2.7692,2.7247,2.6539,4.6761,4.7045,4.7262,4.7834,4.7993,4.8168,4.8438,4.8301,4.8133,4.8133,4.8049,4.7964,4.7964,4.788,4.7946,4.8309,4.8253,4.8166,4.8339,4.8162,4.8133,4.8133,4.8133,4.8049,4.7794,4.7553,4.7467,4.7467,4.7467,4.7381,4.7309,4.7309,4.7207,4.7121,4.7317,4.7377,4.7422,4.7969,4.8366,4.8536,4.8629,4.8697,4.8676,4.9004,4.923,4.9413,4.9867,4.9952,4.9887,4.9887,4.964,4.9269,4.9088,4.897,4.8865,4.8999,4.9045,4.8997,4.8811,4.8997,4.9002,4.847,4.837,4.8453,4.862,4.862,4.8537,4.8286,4.8286,4.8202,4.788,4.7709,4.7553,4.7467,4.7294,4.7016,4.689,4.6192,4.5654,4.5439,4.4811,4.4176,4.3575,4.3464,4.2953,4.1982,4.1778,4.1443,4.0689,4.0532,4.0167,3.9547,3.883,3.8116,3.7484,3.6908,3.6754,3.6836,3.6003,3.5507,3.5418,3.479,3.4116,3.3473,3.3068,3.2582,3.1847,3.1158,3.0649,3.0347,3.0146,2.9751,2.917,2.9361,2.8797,2.8005,4.7028,4.741,4.7665,4.7656,4.8033,4.8218,4.8049,4.7964,4.788,4.788,4.788,4.7855,4.8006,4.7763,4.7947,4.8623,4.8506,4.8432,4.8521,4.829,4.8127,4.781,4.781,4.7709,4.7553,4.7294,4.7207,4.7135,4.7294,4.7294,4.7135,4.7285,4.7257,4.7096,4.7494,4.7683,4.7727,4.8374,4.8855,4.915,4.9187,4.9353,4.9422,4.928,4.9464,4.9698,4.9486,4.9395,4.9449,4.9379,4.91,4.885,4.8669,4.8878,4.9209,4.9176,4.9598,4.984,4.9163,4.9189,4.93,4.8773,4.8675,4.876,4.8929,4.8806,4.8615,4.8292,4.824,4.8133,4.7709,4.7624,4.7538,4.7553,4.7381,4.7309,4.7309,4.6655,4.6237,4.6237,4.554,4.4787,4.39,4.3841,4.341,4.245,4.1966,4.1702,4.1619,4.1114,4.0647,4.0349,3.942,3.8622,3.8131,3.7976,3.7667,3.7189,3.6571,3.6206,3.6051,3.5662,3.5218,3.4976,3.4413,3.3793,3.3276,3.2706,3.2082,3.1544,3.1544,3.1158,3.0719,3.0719,3.0133,2.9362,4.6878,4.7061,4.7289,4.7867,4.8019,4.8049,4.7964,4.7794,4.7624,4.7624,4.7467,4.7519,4.7852,4.7911,4.8194,4.8788,4.8847,4.8923,4.9194,4.8969,4.8403,4.7354,4.7381,4.7309,4.7309,4.7019,4.6844,4.6683,4.6683,4.6683,4.6697,4.7199,4.7479,4.7508,4.8157,4.8452,4.8496,4.8878,4.9077,4.9084,4.9475,4.9277,4.8856,4.9393,4.9277,4.8798,4.9041,4.8726,4.8204,4.7801,4.767,4.7716,4.7881,4.8402,4.9117,4.9896,5.0601,5.093,5.0272,5.0275,5.0381,5.0013,4.9831,4.9889,5.0151,4.952,4.8936,4.8936,4.842,4.7964,4.7624,4.7624,4.7553,4.7381,4.7309,4.7309,4.7309,4.6584,4.5996,4.5996,4.5217,4.4284,4.3416,4.3343,4.3011,4.2218,4.1883,4.1619,4.1396,4.11,4.0972,4.093,3.9631,3.8847,3.8791,3.8201,3.7878,3.7835,3.7203,3.6613,3.6065,3.6023,3.5686,3.5152,3.4948,3.4831,3.4715,3.451,3.4076,3.3522,3.3522,3.2687,3.15,3.15,3.0992,3.0268,4.7056,4.7277,4.7437,4.7508,4.7639,4.7624,4.7351,4.7264,4.7255,4.7481,4.7451,4.7614,4.8174,4.8233,4.8499,4.9164,4.9316,4.9316,4.9408,4.9316,4.8739,4.7526,4.7081,4.6873,4.6873,4.7155,4.7273,4.7199,4.7582,4.7788,4.7788,4.7842,4.7853,4.7882,4.8354,4.8646,4.869,4.9237,4.9514,4.9446,4.9679,4.9538,4.9349,4.9582,4.9277,4.8725,4.8821,4.826,4.7585,4.7823,4.8051,4.8398,4.8798,4.9575,5.0433,5.0687,5.102,5.1169,5.0915,5.0541,5.026,4.9868,4.9702,4.967,4.9539,4.9265,4.8804,4.8278,4.841,4.8531,4.8241,4.8241,4.8257,4.8358,4.7752,4.7294,4.7467,4.7085,4.6763,4.6575,4.6251,4.5649,4.4829,4.4247,4.3679,4.2967,4.2183,4.1702,4.1633,4.1367,4.1184,4.1001,4.0463,4.0053,3.9617,3.9281,3.8875,3.8496,3.8271,3.8032,3.7793,3.7386,3.7077,3.681,3.5975,3.5639,3.5611,3.5157,3.4729,3.4237,3.4358,3.3624,3.2532,3.265,3.2136,3.1558,4.6944,4.7207,4.7193,4.7121,4.7207,4.7193,4.6844,4.6933,4.7215,4.7494,4.7639,4.8021,4.8669,4.8649,4.8992,4.964,4.9698,4.9698,4.9808,4.9507,4.8904,4.7906,4.7435,4.7199,4.7094,4.7445,4.7589,4.7497,4.8028,4.8248,4.8155,4.8252,4.8246,4.8275,4.8835,4.9016,4.9059,4.948,4.9669,4.9654,4.9465,4.9378,4.9364,4.9161,4.8943,4.8696,4.8588,4.8188,4.7741,4.796,4.8444,4.8879,4.9242,5.0115,5.1105,5.1105,5.112,5.1214,5.112,5.0642,5.0167,5.0201,4.9975,4.9719,4.9549,4.9277,4.8917,4.8275,4.8633,4.9053,4.8847,4.8681,4.8546,4.8736,4.7917,4.7396,4.7467,4.7294,4.7121,4.6916,4.6829,4.649,4.5564,4.4936,4.425,4.3317,4.2789,4.2305,4.192,4.1752,4.1482,4.1001,4.1001,4.0802,4.0406,3.9957,3.9564,3.9156,3.8959,3.8861,3.8847,3.8201,3.7906,3.7835,3.6796,3.636,3.6318,3.5911,3.5479,3.5099,3.5147,3.4547,3.3574,3.3771,3.3436,3.2941,4.6594,4.6594,4.6594,4.6594,4.6594,4.6609,4.6594,4.7154,4.7462,4.7477,4.8127,4.8683,4.9062,4.9135,4.9399,5.0028,5.0086,5.0198,5.0501,4.9662,4.8908,4.8555,4.8525,4.8326,4.8126,4.8126,4.7876,4.7448,4.7717,4.7717,4.7462,4.8259,4.874,4.8769,4.9393,4.9669,4.9669,4.9669,4.9669,4.9611,4.8986,4.874,4.8667,4.8029,4.8174,4.8638,4.8267,4.8362,4.8624,4.8252,4.8377,4.8725,4.8997,4.9911,5.0807,5.0807,5.1011,5.112,5.0902,5.0534,5.0406,5.1329,5.0906,5.0242,5.0501,4.9915,4.9284,4.9269,4.9269,4.9284,4.9269,4.8745,4.8297,4.8297,4.7743,4.7309,4.7309,4.7106,4.6916,4.6916,4.6756,4.6256,4.542,4.5259,4.4631,4.3108,4.3616,4.3517,4.241,4.2281,4.191,4.1029,4.1001,4.1001,4.1001,4.0168,3.9788,3.9788,3.917,3.8875,3.8861,3.8215,3.7906,3.7878,3.7274,3.6993,3.6993,3.6993,3.6627,3.6079,3.6079,3.5488,3.4596,3.4794,3.463,3.4327,4.615,4.6225,4.6314,4.6314,4.6784,4.7183,4.7017,4.7347,4.7809,4.829,4.8319,4.8667,4.9432,4.931,4.9397,4.9766,4.9698,4.9698,4.9878,4.9688,4.9499,4.931,4.845,4.7969,4.7861,4.8297,4.834,4.8053,4.861,4.8841,4.8758,4.9029,4.9213,4.9407,4.9596,4.9669,4.9669,4.9669,4.9669,4.9654,4.9465,4.9393,4.9364,4.9175,4.8943,4.8696,4.8603,4.837,4.8101,4.8443,4.8741,4.907,4.9853,5.0324,5.0567,5.0567,5.0677,5.0757,5.0807,5.0609,5.052,5.0967,5.0612,5.0242,5.0318,5.0092,4.9823,4.9359,4.9628,4.9866,4.9774,4.9533,4.9399,4.9186,4.8342,4.7703,4.7703,4.7213,4.6844,4.6683,4.6491,4.624,4.5947,4.5332,4.4909,4.4631,4.3936,4.3444,4.3243,4.2466,4.1951,4.1681,4.1241,4.1128,4.1407,4.073,4.0421,4.0421,4.0238,4.0154,4.0126,3.9507,3.9212,3.9184,3.858,3.8299,3.8271,3.798,3.7684,3.7316,3.7035,3.6346,3.5419,3.5495,3.5343,3.5113,4.5595,4.5776,4.5851,4.5761,4.6479,4.7007,4.6838,4.7377,4.7961,4.8365,4.8445,4.8761,4.9346,4.9207,4.9207,4.9389,4.9207,4.9207,4.9389,4.9389,4.9389,4.9389,4.8653,4.8345,4.8537,4.8899,4.9006,4.8715,4.9202,4.9404,4.9305,4.9404,4.9585,4.9683,4.9585,4.9585,4.9669,4.9585,4.9585,4.9654,4.9407,4.9291,4.9277,4.9016,4.8841,4.8725,4.8725,4.8638,4.8595,4.8972,4.9184,4.9449,4.9955,5.0294,5.0294,5.0294,5.0405,5.0486,5.0552,5.0279,5.0147,5.0478,5.0238,4.995,4.995,4.995,4.9846,4.9444,4.9905,5.0273,5.0179,4.9878,4.9685,4.9483,4.8691,4.8102,4.8102,4.754,4.7052,4.6978,4.6564,4.6314,4.621,4.5681,4.5448,4.5566,4.444,4.3815,4.3815,4.309,4.2601,4.2273,4.1964,4.1849,4.1994,4.1702,4.1393,4.1053,4.0814,4.0702,4.0674,4.0069,3.9872,3.9927,3.9293,3.8898,3.8644,3.8328,3.7924,3.7498,3.7289,3.6768,3.6164,3.6401,3.642,3.6212,4.5124,4.5307,4.5413,4.5124,4.5838,4.6268,4.6095,4.7081,4.7852,4.7909,4.8438,4.8838,4.8895,4.8895,4.8895,4.8895,4.8895,4.8895,4.8895,4.8895,4.8895,4.8895,4.8895,4.9093,4.9571,4.9683,4.9488,4.9207,4.9488,4.9488,4.9305,4.9585,4.9683,4.9669,4.9404,4.9404,4.9683,4.9404,4.9404,4.9625,4.8948,4.8716,4.8658,4.8174,4.8304,4.8716,4.8716,4.919,4.9683,4.9669,4.9669,4.9683,4.9669,4.9878,4.999,5.0086,5.0198,5.0309,5.0183,4.9839,4.9625,4.994,4.9729,4.9478,4.9572,4.9572,4.9572,4.9572,5.0073,5.0501,5.0501,4.9999,4.9572,4.9478,4.8933,4.8521,4.8521,4.7962,4.7521,4.7477,4.6947,4.6491,4.6298,4.6356,4.6281,4.5982,4.5252,4.4622,4.4281,4.3953,4.3398,4.2683,4.2852,4.2852,4.2669,4.2852,4.2439,4.1685,4.1137,4.0842,4.0758,4.028,4.0083,4.0165,3.9612,3.9045,3.8507,3.8394,3.7918,3.7225,3.7113,3.6929,3.687,3.739,3.7546,3.7385,4.5124,4.5124,4.5124,4.5124,4.5667,4.6189,4.6109,4.6547,4.7202,4.7895,4.7885,4.8155,4.8852,4.8695,4.8695,4.8895,4.8895,4.8895,4.8895,4.8895,4.8895,4.8895,4.8895,4.8994,4.9093,4.9093,4.8895,4.8695,4.8895,4.8994,4.9009,4.9305,4.9488,4.9669,4.9404,4.9305,4.9404,4.9108,4.8994,4.9079,4.9147,4.9202,4.9187,4.9223,4.9267,4.9202,4.9202,4.9288,4.9404,4.9585,4.9585,4.9404,4.9683,4.9585,4.9502,4.9683,4.9698,4.9614,4.999,4.9693,4.9426,4.9737,4.9386,4.9285,5.0088,5.0279,5.0279,5.0279,5.0397,5.0405,5.0198,5.008,4.9867,4.9659,4.923,4.901,4.901,4.8439,4.7838,4.7354,4.6982,4.6712,4.6712,4.7163,4.725,4.6664,4.6045,4.5559,4.4952,4.4012,4.3519,4.3301,4.2913,4.2899,4.3287,4.2899,4.2589,4.2374,4.2396,4.2058,4.1404,4.1696,4.144,4.0802,4.0675,4.0533,4.0335,3.9385,3.8918,3.8611,3.7778,3.738,3.7219,3.7853,3.7906,3.7844,4.4569,4.4676,4.4769,4.4583,4.5293,4.5813,4.5638,4.6319,4.7122,4.7546,4.7744,4.8041,4.8481,4.8409,4.8409,4.8509,4.8509,4.8509,4.8509,4.8509,4.8509,4.8509,4.8509,4.8509,4.8509,4.8509,4.861,4.8695,4.8795,4.8895,4.8895,4.9009,4.9192,4.9291,4.8994,4.9009,4.9108,4.8795,4.8895,4.9108,4.9207,4.9305,4.932,4.9502,4.9305,4.9108,4.9108,4.9108,4.9108,4.9291,4.9207,4.9108,4.9291,4.9192,4.9108,4.9291,4.9192,4.9207,4.9502,4.9305,4.9108,4.9291,4.9093,4.9093,4.96,4.981,4.9907,4.9907,4.999,5.0086,4.9975,4.9878,4.9878,4.9878,4.9698,4.9589,4.9589,4.9004,4.8369,4.7969,4.757,4.7288,4.7288,4.7579,4.7521,4.6882,4.6469,4.601,4.535,4.4564,4.4118,4.4118,4.3807,4.3793,4.4118,4.3885,4.3806,4.3792,4.2885,4.2276,4.1936,4.1896,4.1667,4.1339,4.1339,4.1167,4.0853,4.021,3.9701,3.9278,3.8623,3.8367,3.8424,3.8647,3.8823,3.8866,4.4107,4.4283,4.4335,4.394,4.4724,4.5212,4.4954,4.593,4.6869,4.7079,4.7556,4.7906,4.8018,4.8018,4.812,4.812,4.812,4.812,4.812,4.812,4.812,4.812,4.812,4.812,4.8018,4.812,4.8322,4.8795,4.8795,4.8795,4.8795,4.8895,4.8895,4.8895,4.8595,4.8595,4.8795,4.8595,4.871,4.9122,4.9108,4.9207,4.9207,4.9207,4.9108,4.8795,4.8795,4.8795,4.881,4.8895,4.8895,4.8795,4.8895,4.8895,4.8795,4.8895,4.8895,4.8795,4.8895,4.8895,4.8795,4.8795,4.8881,4.8966,4.8966,4.9265,4.9435,4.9334,4.9687,4.9814,4.9698,4.9669,4.9781,4.999,4.999,4.999,4.999,4.9508,4.9114,4.874,4.8261,4.7941,4.7941,4.8043,4.7796,4.7042,4.6734,4.631,4.5547,4.506,4.4876,4.4876,4.4876,4.4876,4.4876,4.5046,4.5124,4.5095,4.3236,4.238,4.2424,4.1909,4.165,4.1688,4.1688,4.14,4.091,4.0809,4.0287,3.9639,3.9311,3.9349,3.9472,3.955,3.9812,4.0161,4.4526,4.4429,4.4346,4.3792,4.3764,4.4014,4.447,4.4691,4.5287,4.6366,4.6776,4.7127,4.7657,4.7917,4.812,4.812,4.812,4.812,4.812,4.812,4.812,4.812,4.812,4.8018,4.7712,4.8018,4.812,4.8221,4.8395,4.8595,4.8595,4.8795,4.8895,4.8895,4.8595,4.8495,4.8495,4.8308,4.8221,4.8322,4.8495,4.8595,4.8595,4.8895,4.8795,4.8595,4.8595,4.8409,4.8322,4.871,4.8795,4.8595,4.8795,4.8695,4.8595,4.8795,4.8695,4.8595,4.8795,4.8695,4.8595,4.8595,4.8805,4.9009,4.9331,4.9839,5.0067,4.9701,5.0148,5.0365,4.9785,4.9669,4.9669,4.9781,4.9781,4.9781,4.9781,4.9708,4.9432,4.8783,4.8653,4.8595,4.8595,4.9088,4.8928,4.7738,4.7449,4.6757,4.5561,4.523,4.5032,4.5032,4.5032,4.5032,4.5032,4.5124,4.5216,4.5398,4.4047,4.3313,4.3197,4.2896,4.2389,4.1688,4.1688,4.1645,4.1529,4.0847,4.0492,4.0281,3.9495,3.9349,3.9553,3.9881,4.0434,4.1091,4.4768,4.4895,4.4798,4.451,4.4552,4.4635,4.484,4.5269,4.5782,4.6335,4.6796,4.7216,4.748,4.761,4.761,4.761,4.761,4.761,4.761,4.761,4.761,4.761,4.761,4.7712,4.7712,4.7815,4.7917,4.812,4.8207,4.8308,4.8308,4.8409,4.8409,4.8409,4.8308,4.8308,4.8308,4.812,4.8221,4.8308,4.8495,4.8481,4.8481,4.8595,4.8495,4.8308,4.8308,4.8207,4.812,4.8409,4.8409,4.8308,4.8409,4.8409,4.8308,4.8409,4.8409,4.8393,4.8833,4.883,4.8901,4.9253,4.955,4.9879,5.0189,5.0483,5.0702,5.0153,5.0064,5.0032,4.9545,4.9585,4.9669,4.9669,4.9878,4.9878,4.9878,4.9878,4.9645,4.8798,4.903,4.9117,4.8769,4.9306,4.9146,4.7883,4.7673,4.703,4.5758,4.5504,4.5307,4.5307,4.5216,4.5124,4.5307,4.5307,4.5413,4.5489,4.4582,4.3963,4.369,4.3026,4.2476,4.1912,4.2161,4.2117,4.1883,4.1526,4.141,4.1342,4.1067,4.083,4.0675,4.1043,4.1338,4.1495]}]]